<?xml version="1.0" encoding="UTF-8" standalone="no" ?>
<gpx xmlns="http://www.topografix.com/GPX/1/1" creator="www.cicloide.com" version="1.1" xmlns:xsi="http://www.w3.org/2001/XMLSchema-instance" xsi:schemaLocation="http://www.topografix.com/GPX/1/1 http://www.topografix.com/GPX/1/1/gpx.xsd">
  <trk>
    <name>www.cicloide.com 15986</name>
    <desc>www.cicloide.com 15986</desc>
    <trkseg>
      <trkpt lat="41.608986662" lon="2.540578459">
        <ele>117.42</ele>
        <time>2013-10-27T09:01:22Z</time>
      </trkpt>
      <trkpt lat="41.608983980" lon="2.540595977">
        <ele>117.42</ele>
        <time>2013-10-27T09:01:32Z</time>
      </trkpt>
      <trkpt lat="41.608973754" lon="2.540591618">
        <ele>117.42</ele>
        <time>2013-10-27T09:01:45Z</time>
      </trkpt>
      <trkpt lat="41.608967300" lon="2.540618105">
        <ele>117.42</ele>
        <time>2013-10-27T09:01:57Z</time>
      </trkpt>
      <trkpt lat="41.608996217" lon="2.540624224">
        <ele>117.42</ele>
        <time>2013-10-27T09:02:08Z</time>
      </trkpt>
      <trkpt lat="41.609009628" lon="2.540622380">
        <ele>117.42</ele>
        <time>2013-10-27T09:02:24Z</time>
      </trkpt>
      <trkpt lat="41.609004348" lon="2.540643335">
        <ele>117.42</ele>
        <time>2013-10-27T09:02:36Z</time>
      </trkpt>
      <trkpt lat="41.608996133" lon="2.540648364">
        <ele>117.42</ele>
        <time>2013-10-27T09:02:54Z</time>
      </trkpt>
      <trkpt lat="41.608987416" lon="2.540610058">
        <ele>117.42</ele>
        <time>2013-10-27T09:03:10Z</time>
      </trkpt>
      <trkpt lat="41.608995211" lon="2.540623050">
        <ele>117.42</ele>
        <time>2013-10-27T09:03:26Z</time>
      </trkpt>
      <trkpt lat="41.608991607" lon="2.540618859">
        <ele>117.42</ele>
        <time>2013-10-27T09:03:29Z</time>
      </trkpt>
      <trkpt lat="41.608852384" lon="2.540642077">
        <ele>117.42</ele>
        <time>2013-10-27T09:03:38Z</time>
      </trkpt>
      <trkpt lat="41.608723302" lon="2.540663367">
        <ele>115.98</ele>
        <time>2013-10-27T09:03:42Z</time>
      </trkpt>
      <trkpt lat="41.608458769" lon="2.540737212">
        <ele>115.01</ele>
        <time>2013-10-27T09:03:48Z</time>
      </trkpt>
      <trkpt lat="41.608003800" lon="2.540805524">
        <ele>114.05</ele>
        <time>2013-10-27T09:03:56Z</time>
      </trkpt>
      <trkpt lat="41.607770112" lon="2.540851373">
        <ele>113.57</ele>
        <time>2013-10-27T09:04:00Z</time>
      </trkpt>
      <trkpt lat="41.607595014" lon="2.540871993">
        <ele>113.09</ele>
        <time>2013-10-27T09:04:03Z</time>
      </trkpt>
      <trkpt lat="41.607091262" lon="2.540833101">
        <ele>112.13</ele>
        <time>2013-10-27T09:04:11Z</time>
      </trkpt>
      <trkpt lat="41.606573931" lon="2.540653728">
        <ele>110.69</ele>
        <time>2013-10-27T09:04:19Z</time>
      </trkpt>
      <trkpt lat="41.606243768" lon="2.540482234">
        <ele>110.21</ele>
        <time>2013-10-27T09:04:24Z</time>
      </trkpt>
      <trkpt lat="41.605930787" lon="2.540444432">
        <ele>109.25</ele>
        <time>2013-10-27T09:04:29Z</time>
      </trkpt>
      <trkpt lat="41.605826349" lon="2.540465051">
        <ele>109.25</ele>
        <time>2013-10-27T09:04:31Z</time>
      </trkpt>
      <trkpt lat="41.605438183" lon="2.540383663">
        <ele>108.77</ele>
        <time>2013-10-27T09:04:37Z</time>
      </trkpt>
      <trkpt lat="41.604857736" lon="2.540354662">
        <ele>106.84</ele>
        <time>2013-10-27T09:04:44Z</time>
      </trkpt>
      <trkpt lat="41.604586079" lon="2.540397158">
        <ele>105.88</ele>
        <time>2013-10-27T09:04:47Z</time>
      </trkpt>
      <trkpt lat="41.604156925" lon="2.540650040">
        <ele>104.44</ele>
        <time>2013-10-27T09:04:52Z</time>
      </trkpt>
      <trkpt lat="41.603450247" lon="2.541150523">
        <ele>101.56</ele>
        <time>2013-10-27T09:05:00Z</time>
      </trkpt>
      <trkpt lat="41.602644914" lon="2.541521339">
        <ele>99.15</ele>
        <time>2013-10-27T09:05:09Z</time>
      </trkpt>
      <trkpt lat="41.602508456" lon="2.541597698">
        <ele>97.71</ele>
        <time>2013-10-27T09:05:12Z</time>
      </trkpt>
      <trkpt lat="41.602524214" lon="2.541779585">
        <ele>97.23</ele>
        <time>2013-10-27T09:05:16Z</time>
      </trkpt>
      <trkpt lat="41.602556569" lon="2.541870864">
        <ele>98.19</ele>
        <time>2013-10-27T09:05:18Z</time>
      </trkpt>
      <trkpt lat="41.602617505" lon="2.542176217">
        <ele>100.11</ele>
        <time>2013-10-27T09:05:25Z</time>
      </trkpt>
      <trkpt lat="41.602580373" lon="2.542374868">
        <ele>100.11</ele>
        <time>2013-10-27T09:05:31Z</time>
      </trkpt>
      <trkpt lat="41.602545169" lon="2.542504536">
        <ele>100.11</ele>
        <time>2013-10-27T09:05:33Z</time>
      </trkpt>
      <trkpt lat="41.602291197" lon="2.542874765">
        <ele>98.67</ele>
        <time>2013-10-27T09:05:40Z</time>
      </trkpt>
      <trkpt lat="41.602248366" lon="2.542925978">
        <ele>98.67</ele>
        <time>2013-10-27T09:05:41Z</time>
      </trkpt>
      <trkpt lat="41.601910072" lon="2.543298638">
        <ele>98.67</ele>
        <time>2013-10-27T09:05:49Z</time>
      </trkpt>
      <trkpt lat="41.601832037" lon="2.543376002">
        <ele>100.11</ele>
        <time>2013-10-27T09:05:51Z</time>
      </trkpt>
      <trkpt lat="41.601488546" lon="2.543628633">
        <ele>102.52</ele>
        <time>2013-10-27T09:06:00Z</time>
      </trkpt>
      <trkpt lat="41.601324010" lon="2.543875480">
        <ele>104.44</ele>
        <time>2013-10-27T09:06:06Z</time>
      </trkpt>
      <trkpt lat="41.601271539" lon="2.543980757">
        <ele>104.44</ele>
        <time>2013-10-27T09:06:08Z</time>
      </trkpt>
      <trkpt lat="41.601164502" lon="2.544137917">
        <ele>103.00</ele>
        <time>2013-10-27T09:06:12Z</time>
      </trkpt>
      <trkpt lat="41.601211022" lon="2.544308992">
        <ele>103.00</ele>
        <time>2013-10-27T09:06:17Z</time>
      </trkpt>
      <trkpt lat="41.601344797" lon="2.544536980">
        <ele>104.92</ele>
        <time>2013-10-27T09:06:24Z</time>
      </trkpt>
      <trkpt lat="41.601535569" lon="2.544801177">
        <ele>108.29</ele>
        <time>2013-10-27T09:06:34Z</time>
      </trkpt>
      <trkpt lat="41.601665572" lon="2.544972252">
        <ele>109.25</ele>
        <time>2013-10-27T09:06:41Z</time>
      </trkpt>
      <trkpt lat="41.601837569" lon="2.545208873">
        <ele>111.17</ele>
        <time>2013-10-27T09:06:50Z</time>
      </trkpt>
      <trkpt lat="41.602006967" lon="2.545432502">
        <ele>113.09</ele>
        <time>2013-10-27T09:06:59Z</time>
      </trkpt>
      <trkpt lat="41.602125152" lon="2.545633081">
        <ele>115.01</ele>
        <time>2013-10-27T09:07:08Z</time>
      </trkpt>
      <trkpt lat="41.602130935" lon="2.545685468">
        <ele>115.50</ele>
        <time>2013-10-27T09:07:10Z</time>
      </trkpt>
      <trkpt lat="41.602064802" lon="2.545785213">
        <ele>116.94</ele>
        <time>2013-10-27T09:07:16Z</time>
      </trkpt>
      <trkpt lat="41.601988192" lon="2.545815052">
        <ele>117.90</ele>
        <time>2013-10-27T09:07:20Z</time>
      </trkpt>
      <trkpt lat="41.601803119" lon="2.545862662">
        <ele>118.86</ele>
        <time>2013-10-27T09:07:28Z</time>
      </trkpt>
      <trkpt lat="41.601651910" lon="2.545904404">
        <ele>120.30</ele>
        <time>2013-10-27T09:07:35Z</time>
      </trkpt>
      <trkpt lat="41.601469603" lon="2.545930555">
        <ele>121.74</ele>
        <time>2013-10-27T09:07:42Z</time>
      </trkpt>
      <trkpt lat="41.601293416" lon="2.545990989">
        <ele>123.67</ele>
        <time>2013-10-27T09:07:49Z</time>
      </trkpt>
      <trkpt lat="41.601175231" lon="2.546066510">
        <ele>125.59</ele>
        <time>2013-10-27T09:07:56Z</time>
      </trkpt>
      <trkpt lat="41.601025949" lon="2.546203638">
        <ele>127.99</ele>
        <time>2013-10-27T09:08:05Z</time>
      </trkpt>
      <trkpt lat="41.600902987" lon="2.546321319">
        <ele>129.92</ele>
        <time>2013-10-27T09:08:13Z</time>
      </trkpt>
      <trkpt lat="41.600730152" lon="2.546432212">
        <ele>132.80</ele>
        <time>2013-10-27T09:08:21Z</time>
      </trkpt>
      <trkpt lat="41.600594281" lon="2.546470685">
        <ele>134.72</ele>
        <time>2013-10-27T09:08:28Z</time>
      </trkpt>
      <trkpt lat="41.600408119" lon="2.546376724">
        <ele>136.64</ele>
        <time>2013-10-27T09:08:37Z</time>
      </trkpt>
      <trkpt lat="41.600269231" lon="2.546240769">
        <ele>138.09</ele>
        <time>2013-10-27T09:08:45Z</time>
      </trkpt>
      <trkpt lat="41.600115172" lon="2.546180755">
        <ele>139.53</ele>
        <time>2013-10-27T09:08:52Z</time>
      </trkpt>
      <trkpt lat="41.600105281" lon="2.546309333">
        <ele>140.49</ele>
        <time>2013-10-27T09:08:58Z</time>
      </trkpt>
      <trkpt lat="41.600178706" lon="2.546393739">
        <ele>141.45</ele>
        <time>2013-10-27T09:09:03Z</time>
      </trkpt>
      <trkpt lat="41.600317595" lon="2.546594569">
        <ele>143.37</ele>
        <time>2013-10-27T09:09:13Z</time>
      </trkpt>
      <trkpt lat="41.600495123" lon="2.546751395">
        <ele>144.34</ele>
        <time>2013-10-27T09:09:23Z</time>
      </trkpt>
      <trkpt lat="41.600712215" lon="2.546809398">
        <ele>146.74</ele>
        <time>2013-10-27T09:09:33Z</time>
      </trkpt>
      <trkpt lat="41.600912374" lon="2.546875028">
        <ele>148.66</ele>
        <time>2013-10-27T09:09:42Z</time>
      </trkpt>
      <trkpt lat="41.601146313" lon="2.546995979">
        <ele>149.62</ele>
        <time>2013-10-27T09:09:53Z</time>
      </trkpt>
      <trkpt lat="41.601258128" lon="2.547039565">
        <ele>152.03</ele>
        <time>2013-10-27T09:10:01Z</time>
      </trkpt>
      <trkpt lat="41.601266761" lon="2.547042415">
        <ele>152.03</ele>
        <time>2013-10-27T09:10:10Z</time>
      </trkpt>
      <trkpt lat="41.601366087" lon="2.547014335">
        <ele>152.51</ele>
        <time>2013-10-27T09:10:17Z</time>
      </trkpt>
      <trkpt lat="41.601542191" lon="2.547033194">
        <ele>153.47</ele>
        <time>2013-10-27T09:10:24Z</time>
      </trkpt>
      <trkpt lat="41.601764227" lon="2.547003774">
        <ele>154.91</ele>
        <time>2013-10-27T09:10:33Z</time>
      </trkpt>
      <trkpt lat="41.601946031" lon="2.546935294">
        <ele>156.83</ele>
        <time>2013-10-27T09:10:41Z</time>
      </trkpt>
      <trkpt lat="41.602011996" lon="2.546955075">
        <ele>157.79</ele>
        <time>2013-10-27T09:10:44Z</time>
      </trkpt>
      <trkpt lat="41.602131103" lon="2.547156660">
        <ele>158.75</ele>
        <time>2013-10-27T09:10:53Z</time>
      </trkpt>
      <trkpt lat="41.602283486" lon="2.547337541">
        <ele>161.16</ele>
        <time>2013-10-27T09:11:02Z</time>
      </trkpt>
      <trkpt lat="41.602481467" lon="2.547566032">
        <ele>162.60</ele>
        <time>2013-10-27T09:11:13Z</time>
      </trkpt>
      <trkpt lat="41.602648267" lon="2.547753368">
        <ele>163.56</ele>
        <time>2013-10-27T09:11:22Z</time>
      </trkpt>
      <trkpt lat="41.602825292" lon="2.547911450">
        <ele>164.52</ele>
        <time>2013-10-27T09:11:31Z</time>
      </trkpt>
      <trkpt lat="41.603006677" lon="2.548055787">
        <ele>165.00</ele>
        <time>2013-10-27T09:11:41Z</time>
      </trkpt>
      <trkpt lat="41.603163921" lon="2.548130134">
        <ele>165.48</ele>
        <time>2013-10-27T09:11:48Z</time>
      </trkpt>
      <trkpt lat="41.603300965" lon="2.548181180">
        <ele>166.45</ele>
        <time>2013-10-27T09:11:55Z</time>
      </trkpt>
      <trkpt lat="41.603320663" lon="2.548198614">
        <ele>166.93</ele>
        <time>2013-10-27T09:11:56Z</time>
      </trkpt>
      <trkpt lat="41.603290488" lon="2.548316296">
        <ele>167.89</ele>
        <time>2013-10-27T09:12:02Z</time>
      </trkpt>
      <trkpt lat="41.603222930" lon="2.548301293">
        <ele>167.89</ele>
        <time>2013-10-27T09:12:05Z</time>
      </trkpt>
      <trkpt lat="41.603050514" lon="2.548215462">
        <ele>169.33</ele>
        <time>2013-10-27T09:12:13Z</time>
      </trkpt>
      <trkpt lat="41.602867202" lon="2.548164751">
        <ele>171.73</ele>
        <time>2013-10-27T09:12:21Z</time>
      </trkpt>
      <trkpt lat="41.602842811" lon="2.548283774">
        <ele>171.73</ele>
        <time>2013-10-27T09:12:25Z</time>
      </trkpt>
      <trkpt lat="41.602889414" lon="2.548536154">
        <ele>174.62</ele>
        <time>2013-10-27T09:12:33Z</time>
      </trkpt>
      <trkpt lat="41.602887821" lon="2.548791466">
        <ele>176.06</ele>
        <time>2013-10-27T09:12:41Z</time>
      </trkpt>
      <trkpt lat="41.602912045" lon="2.549032781">
        <ele>177.02</ele>
        <time>2013-10-27T09:12:48Z</time>
      </trkpt>
      <trkpt lat="41.602986057" lon="2.549266050">
        <ele>177.98</ele>
        <time>2013-10-27T09:12:56Z</time>
      </trkpt>
      <trkpt lat="41.603029224" lon="2.549484566">
        <ele>178.94</ele>
        <time>2013-10-27T09:13:03Z</time>
      </trkpt>
      <trkpt lat="41.603032325" lon="2.549776005">
        <ele>180.38</ele>
        <time>2013-10-27T09:13:11Z</time>
      </trkpt>
      <trkpt lat="41.603111367" lon="2.549983373">
        <ele>181.35</ele>
        <time>2013-10-27T09:13:18Z</time>
      </trkpt>
      <trkpt lat="41.603172135" lon="2.550240781">
        <ele>182.31</ele>
        <time>2013-10-27T09:13:25Z</time>
      </trkpt>
      <trkpt lat="41.603229132" lon="2.550505398">
        <ele>183.75</ele>
        <time>2013-10-27T09:13:33Z</time>
      </trkpt>
      <trkpt lat="41.603295685" lon="2.550751239">
        <ele>185.19</ele>
        <time>2013-10-27T09:13:41Z</time>
      </trkpt>
      <trkpt lat="41.603364835" lon="2.551053071">
        <ele>186.15</ele>
        <time>2013-10-27T09:13:49Z</time>
      </trkpt>
      <trkpt lat="41.603464161" lon="2.551305702">
        <ele>188.08</ele>
        <time>2013-10-27T09:13:57Z</time>
      </trkpt>
      <trkpt lat="41.603501041" lon="2.551515752">
        <ele>189.04</ele>
        <time>2013-10-27T09:14:03Z</time>
      </trkpt>
      <trkpt lat="41.603452678" lon="2.551655479">
        <ele>189.04</ele>
        <time>2013-10-27T09:14:07Z</time>
      </trkpt>
      <trkpt lat="41.603234581" lon="2.551874582">
        <ele>189.04</ele>
        <time>2013-10-27T09:14:16Z</time>
      </trkpt>
      <trkpt lat="41.603000809" lon="2.552033000">
        <ele>190.48</ele>
        <time>2013-10-27T09:14:25Z</time>
      </trkpt>
      <trkpt lat="41.602859910" lon="2.551948007">
        <ele>191.44</ele>
        <time>2013-10-27T09:14:31Z</time>
      </trkpt>
      <trkpt lat="41.602773911" lon="2.551873492">
        <ele>192.40</ele>
        <time>2013-10-27T09:14:35Z</time>
      </trkpt>
      <trkpt lat="41.602653128" lon="2.551957563">
        <ele>194.32</ele>
        <time>2013-10-27T09:14:41Z</time>
      </trkpt>
      <trkpt lat="41.602598981" lon="2.552031826">
        <ele>195.77</ele>
        <time>2013-10-27T09:14:44Z</time>
      </trkpt>
      <trkpt lat="41.602462272" lon="2.552196279">
        <ele>198.17</ele>
        <time>2013-10-27T09:14:53Z</time>
      </trkpt>
      <trkpt lat="41.602341992" lon="2.552196866">
        <ele>200.57</ele>
        <time>2013-10-27T09:15:01Z</time>
      </trkpt>
      <trkpt lat="41.602212743" lon="2.552217234">
        <ele>203.94</ele>
        <time>2013-10-27T09:15:09Z</time>
      </trkpt>
      <trkpt lat="41.602092379" lon="2.552295772">
        <ele>205.38</ele>
        <time>2013-10-27T09:15:17Z</time>
      </trkpt>
      <trkpt lat="41.601973020" lon="2.552442791">
        <ele>207.30</ele>
        <time>2013-10-27T09:15:26Z</time>
      </trkpt>
      <trkpt lat="41.601898589" lon="2.552579416">
        <ele>209.22</ele>
        <time>2013-10-27T09:15:34Z</time>
      </trkpt>
      <trkpt lat="41.601852237" lon="2.552692069">
        <ele>210.67</ele>
        <time>2013-10-27T09:15:40Z</time>
      </trkpt>
      <trkpt lat="41.601785601" lon="2.552822240">
        <ele>212.59</ele>
        <time>2013-10-27T09:15:48Z</time>
      </trkpt>
      <trkpt lat="41.601738243" lon="2.552924331">
        <ele>214.51</ele>
        <time>2013-10-27T09:15:55Z</time>
      </trkpt>
      <trkpt lat="41.601693400" lon="2.552990548">
        <ele>214.99</ele>
        <time>2013-10-27T09:16:00Z</time>
      </trkpt>
      <trkpt lat="41.601623160" lon="2.553150894">
        <ele>217.88</ele>
        <time>2013-10-27T09:16:09Z</time>
      </trkpt>
      <trkpt lat="41.601603127" lon="2.553306714">
        <ele>218.36</ele>
        <time>2013-10-27T09:16:17Z</time>
      </trkpt>
      <trkpt lat="41.601547136" lon="2.553518776">
        <ele>219.80</ele>
        <time>2013-10-27T09:16:26Z</time>
      </trkpt>
      <trkpt lat="41.601509753" lon="2.553756151">
        <ele>221.72</ele>
        <time>2013-10-27T09:16:36Z</time>
      </trkpt>
      <trkpt lat="41.601517129" lon="2.553777693">
        <ele>221.72</ele>
        <time>2013-10-27T09:16:37Z</time>
      </trkpt>
      <trkpt lat="41.601607486" lon="2.553824129">
        <ele>223.16</ele>
        <time>2013-10-27T09:16:44Z</time>
      </trkpt>
      <trkpt lat="41.601736232" lon="2.553834355">
        <ele>225.09</ele>
        <time>2013-10-27T09:16:54Z</time>
      </trkpt>
      <trkpt lat="41.601829690" lon="2.553848185">
        <ele>227.97</ele>
        <time>2013-10-27T09:17:00Z</time>
      </trkpt>
      <trkpt lat="41.601965058" lon="2.553822536">
        <ele>229.41</ele>
        <time>2013-10-27T09:17:08Z</time>
      </trkpt>
      <trkpt lat="41.602126158" lon="2.553779453">
        <ele>231.33</ele>
        <time>2013-10-27T09:17:17Z</time>
      </trkpt>
      <trkpt lat="41.602221376" lon="2.553832930">
        <ele>232.30</ele>
        <time>2013-10-27T09:17:23Z</time>
      </trkpt>
      <trkpt lat="41.602337717" lon="2.553927477">
        <ele>234.70</ele>
        <time>2013-10-27T09:17:31Z</time>
      </trkpt>
      <trkpt lat="41.602452549" lon="2.553985313">
        <ele>235.18</ele>
        <time>2013-10-27T09:17:38Z</time>
      </trkpt>
      <trkpt lat="41.602472330" lon="2.553982798">
        <ele>235.18</ele>
        <time>2013-10-27T09:17:43Z</time>
      </trkpt>
      <trkpt lat="41.602467469" lon="2.553981541">
        <ele>235.18</ele>
        <time>2013-10-27T09:17:56Z</time>
      </trkpt>
      <trkpt lat="41.602470067" lon="2.553974919">
        <ele>235.66</ele>
        <time>2013-10-27T09:18:02Z</time>
      </trkpt>
      <trkpt lat="41.602530417" lon="2.553956311">
        <ele>235.66</ele>
        <time>2013-10-27T09:18:06Z</time>
      </trkpt>
      <trkpt lat="41.602739043" lon="2.553927897">
        <ele>235.66</ele>
        <time>2013-10-27T09:18:15Z</time>
      </trkpt>
      <trkpt lat="41.602958900" lon="2.553909205">
        <ele>237.10</ele>
        <time>2013-10-27T09:18:24Z</time>
      </trkpt>
      <trkpt lat="41.603130645" lon="2.553851454">
        <ele>238.06</ele>
        <time>2013-10-27T09:18:31Z</time>
      </trkpt>
      <trkpt lat="41.603297864" lon="2.553733939">
        <ele>239.02</ele>
        <time>2013-10-27T09:18:39Z</time>
      </trkpt>
      <trkpt lat="41.603433316" lon="2.553628411">
        <ele>240.47</ele>
        <time>2013-10-27T09:18:46Z</time>
      </trkpt>
      <trkpt lat="41.603596930" lon="2.553565044">
        <ele>242.87</ele>
        <time>2013-10-27T09:18:54Z</time>
      </trkpt>
      <trkpt lat="41.603776890" lon="2.553466305">
        <ele>245.27</ele>
        <time>2013-10-27T09:19:03Z</time>
      </trkpt>
      <trkpt lat="41.603911755" lon="2.553357005">
        <ele>247.20</ele>
        <time>2013-10-27T09:19:10Z</time>
      </trkpt>
      <trkpt lat="41.604052571" lon="2.553340912">
        <ele>248.64</ele>
        <time>2013-10-27T09:19:17Z</time>
      </trkpt>
      <trkpt lat="41.604163882" lon="2.553348875">
        <ele>249.12</ele>
        <time>2013-10-27T09:19:24Z</time>
      </trkpt>
      <trkpt lat="41.604289108" lon="2.553369075">
        <ele>250.56</ele>
        <time>2013-10-27T09:19:31Z</time>
      </trkpt>
      <trkpt lat="41.604414166" lon="2.553375026">
        <ele>252.48</ele>
        <time>2013-10-27T09:19:37Z</time>
      </trkpt>
      <trkpt lat="41.604566884" lon="2.553333620">
        <ele>253.93</ele>
        <time>2013-10-27T09:19:44Z</time>
      </trkpt>
      <trkpt lat="41.604647183" lon="2.553315599">
        <ele>255.37</ele>
        <time>2013-10-27T09:19:48Z</time>
      </trkpt>
      <trkpt lat="41.604838877" lon="2.553377289">
        <ele>255.85</ele>
        <time>2013-10-27T09:19:56Z</time>
      </trkpt>
      <trkpt lat="41.605038618" lon="2.553559763">
        <ele>255.85</ele>
        <time>2013-10-27T09:20:03Z</time>
      </trkpt>
      <trkpt lat="41.605230815" lon="2.553717846">
        <ele>255.85</ele>
        <time>2013-10-27T09:20:09Z</time>
      </trkpt>
      <trkpt lat="41.605484786" lon="2.553746009">
        <ele>255.85</ele>
        <time>2013-10-27T09:20:16Z</time>
      </trkpt>
      <trkpt lat="41.605741943" lon="2.553742489">
        <ele>257.29</ele>
        <time>2013-10-27T09:20:24Z</time>
      </trkpt>
      <trkpt lat="41.605967081" lon="2.553688007">
        <ele>257.77</ele>
        <time>2013-10-27T09:20:32Z</time>
      </trkpt>
      <trkpt lat="41.606065485" lon="2.553551130">
        <ele>258.73</ele>
        <time>2013-10-27T09:20:38Z</time>
      </trkpt>
      <trkpt lat="41.606184759" lon="2.553470831">
        <ele>261.14</ele>
        <time>2013-10-27T09:20:44Z</time>
      </trkpt>
      <trkpt lat="41.606387853" lon="2.553397825">
        <ele>262.10</ele>
        <time>2013-10-27T09:20:52Z</time>
      </trkpt>
      <trkpt lat="41.606538811" lon="2.553283077">
        <ele>264.02</ele>
        <time>2013-10-27T09:21:00Z</time>
      </trkpt>
      <trkpt lat="41.606660851" lon="2.553130694">
        <ele>264.98</ele>
        <time>2013-10-27T09:21:08Z</time>
      </trkpt>
      <trkpt lat="41.606797560" lon="2.553035894">
        <ele>265.46</ele>
        <time>2013-10-27T09:21:14Z</time>
      </trkpt>
      <trkpt lat="41.606891773" lon="2.553010581">
        <ele>264.02</ele>
        <time>2013-10-27T09:21:16Z</time>
      </trkpt>
      <trkpt lat="41.606944243" lon="2.553000188">
        <ele>263.54</ele>
        <time>2013-10-27T09:21:17Z</time>
      </trkpt>
      <trkpt lat="41.607063266" lon="2.552995745">
        <ele>262.58</ele>
        <time>2013-10-27T09:21:19Z</time>
      </trkpt>
      <trkpt lat="41.607366440" lon="2.553005971">
        <ele>260.17</ele>
        <time>2013-10-27T09:21:24Z</time>
      </trkpt>
      <trkpt lat="41.607480434" lon="2.553101022">
        <ele>259.69</ele>
        <time>2013-10-27T09:21:26Z</time>
      </trkpt>
      <trkpt lat="41.607957029" lon="2.553401094">
        <ele>258.73</ele>
        <time>2013-10-27T09:21:34Z</time>
      </trkpt>
      <trkpt lat="41.608131540" lon="2.553488852">
        <ele>260.17</ele>
        <time>2013-10-27T09:21:39Z</time>
      </trkpt>
      <trkpt lat="41.608161799" lon="2.553509556">
        <ele>260.17</ele>
        <time>2013-10-27T09:21:40Z</time>
      </trkpt>
      <trkpt lat="41.608318205" lon="2.553655149">
        <ele>261.62</ele>
        <time>2013-10-27T09:21:46Z</time>
      </trkpt>
      <trkpt lat="41.608537978" lon="2.553826140">
        <ele>264.02</ele>
        <time>2013-10-27T09:21:55Z</time>
      </trkpt>
      <trkpt lat="41.608702096" lon="2.553945834">
        <ele>266.90</ele>
        <time>2013-10-27T09:22:03Z</time>
      </trkpt>
      <trkpt lat="41.608835787" lon="2.554013224">
        <ele>269.31</ele>
        <time>2013-10-27T09:22:10Z</time>
      </trkpt>
      <trkpt lat="41.608946009" lon="2.554041136">
        <ele>270.75</ele>
        <time>2013-10-27T09:22:16Z</time>
      </trkpt>
      <trkpt lat="41.609097470" lon="2.554070808">
        <ele>273.63</ele>
        <time>2013-10-27T09:22:26Z</time>
      </trkpt>
      <trkpt lat="41.609240717" lon="2.554108024">
        <ele>275.07</ele>
        <time>2013-10-27T09:22:36Z</time>
      </trkpt>
      <trkpt lat="41.609331242" lon="2.554034431">
        <ele>276.04</ele>
        <time>2013-10-27T09:22:43Z</time>
      </trkpt>
      <trkpt lat="41.609467364" lon="2.553924460">
        <ele>277.00</ele>
        <time>2013-10-27T09:22:51Z</time>
      </trkpt>
      <trkpt lat="41.609659561" lon="2.553795965">
        <ele>277.00</ele>
        <time>2013-10-27T09:22:57Z</time>
      </trkpt>
      <trkpt lat="41.609932643" lon="2.553816585">
        <ele>275.56</ele>
        <time>2013-10-27T09:23:04Z</time>
      </trkpt>
      <trkpt lat="41.610223076" lon="2.553817758">
        <ele>275.56</ele>
        <time>2013-10-27T09:23:12Z</time>
      </trkpt>
      <trkpt lat="41.610265908" lon="2.553809796">
        <ele>275.07</ele>
        <time>2013-10-27T09:23:13Z</time>
      </trkpt>
      <trkpt lat="41.610607219" lon="2.553838294">
        <ele>275.56</ele>
        <time>2013-10-27T09:23:22Z</time>
      </trkpt>
      <trkpt lat="41.610893545" lon="2.553859500">
        <ele>276.52</ele>
        <time>2013-10-27T09:23:31Z</time>
      </trkpt>
      <trkpt lat="41.611102422" lon="2.553879701">
        <ele>277.48</ele>
        <time>2013-10-27T09:23:38Z</time>
      </trkpt>
      <trkpt lat="41.611330577" lon="2.553992773">
        <ele>278.92</ele>
        <time>2013-10-27T09:23:46Z</time>
      </trkpt>
      <trkpt lat="41.611427891" lon="2.554194525">
        <ele>278.92</ele>
        <time>2013-10-27T09:23:52Z</time>
      </trkpt>
      <trkpt lat="41.611504250" lon="2.554401139">
        <ele>279.88</ele>
        <time>2013-10-27T09:23:59Z</time>
      </trkpt>
      <trkpt lat="41.611514728" lon="2.554468697">
        <ele>279.88</ele>
        <time>2013-10-27T09:24:01Z</time>
      </trkpt>
      <trkpt lat="41.611490504" lon="2.554603143">
        <ele>280.36</ele>
        <time>2013-10-27T09:24:07Z</time>
      </trkpt>
      <trkpt lat="41.611471980" lon="2.554758962">
        <ele>281.32</ele>
        <time>2013-10-27T09:24:12Z</time>
      </trkpt>
      <trkpt lat="41.611442224" lon="2.554952165">
        <ele>281.80</ele>
        <time>2013-10-27T09:24:17Z</time>
      </trkpt>
      <trkpt lat="41.611483547" lon="2.555213764">
        <ele>285.17</ele>
        <time>2013-10-27T09:24:26Z</time>
      </trkpt>
      <trkpt lat="41.611501736" lon="2.555289788">
        <ele>286.13</ele>
        <time>2013-10-27T09:24:29Z</time>
      </trkpt>
      <trkpt lat="41.611477428" lon="2.555409901">
        <ele>286.13</ele>
        <time>2013-10-27T09:24:34Z</time>
      </trkpt>
      <trkpt lat="41.611464520" lon="2.555645349">
        <ele>287.57</ele>
        <time>2013-10-27T09:24:43Z</time>
      </trkpt>
      <trkpt lat="41.611450019" lon="2.555719026">
        <ele>287.57</ele>
        <time>2013-10-27T09:24:46Z</time>
      </trkpt>
      <trkpt lat="41.611425544" lon="2.555976518">
        <ele>289.49</ele>
        <time>2013-10-27T09:24:56Z</time>
      </trkpt>
      <trkpt lat="41.611454210" lon="2.556171062">
        <ele>291.42</ele>
        <time>2013-10-27T09:25:04Z</time>
      </trkpt>
      <trkpt lat="41.611492935" lon="2.556367701">
        <ele>292.38</ele>
        <time>2013-10-27T09:25:11Z</time>
      </trkpt>
      <trkpt lat="41.611522104" lon="2.556590576">
        <ele>293.34</ele>
        <time>2013-10-27T09:25:20Z</time>
      </trkpt>
      <trkpt lat="41.611544064" lon="2.556717143">
        <ele>293.82</ele>
        <time>2013-10-27T09:25:25Z</time>
      </trkpt>
      <trkpt lat="41.611608940" lon="2.556918308">
        <ele>294.30</ele>
        <time>2013-10-27T09:25:33Z</time>
      </trkpt>
      <trkpt lat="41.611652610" lon="2.557109080">
        <ele>293.34</ele>
        <time>2013-10-27T09:25:36Z</time>
      </trkpt>
      <trkpt lat="41.611808932" lon="2.557591207">
        <ele>289.01</ele>
        <time>2013-10-27T09:25:42Z</time>
      </trkpt>
      <trkpt lat="41.611883028" lon="2.557801006">
        <ele>286.61</ele>
        <time>2013-10-27T09:25:45Z</time>
      </trkpt>
      <trkpt lat="41.612048906" lon="2.557858674">
        <ele>284.69</ele>
        <time>2013-10-27T09:25:48Z</time>
      </trkpt>
      <trkpt lat="41.612507396" lon="2.557794301">
        <ele>279.88</ele>
        <time>2013-10-27T09:25:53Z</time>
      </trkpt>
      <trkpt lat="41.612704706" lon="2.557774101">
        <ele>278.92</ele>
        <time>2013-10-27T09:25:55Z</time>
      </trkpt>
      <trkpt lat="41.612966976" lon="2.557729006">
        <ele>277.00</ele>
        <time>2013-10-27T09:25:58Z</time>
      </trkpt>
      <trkpt lat="41.613230335" lon="2.557794804">
        <ele>275.07</ele>
        <time>2013-10-27T09:26:03Z</time>
      </trkpt>
      <trkpt lat="41.613258582" lon="2.557859009">
        <ele>274.59</ele>
        <time>2013-10-27T09:26:04Z</time>
      </trkpt>
      <trkpt lat="41.613325889" lon="2.557978619">
        <ele>274.59</ele>
        <time>2013-10-27T09:26:06Z</time>
      </trkpt>
      <trkpt lat="41.613587907" lon="2.558398217">
        <ele>275.56</ele>
        <time>2013-10-27T09:26:14Z</time>
      </trkpt>
      <trkpt lat="41.613789660" lon="2.558726704">
        <ele>277.96</ele>
        <time>2013-10-27T09:26:22Z</time>
      </trkpt>
      <trkpt lat="41.613935505" lon="2.558956787">
        <ele>280.84</ele>
        <time>2013-10-27T09:26:29Z</time>
      </trkpt>
      <trkpt lat="41.614029466" lon="2.559081845">
        <ele>282.77</ele>
        <time>2013-10-27T09:26:34Z</time>
      </trkpt>
      <trkpt lat="41.614135078" lon="2.559228528">
        <ele>284.21</ele>
        <time>2013-10-27T09:26:39Z</time>
      </trkpt>
      <trkpt lat="41.614234907" lon="2.559363812">
        <ele>286.13</ele>
        <time>2013-10-27T09:26:45Z</time>
      </trkpt>
      <trkpt lat="41.614345464" lon="2.559357861">
        <ele>288.53</ele>
        <time>2013-10-27T09:26:53Z</time>
      </trkpt>
      <trkpt lat="41.614369604" lon="2.559359621">
        <ele>288.53</ele>
        <time>2013-10-27T09:27:00Z</time>
      </trkpt>
      <trkpt lat="41.614397515" lon="2.559350234">
        <ele>288.53</ele>
        <time>2013-10-27T09:27:19Z</time>
      </trkpt>
      <trkpt lat="41.614405478" lon="2.559350904">
        <ele>288.53</ele>
        <time>2013-10-27T09:27:27Z</time>
      </trkpt>
      <trkpt lat="41.614478652" lon="2.559268175">
        <ele>290.46</ele>
        <time>2013-10-27T09:27:36Z</time>
      </trkpt>
      <trkpt lat="41.614502792" lon="2.559261218">
        <ele>290.94</ele>
        <time>2013-10-27T09:27:39Z</time>
      </trkpt>
      <trkpt lat="41.614542858" lon="2.559265493">
        <ele>292.38</ele>
        <time>2013-10-27T09:27:43Z</time>
      </trkpt>
      <trkpt lat="41.614630281" lon="2.559289046">
        <ele>292.38</ele>
        <time>2013-10-27T09:27:49Z</time>
      </trkpt>
      <trkpt lat="41.614672442" lon="2.559275802">
        <ele>292.38</ele>
        <time>2013-10-27T09:27:52Z</time>
      </trkpt>
      <trkpt lat="41.614812839" lon="2.559364064">
        <ele>292.38</ele>
        <time>2013-10-27T09:27:58Z</time>
      </trkpt>
      <trkpt lat="41.614896490" lon="2.559484176">
        <ele>292.38</ele>
        <time>2013-10-27T09:28:03Z</time>
      </trkpt>
      <trkpt lat="41.614883079" lon="2.559552740">
        <ele>292.38</ele>
        <time>2013-10-27T09:28:06Z</time>
      </trkpt>
      <trkpt lat="41.614850893" lon="2.559685845">
        <ele>292.38</ele>
        <time>2013-10-27T09:28:12Z</time>
      </trkpt>
      <trkpt lat="41.614841924" lon="2.559720127">
        <ele>292.38</ele>
        <time>2013-10-27T09:28:14Z</time>
      </trkpt>
      <trkpt lat="41.614839996" lon="2.559832193">
        <ele>292.86</ele>
        <time>2013-10-27T09:28:22Z</time>
      </trkpt>
      <trkpt lat="41.614839074" lon="2.559910564">
        <ele>292.86</ele>
        <time>2013-10-27T09:28:25Z</time>
      </trkpt>
      <trkpt lat="41.614890371" lon="2.560060768">
        <ele>293.82</ele>
        <time>2013-10-27T09:28:33Z</time>
      </trkpt>
      <trkpt lat="41.614894227" lon="2.560079795">
        <ele>293.82</ele>
        <time>2013-10-27T09:28:34Z</time>
      </trkpt>
      <trkpt lat="41.614902609" lon="2.560147688">
        <ele>294.78</ele>
        <time>2013-10-27T09:28:37Z</time>
      </trkpt>
      <trkpt lat="41.614937310" lon="2.560295712">
        <ele>297.18</ele>
        <time>2013-10-27T09:28:45Z</time>
      </trkpt>
      <trkpt lat="41.614980980" lon="2.560395457">
        <ele>298.63</ele>
        <time>2013-10-27T09:28:51Z</time>
      </trkpt>
      <trkpt lat="41.614925743" lon="2.560478773">
        <ele>299.11</ele>
        <time>2013-10-27T09:28:56Z</time>
      </trkpt>
      <trkpt lat="41.614812168" lon="2.560657308">
        <ele>298.15</ele>
        <time>2013-10-27T09:29:03Z</time>
      </trkpt>
      <trkpt lat="41.614796326" lon="2.560702486">
        <ele>297.67</ele>
        <time>2013-10-27T09:29:04Z</time>
      </trkpt>
      <trkpt lat="41.614785598" lon="2.560928295">
        <ele>296.22</ele>
        <time>2013-10-27T09:29:09Z</time>
      </trkpt>
      <trkpt lat="41.614792974" lon="2.560972886">
        <ele>296.22</ele>
        <time>2013-10-27T09:29:10Z</time>
      </trkpt>
      <trkpt lat="41.614822059" lon="2.561255189">
        <ele>291.90</ele>
        <time>2013-10-27T09:29:16Z</time>
      </trkpt>
      <trkpt lat="41.614857682" lon="2.561601445">
        <ele>288.05</ele>
        <time>2013-10-27T09:29:21Z</time>
      </trkpt>
      <trkpt lat="41.614856509" lon="2.561656179">
        <ele>288.05</ele>
        <time>2013-10-27T09:29:22Z</time>
      </trkpt>
      <trkpt lat="41.614859694" lon="2.561968321">
        <ele>286.61</ele>
        <time>2013-10-27T09:29:27Z</time>
      </trkpt>
      <trkpt lat="41.614882157" lon="2.562104443">
        <ele>286.13</ele>
        <time>2013-10-27T09:29:29Z</time>
      </trkpt>
      <trkpt lat="41.614952062" lon="2.562312147">
        <ele>285.65</ele>
        <time>2013-10-27T09:29:32Z</time>
      </trkpt>
      <trkpt lat="41.615082485" lon="2.562395379">
        <ele>285.17</ele>
        <time>2013-10-27T09:29:36Z</time>
      </trkpt>
      <trkpt lat="41.615156832" lon="2.562620936">
        <ele>283.25</ele>
        <time>2013-10-27T09:29:41Z</time>
      </trkpt>
      <trkpt lat="41.615161275" lon="2.562689668">
        <ele>283.25</ele>
        <time>2013-10-27T09:29:42Z</time>
      </trkpt>
      <trkpt lat="41.615199496" lon="2.563066434">
        <ele>281.32</ele>
        <time>2013-10-27T09:29:46Z</time>
      </trkpt>
      <trkpt lat="41.615205699" lon="2.563251507">
        <ele>280.36</ele>
        <time>2013-10-27T09:29:48Z</time>
      </trkpt>
      <trkpt lat="41.615210309" lon="2.563311773">
        <ele>279.88</ele>
        <time>2013-10-27T09:29:49Z</time>
      </trkpt>
      <trkpt lat="41.615295469" lon="2.563486703">
        <ele>278.44</ele>
        <time>2013-10-27T09:29:54Z</time>
      </trkpt>
      <trkpt lat="41.615421281" lon="2.563749056">
        <ele>277.96</ele>
        <time>2013-10-27T09:30:00Z</time>
      </trkpt>
      <trkpt lat="41.615450785" lon="2.563792139">
        <ele>277.48</ele>
        <time>2013-10-27T09:30:01Z</time>
      </trkpt>
      <trkpt lat="41.615554637" lon="2.563944187">
        <ele>275.56</ele>
        <time>2013-10-27T09:30:05Z</time>
      </trkpt>
      <trkpt lat="41.615678606" lon="2.564009650">
        <ele>273.63</ele>
        <time>2013-10-27T09:30:09Z</time>
      </trkpt>
      <trkpt lat="41.615792516" lon="2.564195225">
        <ele>271.71</ele>
        <time>2013-10-27T09:30:13Z</time>
      </trkpt>
      <trkpt lat="41.615841717" lon="2.564272506">
        <ele>270.75</ele>
        <time>2013-10-27T09:30:15Z</time>
      </trkpt>
      <trkpt lat="41.615856721" lon="2.564316260">
        <ele>270.75</ele>
        <time>2013-10-27T09:30:16Z</time>
      </trkpt>
      <trkpt lat="41.615981192" lon="2.564556569">
        <ele>267.86</ele>
        <time>2013-10-27T09:30:22Z</time>
      </trkpt>
      <trkpt lat="41.616080266" lon="2.564666707">
        <ele>267.38</ele>
        <time>2013-10-27T09:30:25Z</time>
      </trkpt>
      <trkpt lat="41.616103568" lon="2.564747760">
        <ele>267.38</ele>
        <time>2013-10-27T09:30:30Z</time>
      </trkpt>
      <trkpt lat="41.615990077" lon="2.564777432">
        <ele>264.98</ele>
        <time>2013-10-27T09:30:36Z</time>
      </trkpt>
      <trkpt lat="41.615825540" lon="2.564801656">
        <ele>263.06</ele>
        <time>2013-10-27T09:30:39Z</time>
      </trkpt>
      <trkpt lat="41.615658489" lon="2.564842560">
        <ele>261.14</ele>
        <time>2013-10-27T09:30:43Z</time>
      </trkpt>
      <trkpt lat="41.615589003" lon="2.564849768">
        <ele>259.21</ele>
        <time>2013-10-27T09:30:45Z</time>
      </trkpt>
      <trkpt lat="41.615437374" lon="2.564907938">
        <ele>257.29</ele>
        <time>2013-10-27T09:30:48Z</time>
      </trkpt>
      <trkpt lat="41.615325141" lon="2.564953284">
        <ele>256.33</ele>
        <time>2013-10-27T09:30:50Z</time>
      </trkpt>
      <trkpt lat="41.615223384" lon="2.564992931">
        <ele>255.37</ele>
        <time>2013-10-27T09:30:52Z</time>
      </trkpt>
      <trkpt lat="41.615124729" lon="2.565149589">
        <ele>254.89</ele>
        <time>2013-10-27T09:30:56Z</time>
      </trkpt>
      <trkpt lat="41.615119365" lon="2.565264421">
        <ele>254.89</ele>
        <time>2013-10-27T09:31:00Z</time>
      </trkpt>
      <trkpt lat="41.615093046" lon="2.565416888">
        <ele>256.33</ele>
        <time>2013-10-27T09:31:05Z</time>
      </trkpt>
      <trkpt lat="41.615072845" lon="2.565536665">
        <ele>257.77</ele>
        <time>2013-10-27T09:31:09Z</time>
      </trkpt>
      <trkpt lat="41.615065721" lon="2.565804299">
        <ele>259.21</ele>
        <time>2013-10-27T09:31:18Z</time>
      </trkpt>
      <trkpt lat="41.615053567" lon="2.566000519">
        <ele>261.62</ele>
        <time>2013-10-27T09:31:26Z</time>
      </trkpt>
      <trkpt lat="41.615031104" lon="2.566236386">
        <ele>264.98</ele>
        <time>2013-10-27T09:31:34Z</time>
      </trkpt>
      <trkpt lat="41.615021213" lon="2.566284582">
        <ele>264.98</ele>
        <time>2013-10-27T09:31:36Z</time>
      </trkpt>
      <trkpt lat="41.614941082" lon="2.566463871">
        <ele>266.42</ele>
        <time>2013-10-27T09:31:44Z</time>
      </trkpt>
      <trkpt lat="41.614793225" lon="2.566613153">
        <ele>267.38</ele>
        <time>2013-10-27T09:31:53Z</time>
      </trkpt>
      <trkpt lat="41.614626341" lon="2.566744330">
        <ele>268.35</ele>
        <time>2013-10-27T09:32:01Z</time>
      </trkpt>
      <trkpt lat="41.614464068" lon="2.566886403">
        <ele>268.35</ele>
        <time>2013-10-27T09:32:09Z</time>
      </trkpt>
      <trkpt lat="41.614369855" lon="2.567032332">
        <ele>268.83</ele>
        <time>2013-10-27T09:32:16Z</time>
      </trkpt>
      <trkpt lat="41.614291736" lon="2.567193264">
        <ele>269.31</ele>
        <time>2013-10-27T09:32:23Z</time>
      </trkpt>
      <trkpt lat="41.614181095" lon="2.567439441">
        <ele>269.79</ele>
        <time>2013-10-27T09:32:31Z</time>
      </trkpt>
      <trkpt lat="41.614132899" lon="2.567625184">
        <ele>269.79</ele>
        <time>2013-10-27T09:32:36Z</time>
      </trkpt>
      <trkpt lat="41.614004823" lon="2.567878485">
        <ele>270.27</ele>
        <time>2013-10-27T09:32:42Z</time>
      </trkpt>
      <trkpt lat="41.613913964" lon="2.568012930">
        <ele>270.27</ele>
        <time>2013-10-27T09:32:45Z</time>
      </trkpt>
      <trkpt lat="41.613791085" lon="2.568156177">
        <ele>268.83</ele>
        <time>2013-10-27T09:32:48Z</time>
      </trkpt>
      <trkpt lat="41.613753953" lon="2.568180401">
        <ele>268.35</ele>
        <time>2013-10-27T09:32:49Z</time>
      </trkpt>
      <trkpt lat="41.613585980" lon="2.568296658">
        <ele>266.90</ele>
        <time>2013-10-27T09:32:54Z</time>
      </trkpt>
      <trkpt lat="41.613391687" lon="2.568335298">
        <ele>268.35</ele>
        <time>2013-10-27T09:33:00Z</time>
      </trkpt>
      <trkpt lat="41.613197814" lon="2.568260951">
        <ele>270.27</ele>
        <time>2013-10-27T09:33:07Z</time>
      </trkpt>
      <trkpt lat="41.613050544" lon="2.568209402">
        <ele>272.19</ele>
        <time>2013-10-27T09:33:13Z</time>
      </trkpt>
      <trkpt lat="41.612932107" lon="2.568232285">
        <ele>272.19</ele>
        <time>2013-10-27T09:33:21Z</time>
      </trkpt>
      <trkpt lat="41.612892712" lon="2.568401180">
        <ele>272.19</ele>
        <time>2013-10-27T09:33:28Z</time>
      </trkpt>
      <trkpt lat="41.612925150" lon="2.568630090">
        <ele>272.19</ele>
        <time>2013-10-27T09:33:35Z</time>
      </trkpt>
      <trkpt lat="41.613006203" lon="2.568817845">
        <ele>272.19</ele>
        <time>2013-10-27T09:33:41Z</time>
      </trkpt>
      <trkpt lat="41.613068229" lon="2.568866627">
        <ele>272.19</ele>
        <time>2013-10-27T09:33:43Z</time>
      </trkpt>
      <trkpt lat="41.613208291" lon="2.569112804">
        <ele>269.79</ele>
        <time>2013-10-27T09:33:48Z</time>
      </trkpt>
      <trkpt lat="41.613182391" lon="2.569218751">
        <ele>269.79</ele>
        <time>2013-10-27T09:33:51Z</time>
      </trkpt>
      <trkpt lat="41.613061189" lon="2.569497533">
        <ele>269.79</ele>
        <time>2013-10-27T09:33:58Z</time>
      </trkpt>
      <trkpt lat="41.612888438" lon="2.569706913">
        <ele>268.35</ele>
        <time>2013-10-27T09:34:03Z</time>
      </trkpt>
      <trkpt lat="41.612854491" lon="2.569744632">
        <ele>267.38</ele>
        <time>2013-10-27T09:34:04Z</time>
      </trkpt>
      <trkpt lat="41.612604375" lon="2.569846304">
        <ele>265.94</ele>
        <time>2013-10-27T09:34:09Z</time>
      </trkpt>
      <trkpt lat="41.612562885" lon="2.569849741">
        <ele>265.94</ele>
        <time>2013-10-27T09:34:10Z</time>
      </trkpt>
      <trkpt lat="41.612479904" lon="2.569868851">
        <ele>265.94</ele>
        <time>2013-10-27T09:34:12Z</time>
      </trkpt>
      <trkpt lat="41.612217466" lon="2.570032550">
        <ele>264.02</ele>
        <time>2013-10-27T09:34:18Z</time>
      </trkpt>
      <trkpt lat="41.612158374" lon="2.570129277">
        <ele>262.58</ele>
        <time>2013-10-27T09:34:20Z</time>
      </trkpt>
      <trkpt lat="41.612048906" lon="2.570324073">
        <ele>258.73</ele>
        <time>2013-10-27T09:34:27Z</time>
      </trkpt>
      <trkpt lat="41.612022168" lon="2.570497410">
        <ele>254.89</ele>
        <time>2013-10-27T09:34:33Z</time>
      </trkpt>
      <trkpt lat="41.612130462" lon="2.570692709">
        <ele>252.96</ele>
        <time>2013-10-27T09:34:37Z</time>
      </trkpt>
      <trkpt lat="41.612201289" lon="2.570900664">
        <ele>252.96</ele>
        <time>2013-10-27T09:34:42Z</time>
      </trkpt>
      <trkpt lat="41.612205480" lon="2.570967803">
        <ele>252.96</ele>
        <time>2013-10-27T09:34:44Z</time>
      </trkpt>
      <trkpt lat="41.612181005" lon="2.571201323">
        <ele>253.93</ele>
        <time>2013-10-27T09:34:53Z</time>
      </trkpt>
      <trkpt lat="41.612162230" lon="2.571358316">
        <ele>254.89</ele>
        <time>2013-10-27T09:35:01Z</time>
      </trkpt>
      <trkpt lat="41.612117303" lon="2.571517739">
        <ele>255.37</ele>
        <time>2013-10-27T09:35:08Z</time>
      </trkpt>
      <trkpt lat="41.612025437" lon="2.571764670">
        <ele>256.33</ele>
        <time>2013-10-27T09:35:17Z</time>
      </trkpt>
      <trkpt lat="41.611851932" lon="2.571934823">
        <ele>257.29</ele>
        <time>2013-10-27T09:35:25Z</time>
      </trkpt>
      <trkpt lat="41.611618663" lon="2.572003890">
        <ele>258.25</ele>
        <time>2013-10-27T09:35:34Z</time>
      </trkpt>
      <trkpt lat="41.611433758" lon="2.571981343">
        <ele>260.65</ele>
        <time>2013-10-27T09:35:43Z</time>
      </trkpt>
      <trkpt lat="41.611277687" lon="2.571947228">
        <ele>262.10</ele>
        <time>2013-10-27T09:35:52Z</time>
      </trkpt>
      <trkpt lat="41.611130333" lon="2.571951084">
        <ele>263.54</ele>
        <time>2013-10-27T09:35:59Z</time>
      </trkpt>
      <trkpt lat="41.610946351" lon="2.572015876">
        <ele>264.98</ele>
        <time>2013-10-27T09:36:08Z</time>
      </trkpt>
      <trkpt lat="41.610732025" lon="2.572031215">
        <ele>264.98</ele>
        <time>2013-10-27T09:36:17Z</time>
      </trkpt>
      <trkpt lat="41.610593640" lon="2.572095756">
        <ele>265.46</ele>
        <time>2013-10-27T09:36:23Z</time>
      </trkpt>
      <trkpt lat="41.610436144" lon="2.572295748">
        <ele>265.46</ele>
        <time>2013-10-27T09:36:31Z</time>
      </trkpt>
      <trkpt lat="41.610288204" lon="2.572439916">
        <ele>266.42</ele>
        <time>2013-10-27T09:36:39Z</time>
      </trkpt>
      <trkpt lat="41.610105394" lon="2.572506301">
        <ele>267.86</ele>
        <time>2013-10-27T09:36:47Z</time>
      </trkpt>
      <trkpt lat="41.609935577" lon="2.572638651">
        <ele>269.79</ele>
        <time>2013-10-27T09:36:54Z</time>
      </trkpt>
      <trkpt lat="41.609839856" lon="2.572804697">
        <ele>270.75</ele>
        <time>2013-10-27T09:37:00Z</time>
      </trkpt>
      <trkpt lat="41.609756288" lon="2.572988847">
        <ele>272.19</ele>
        <time>2013-10-27T09:37:07Z</time>
      </trkpt>
      <trkpt lat="41.609736339" lon="2.573049700">
        <ele>272.67</ele>
        <time>2013-10-27T09:37:09Z</time>
      </trkpt>
      <trkpt lat="41.609823343" lon="2.573190348">
        <ele>273.63</ele>
        <time>2013-10-27T09:37:16Z</time>
      </trkpt>
      <trkpt lat="41.609842370" lon="2.573189342">
        <ele>273.63</ele>
        <time>2013-10-27T09:37:17Z</time>
      </trkpt>
      <trkpt lat="41.609987210" lon="2.573160341">
        <ele>275.07</ele>
        <time>2013-10-27T09:37:25Z</time>
      </trkpt>
      <trkpt lat="41.610123918" lon="2.573134441">
        <ele>275.07</ele>
        <time>2013-10-27T09:37:32Z</time>
      </trkpt>
      <trkpt lat="41.610295915" lon="2.573128574">
        <ele>272.67</ele>
        <time>2013-10-27T09:37:38Z</time>
      </trkpt>
      <trkpt lat="41.610389289" lon="2.573127987">
        <ele>271.23</ele>
        <time>2013-10-27T09:37:41Z</time>
      </trkpt>
      <trkpt lat="41.610441257" lon="2.573166795">
        <ele>270.75</ele>
        <time>2013-10-27T09:37:44Z</time>
      </trkpt>
      <trkpt lat="41.610471348" lon="2.573180877">
        <ele>269.79</ele>
        <time>2013-10-27T09:37:46Z</time>
      </trkpt>
      <trkpt lat="41.610516527" lon="2.573166544">
        <ele>268.35</ele>
        <time>2013-10-27T09:37:50Z</time>
      </trkpt>
      <trkpt lat="41.610556257" lon="2.573194707">
        <ele>266.90</ele>
        <time>2013-10-27T09:37:53Z</time>
      </trkpt>
      <trkpt lat="41.610596239" lon="2.573216165">
        <ele>264.98</ele>
        <time>2013-10-27T09:37:56Z</time>
      </trkpt>
      <trkpt lat="41.610764044" lon="2.573311383">
        <ele>261.62</ele>
        <time>2013-10-27T09:38:02Z</time>
      </trkpt>
      <trkpt lat="41.611002090" lon="2.573400147">
        <ele>259.69</ele>
        <time>2013-10-27T09:38:08Z</time>
      </trkpt>
      <trkpt lat="41.611071493" lon="2.573411714">
        <ele>258.73</ele>
        <time>2013-10-27T09:38:10Z</time>
      </trkpt>
      <trkpt lat="41.611177188" lon="2.573412804">
        <ele>257.77</ele>
        <time>2013-10-27T09:38:14Z</time>
      </trkpt>
      <trkpt lat="41.611220690" lon="2.573422778">
        <ele>256.33</ele>
        <time>2013-10-27T09:38:16Z</time>
      </trkpt>
      <trkpt lat="41.611316579" lon="2.573459324">
        <ele>254.41</ele>
        <time>2013-10-27T09:38:22Z</time>
      </trkpt>
      <trkpt lat="41.611364859" lon="2.573476087">
        <ele>252.48</ele>
        <time>2013-10-27T09:38:25Z</time>
      </trkpt>
      <trkpt lat="41.611483966" lon="2.573598379">
        <ele>248.64</ele>
        <time>2013-10-27T09:38:32Z</time>
      </trkpt>
      <trkpt lat="41.611529061" lon="2.573626710">
        <ele>247.68</ele>
        <time>2013-10-27T09:38:35Z</time>
      </trkpt>
      <trkpt lat="41.611596954" lon="2.573691754">
        <ele>246.72</ele>
        <time>2013-10-27T09:38:39Z</time>
      </trkpt>
      <trkpt lat="41.611805160" lon="2.573681109">
        <ele>245.75</ele>
        <time>2013-10-27T09:38:44Z</time>
      </trkpt>
      <trkpt lat="41.612080506" lon="2.573662752">
        <ele>245.75</ele>
        <time>2013-10-27T09:38:51Z</time>
      </trkpt>
      <trkpt lat="41.612243115" lon="2.573700387">
        <ele>245.75</ele>
        <time>2013-10-27T09:38:56Z</time>
      </trkpt>
      <trkpt lat="41.612482418" lon="2.573738273">
        <ele>245.75</ele>
        <time>2013-10-27T09:39:02Z</time>
      </trkpt>
      <trkpt lat="41.612684590" lon="2.573833408">
        <ele>245.27</ele>
        <time>2013-10-27T09:39:08Z</time>
      </trkpt>
      <trkpt lat="41.612820544" lon="2.573771717">
        <ele>243.83</ele>
        <time>2013-10-27T09:39:13Z</time>
      </trkpt>
      <trkpt lat="41.613030679" lon="2.573749840">
        <ele>241.91</ele>
        <time>2013-10-27T09:39:17Z</time>
      </trkpt>
      <trkpt lat="41.613229330" lon="2.573782530">
        <ele>241.43</ele>
        <time>2013-10-27T09:39:21Z</time>
      </trkpt>
      <trkpt lat="41.613408283" lon="2.573881855">
        <ele>241.91</ele>
        <time>2013-10-27T09:39:27Z</time>
      </trkpt>
      <trkpt lat="41.613476763" lon="2.573898451">
        <ele>243.35</ele>
        <time>2013-10-27T09:39:30Z</time>
      </trkpt>
      <trkpt lat="41.613535018" lon="2.573971709">
        <ele>243.35</ele>
        <time>2013-10-27T09:39:35Z</time>
      </trkpt>
      <trkpt lat="41.613601319" lon="2.573981851">
        <ele>243.35</ele>
        <time>2013-10-27T09:39:44Z</time>
      </trkpt>
      <trkpt lat="41.613639540" lon="2.573994843">
        <ele>243.83</ele>
        <time>2013-10-27T09:39:49Z</time>
      </trkpt>
      <trkpt lat="41.613730987" lon="2.574006243">
        <ele>243.83</ele>
        <time>2013-10-27T09:39:57Z</time>
      </trkpt>
      <trkpt lat="41.613768118" lon="2.574019318">
        <ele>243.83</ele>
        <time>2013-10-27T09:40:13Z</time>
      </trkpt>
      <trkpt lat="41.613774572" lon="2.574022671">
        <ele>243.83</ele>
        <time>2013-10-27T09:40:14Z</time>
      </trkpt>
      <trkpt lat="41.613828468" lon="2.574062318">
        <ele>243.83</ele>
        <time>2013-10-27T09:40:19Z</time>
      </trkpt>
      <trkpt lat="41.613929721" lon="2.574150747">
        <ele>242.39</ele>
        <time>2013-10-27T09:40:27Z</time>
      </trkpt>
      <trkpt lat="41.613994094" lon="2.574164577">
        <ele>241.91</ele>
        <time>2013-10-27T09:40:34Z</time>
      </trkpt>
      <trkpt lat="41.614031981" lon="2.574182514">
        <ele>241.43</ele>
        <time>2013-10-27T09:40:42Z</time>
      </trkpt>
      <trkpt lat="41.614065508" lon="2.574211516">
        <ele>241.43</ele>
        <time>2013-10-27T09:40:45Z</time>
      </trkpt>
      <trkpt lat="41.614121499" lon="2.574239679">
        <ele>241.43</ele>
        <time>2013-10-27T09:40:52Z</time>
      </trkpt>
      <trkpt lat="41.614139940" lon="2.574248899">
        <ele>241.43</ele>
        <time>2013-10-27T09:41:02Z</time>
      </trkpt>
      <trkpt lat="41.614175982" lon="2.574238002">
        <ele>241.43</ele>
        <time>2013-10-27T09:41:14Z</time>
      </trkpt>
      <trkpt lat="41.614185286" lon="2.574230962">
        <ele>241.43</ele>
        <time>2013-10-27T09:41:26Z</time>
      </trkpt>
      <trkpt lat="41.614244797" lon="2.574256610">
        <ele>240.47</ele>
        <time>2013-10-27T09:41:34Z</time>
      </trkpt>
      <trkpt lat="41.614272458" lon="2.574257365">
        <ele>239.51</ele>
        <time>2013-10-27T09:41:39Z</time>
      </trkpt>
      <trkpt lat="41.614289137" lon="2.574261220">
        <ele>239.51</ele>
        <time>2013-10-27T09:41:41Z</time>
      </trkpt>
      <trkpt lat="41.614361389" lon="2.574308746">
        <ele>239.99</ele>
        <time>2013-10-27T09:41:49Z</time>
      </trkpt>
      <trkpt lat="41.614376393" lon="2.574317211">
        <ele>239.99</ele>
        <time>2013-10-27T09:41:59Z</time>
      </trkpt>
      <trkpt lat="41.614384607" lon="2.574344872">
        <ele>239.99</ele>
        <time>2013-10-27T09:42:12Z</time>
      </trkpt>
      <trkpt lat="41.614413609" lon="2.574397007">
        <ele>239.99</ele>
        <time>2013-10-27T09:42:21Z</time>
      </trkpt>
      <trkpt lat="41.614467421" lon="2.574470265">
        <ele>241.43</ele>
        <time>2013-10-27T09:42:30Z</time>
      </trkpt>
      <trkpt lat="41.614501283" lon="2.574522149">
        <ele>241.43</ele>
        <time>2013-10-27T09:42:39Z</time>
      </trkpt>
      <trkpt lat="41.614539589" lon="2.574583253">
        <ele>241.43</ele>
        <time>2013-10-27T09:42:47Z</time>
      </trkpt>
      <trkpt lat="41.614573619" lon="2.574617619">
        <ele>241.43</ele>
        <time>2013-10-27T09:42:54Z</time>
      </trkpt>
      <trkpt lat="41.614612008" lon="2.574697666">
        <ele>239.51</ele>
        <time>2013-10-27T09:42:59Z</time>
      </trkpt>
      <trkpt lat="41.614607901" lon="2.574725326">
        <ele>239.51</ele>
        <time>2013-10-27T09:43:01Z</time>
      </trkpt>
      <trkpt lat="41.614617876" lon="2.574751562">
        <ele>239.51</ele>
        <time>2013-10-27T09:43:04Z</time>
      </trkpt>
      <trkpt lat="41.614662551" lon="2.574739492">
        <ele>238.54</ele>
        <time>2013-10-27T09:43:11Z</time>
      </trkpt>
      <trkpt lat="41.614677890" lon="2.574688613">
        <ele>237.10</ele>
        <time>2013-10-27T09:43:18Z</time>
      </trkpt>
      <trkpt lat="41.614703706" lon="2.574698001">
        <ele>235.66</ele>
        <time>2013-10-27T09:43:23Z</time>
      </trkpt>
      <trkpt lat="41.614705467" lon="2.574701186">
        <ele>235.18</ele>
        <time>2013-10-27T09:43:26Z</time>
      </trkpt>
      <trkpt lat="41.614741844" lon="2.574780731">
        <ele>233.74</ele>
        <time>2013-10-27T09:43:32Z</time>
      </trkpt>
      <trkpt lat="41.614799847" lon="2.574786933">
        <ele>230.85</ele>
        <time>2013-10-27T09:43:39Z</time>
      </trkpt>
      <trkpt lat="41.614822143" lon="2.574937640">
        <ele>229.41</ele>
        <time>2013-10-27T09:43:45Z</time>
      </trkpt>
      <trkpt lat="41.614829686" lon="2.574955074">
        <ele>229.41</ele>
        <time>2013-10-27T09:43:46Z</time>
      </trkpt>
      <trkpt lat="41.614863633" lon="2.575098824">
        <ele>227.97</ele>
        <time>2013-10-27T09:43:53Z</time>
      </trkpt>
      <trkpt lat="41.614946949" lon="2.575238466">
        <ele>225.57</ele>
        <time>2013-10-27T09:44:00Z</time>
      </trkpt>
      <trkpt lat="41.615016016" lon="2.575340474">
        <ele>224.61</ele>
        <time>2013-10-27T09:44:07Z</time>
      </trkpt>
      <trkpt lat="41.615121712" lon="2.575521691">
        <ele>222.68</ele>
        <time>2013-10-27T09:44:15Z</time>
      </trkpt>
      <trkpt lat="41.615165382" lon="2.575611293">
        <ele>224.12</ele>
        <time>2013-10-27T09:44:19Z</time>
      </trkpt>
      <trkpt lat="41.615239813" lon="2.575684467">
        <ele>224.61</ele>
        <time>2013-10-27T09:44:24Z</time>
      </trkpt>
      <trkpt lat="41.615437374" lon="2.575824445">
        <ele>226.53</ele>
        <time>2013-10-27T09:44:33Z</time>
      </trkpt>
      <trkpt lat="41.615588752" lon="2.575921591">
        <ele>223.64</ele>
        <time>2013-10-27T09:44:39Z</time>
      </trkpt>
      <trkpt lat="41.615651951" lon="2.575971464">
        <ele>223.16</ele>
        <time>2013-10-27T09:44:42Z</time>
      </trkpt>
      <trkpt lat="41.615804502" lon="2.576059809">
        <ele>222.68</ele>
        <time>2013-10-27T09:44:49Z</time>
      </trkpt>
      <trkpt lat="41.615852530" lon="2.576065509">
        <ele>222.68</ele>
        <time>2013-10-27T09:44:51Z</time>
      </trkpt>
      <trkpt lat="41.615854961" lon="2.575980013">
        <ele>221.24</ele>
        <time>2013-10-27T09:44:56Z</time>
      </trkpt>
      <trkpt lat="41.615753959" lon="2.575776584">
        <ele>218.36</ele>
        <time>2013-10-27T09:45:02Z</time>
      </trkpt>
      <trkpt lat="41.615719342" lon="2.575689748">
        <ele>217.40</ele>
        <time>2013-10-27T09:45:04Z</time>
      </trkpt>
      <trkpt lat="41.615699644" lon="2.575500149">
        <ele>214.03</ele>
        <time>2013-10-27T09:45:08Z</time>
      </trkpt>
      <trkpt lat="41.615698974" lon="2.575449439">
        <ele>214.03</ele>
        <time>2013-10-27T09:45:09Z</time>
      </trkpt>
      <trkpt lat="41.615697800" lon="2.575340390">
        <ele>213.07</ele>
        <time>2013-10-27T09:45:11Z</time>
      </trkpt>
      <trkpt lat="41.615614400" lon="2.575231342">
        <ele>210.19</ele>
        <time>2013-10-27T09:45:15Z</time>
      </trkpt>
      <trkpt lat="41.615425304" lon="2.575146182">
        <ele>207.78</ele>
        <time>2013-10-27T09:45:21Z</time>
      </trkpt>
      <trkpt lat="41.615397644" lon="2.575078204">
        <ele>207.30</ele>
        <time>2013-10-27T09:45:23Z</time>
      </trkpt>
      <trkpt lat="41.615420611" lon="2.574741336">
        <ele>202.98</ele>
        <time>2013-10-27T09:45:31Z</time>
      </trkpt>
      <trkpt lat="41.615487582" lon="2.574548803">
        <ele>202.01</ele>
        <time>2013-10-27T09:45:35Z</time>
      </trkpt>
      <trkpt lat="41.615425472" lon="2.574204978">
        <ele>200.57</ele>
        <time>2013-10-27T09:45:42Z</time>
      </trkpt>
      <trkpt lat="41.615356238" lon="2.574167762">
        <ele>200.57</ele>
        <time>2013-10-27T09:45:44Z</time>
      </trkpt>
      <trkpt lat="41.615197233" lon="2.574010769">
        <ele>197.69</ele>
        <time>2013-10-27T09:45:50Z</time>
      </trkpt>
      <trkpt lat="41.615157586" lon="2.573751265">
        <ele>194.32</ele>
        <time>2013-10-27T09:45:56Z</time>
      </trkpt>
      <trkpt lat="41.615081144" lon="2.573582873">
        <ele>191.44</ele>
        <time>2013-10-27T09:46:01Z</time>
      </trkpt>
      <trkpt lat="41.615058261" lon="2.573516488">
        <ele>190.48</ele>
        <time>2013-10-27T09:46:03Z</time>
      </trkpt>
      <trkpt lat="41.614932700" lon="2.573292272">
        <ele>187.59</ele>
        <time>2013-10-27T09:46:10Z</time>
      </trkpt>
      <trkpt lat="41.614758859" lon="2.573176686">
        <ele>185.19</ele>
        <time>2013-10-27T09:46:17Z</time>
      </trkpt>
      <trkpt lat="41.614688703" lon="2.573128406">
        <ele>184.23</ele>
        <time>2013-10-27T09:46:20Z</time>
      </trkpt>
      <trkpt lat="41.614671771" lon="2.572981807">
        <ele>183.75</ele>
        <time>2013-10-27T09:46:25Z</time>
      </trkpt>
      <trkpt lat="41.614687110" lon="2.572973592">
        <ele>183.75</ele>
        <time>2013-10-27T09:46:26Z</time>
      </trkpt>
      <trkpt lat="41.614854832" lon="2.572941490">
        <ele>183.75</ele>
        <time>2013-10-27T09:46:33Z</time>
      </trkpt>
      <trkpt lat="41.615026410" lon="2.572993457">
        <ele>183.27</ele>
        <time>2013-10-27T09:46:40Z</time>
      </trkpt>
      <trkpt lat="41.615153312" lon="2.573007958">
        <ele>183.27</ele>
        <time>2013-10-27T09:46:47Z</time>
      </trkpt>
      <trkpt lat="41.615196981" lon="2.572981890">
        <ele>183.27</ele>
        <time>2013-10-27T09:46:52Z</time>
      </trkpt>
      <trkpt lat="41.615179296" lon="2.572964372">
        <ele>184.71</ele>
        <time>2013-10-27T09:46:56Z</time>
      </trkpt>
      <trkpt lat="41.615187175" lon="2.572904777">
        <ele>186.63</ele>
        <time>2013-10-27T09:47:04Z</time>
      </trkpt>
      <trkpt lat="41.615190946" lon="2.572841661">
        <ele>189.04</ele>
        <time>2013-10-27T09:47:11Z</time>
      </trkpt>
      <trkpt lat="41.615155407" lon="2.572797153">
        <ele>190.96</ele>
        <time>2013-10-27T09:47:17Z</time>
      </trkpt>
      <trkpt lat="41.615160269" lon="2.572750550">
        <ele>191.44</ele>
        <time>2013-10-27T09:47:26Z</time>
      </trkpt>
      <trkpt lat="41.615149288" lon="2.572702102">
        <ele>193.36</ele>
        <time>2013-10-27T09:47:34Z</time>
      </trkpt>
      <trkpt lat="41.615101260" lon="2.572663210">
        <ele>194.80</ele>
        <time>2013-10-27T09:47:43Z</time>
      </trkpt>
      <trkpt lat="41.615100757" lon="2.572578553">
        <ele>196.25</ele>
        <time>2013-10-27T09:47:51Z</time>
      </trkpt>
      <trkpt lat="41.615052813" lon="2.572533207">
        <ele>197.21</ele>
        <time>2013-10-27T09:48:00Z</time>
      </trkpt>
      <trkpt lat="41.615025152" lon="2.572510408">
        <ele>198.17</ele>
        <time>2013-10-27T09:48:05Z</time>
      </trkpt>
      <trkpt lat="41.614988440" lon="2.572465900">
        <ele>200.09</ele>
        <time>2013-10-27T09:48:12Z</time>
      </trkpt>
      <trkpt lat="41.614962372" lon="2.572399013">
        <ele>201.53</ele>
        <time>2013-10-27T09:48:20Z</time>
      </trkpt>
      <trkpt lat="41.614918451" lon="2.572320391">
        <ele>203.46</ele>
        <time>2013-10-27T09:48:29Z</time>
      </trkpt>
      <trkpt lat="41.614865058" lon="2.572304465">
        <ele>205.38</ele>
        <time>2013-10-27T09:48:37Z</time>
      </trkpt>
      <trkpt lat="41.614807223" lon="2.572294323">
        <ele>206.82</ele>
        <time>2013-10-27T09:48:46Z</time>
      </trkpt>
      <trkpt lat="41.614788112" lon="2.572228860">
        <ele>208.26</ele>
        <time>2013-10-27T09:48:56Z</time>
      </trkpt>
      <trkpt lat="41.614785933" lon="2.572190136">
        <ele>208.74</ele>
        <time>2013-10-27T09:49:01Z</time>
      </trkpt>
      <trkpt lat="41.614776378" lon="2.572045883">
        <ele>208.74</ele>
        <time>2013-10-27T09:49:09Z</time>
      </trkpt>
      <trkpt lat="41.614751902" lon="2.571938176">
        <ele>210.67</ele>
        <time>2013-10-27T09:49:17Z</time>
      </trkpt>
      <trkpt lat="41.614735474" lon="2.571866175">
        <ele>211.15</ele>
        <time>2013-10-27T09:49:25Z</time>
      </trkpt>
      <trkpt lat="41.614721560" lon="2.571822170">
        <ele>211.15</ele>
        <time>2013-10-27T09:49:34Z</time>
      </trkpt>
      <trkpt lat="41.614711585" lon="2.571791492">
        <ele>211.15</ele>
        <time>2013-10-27T09:49:43Z</time>
      </trkpt>
      <trkpt lat="41.614699096" lon="2.571697867">
        <ele>211.15</ele>
        <time>2013-10-27T09:49:50Z</time>
      </trkpt>
      <trkpt lat="41.614692558" lon="2.571644055">
        <ele>211.15</ele>
        <time>2013-10-27T09:50:02Z</time>
      </trkpt>
      <trkpt lat="41.614689960" lon="2.571627710">
        <ele>211.15</ele>
        <time>2013-10-27T09:50:03Z</time>
      </trkpt>
      <trkpt lat="41.614691553" lon="2.571585549">
        <ele>211.15</ele>
        <time>2013-10-27T09:50:05Z</time>
      </trkpt>
      <trkpt lat="41.614683674" lon="2.571534839">
        <ele>209.70</ele>
        <time>2013-10-27T09:50:07Z</time>
      </trkpt>
      <trkpt lat="41.614658109" lon="2.571458982">
        <ele>209.22</ele>
        <time>2013-10-27T09:50:14Z</time>
      </trkpt>
      <trkpt lat="41.614591724" lon="2.571375415">
        <ele>208.74</ele>
        <time>2013-10-27T09:50:20Z</time>
      </trkpt>
      <trkpt lat="41.614557945" lon="2.571349431">
        <ele>210.19</ele>
        <time>2013-10-27T09:50:23Z</time>
      </trkpt>
      <trkpt lat="41.614497344" lon="2.571263349">
        <ele>213.07</ele>
        <time>2013-10-27T09:50:30Z</time>
      </trkpt>
      <trkpt lat="41.614484017" lon="2.571254883">
        <ele>213.07</ele>
        <time>2013-10-27T09:50:31Z</time>
      </trkpt>
      <trkpt lat="41.614429870" lon="2.571230743">
        <ele>214.51</ele>
        <time>2013-10-27T09:50:35Z</time>
      </trkpt>
      <trkpt lat="41.614342698" lon="2.571161257">
        <ele>215.95</ele>
        <time>2013-10-27T09:50:43Z</time>
      </trkpt>
      <trkpt lat="41.614271284" lon="2.571118509">
        <ele>215.95</ele>
        <time>2013-10-27T09:50:54Z</time>
      </trkpt>
      <trkpt lat="41.614212108" lon="2.571054807">
        <ele>216.91</ele>
        <time>2013-10-27T09:51:05Z</time>
      </trkpt>
      <trkpt lat="41.614158967" lon="2.571017340">
        <ele>218.84</ele>
        <time>2013-10-27T09:51:11Z</time>
      </trkpt>
      <trkpt lat="41.614120661" lon="2.570945004">
        <ele>219.80</ele>
        <time>2013-10-27T09:51:20Z</time>
      </trkpt>
      <trkpt lat="41.614100377" lon="2.570962103">
        <ele>220.76</ele>
        <time>2013-10-27T09:51:27Z</time>
      </trkpt>
      <trkpt lat="41.614088559" lon="2.570986075">
        <ele>220.76</ele>
        <time>2013-10-27T09:51:35Z</time>
      </trkpt>
      <trkpt lat="41.614075231" lon="2.571030248">
        <ele>222.20</ele>
        <time>2013-10-27T09:51:43Z</time>
      </trkpt>
      <trkpt lat="41.614083949" lon="2.571088083">
        <ele>222.68</ele>
        <time>2013-10-27T09:51:49Z</time>
      </trkpt>
      <trkpt lat="41.614097443" lon="2.571214734">
        <ele>225.09</ele>
        <time>2013-10-27T09:52:00Z</time>
      </trkpt>
      <trkpt lat="41.614118063" lon="2.571275586">
        <ele>225.57</ele>
        <time>2013-10-27T09:52:09Z</time>
      </trkpt>
      <trkpt lat="41.614158380" lon="2.571373906">
        <ele>226.53</ele>
        <time>2013-10-27T09:52:17Z</time>
      </trkpt>
      <trkpt lat="41.614176317" lon="2.571423527">
        <ele>227.49</ele>
        <time>2013-10-27T09:52:21Z</time>
      </trkpt>
      <trkpt lat="41.614203726" lon="2.571544645">
        <ele>228.93</ele>
        <time>2013-10-27T09:52:30Z</time>
      </trkpt>
      <trkpt lat="41.614180759" lon="2.571554285">
        <ele>230.37</ele>
        <time>2013-10-27T09:52:37Z</time>
      </trkpt>
      <trkpt lat="41.614141029" lon="2.571555458">
        <ele>231.33</ele>
        <time>2013-10-27T09:52:44Z</time>
      </trkpt>
      <trkpt lat="41.614133905" lon="2.571555626">
        <ele>231.33</ele>
        <time>2013-10-27T09:52:45Z</time>
      </trkpt>
      <trkpt lat="41.614064335" lon="2.571517237">
        <ele>232.78</ele>
        <time>2013-10-27T09:52:53Z</time>
      </trkpt>
      <trkpt lat="41.614012367" lon="2.571480105">
        <ele>232.78</ele>
        <time>2013-10-27T09:53:00Z</time>
      </trkpt>
      <trkpt lat="41.613977079" lon="2.571453534">
        <ele>233.74</ele>
        <time>2013-10-27T09:53:05Z</time>
      </trkpt>
      <trkpt lat="41.613900301" lon="2.571432579">
        <ele>235.66</ele>
        <time>2013-10-27T09:53:13Z</time>
      </trkpt>
      <trkpt lat="41.613882364" lon="2.571423695">
        <ele>236.14</ele>
        <time>2013-10-27T09:53:15Z</time>
      </trkpt>
      <trkpt lat="41.613812291" lon="2.571322357">
        <ele>238.06</ele>
        <time>2013-10-27T09:53:23Z</time>
      </trkpt>
      <trkpt lat="41.613742218" lon="2.571225295">
        <ele>240.47</ele>
        <time>2013-10-27T09:53:30Z</time>
      </trkpt>
      <trkpt lat="41.613696537" lon="2.571208112">
        <ele>240.47</ele>
        <time>2013-10-27T09:53:33Z</time>
      </trkpt>
      <trkpt lat="41.613545160" lon="2.571132172">
        <ele>240.47</ele>
        <time>2013-10-27T09:53:41Z</time>
      </trkpt>
      <trkpt lat="41.613422281" lon="2.571041899">
        <ele>240.95</ele>
        <time>2013-10-27T09:53:48Z</time>
      </trkpt>
      <trkpt lat="41.613354388" lon="2.570871579">
        <ele>241.91</ele>
        <time>2013-10-27T09:53:57Z</time>
      </trkpt>
      <trkpt lat="41.613336534" lon="2.570804859">
        <ele>241.91</ele>
        <time>2013-10-27T09:54:00Z</time>
      </trkpt>
      <trkpt lat="41.613296720" lon="2.570682734">
        <ele>243.83</ele>
        <time>2013-10-27T09:54:06Z</time>
      </trkpt>
      <trkpt lat="41.613376013" lon="2.570518700">
        <ele>244.31</ele>
        <time>2013-10-27T09:54:12Z</time>
      </trkpt>
      <trkpt lat="41.613392944" lon="2.570478216">
        <ele>242.87</ele>
        <time>2013-10-27T09:54:13Z</time>
      </trkpt>
      <trkpt lat="41.613440135" lon="2.570298592">
        <ele>242.39</ele>
        <time>2013-10-27T09:54:16Z</time>
      </trkpt>
      <trkpt lat="41.613541807" lon="2.570132630">
        <ele>241.91</ele>
        <time>2013-10-27T09:54:20Z</time>
      </trkpt>
      <trkpt lat="41.613801981" lon="2.569986198">
        <ele>241.91</ele>
        <time>2013-10-27T09:54:29Z</time>
      </trkpt>
      <trkpt lat="41.613825115" lon="2.569970775">
        <ele>241.91</ele>
        <time>2013-10-27T09:54:30Z</time>
      </trkpt>
      <trkpt lat="41.613875742" lon="2.569945294">
        <ele>241.91</ele>
        <time>2013-10-27T09:54:32Z</time>
      </trkpt>
      <trkpt lat="41.614084284" lon="2.569787882">
        <ele>239.99</ele>
        <time>2013-10-27T09:54:37Z</time>
      </trkpt>
      <trkpt lat="41.614107837" lon="2.569433495">
        <ele>236.62</ele>
        <time>2013-10-27T09:54:41Z</time>
      </trkpt>
      <trkpt lat="41.614095096" lon="2.569242304">
        <ele>234.70</ele>
        <time>2013-10-27T09:54:45Z</time>
      </trkpt>
      <trkpt lat="41.614161900" lon="2.569238281">
        <ele>234.22</ele>
        <time>2013-10-27T09:54:49Z</time>
      </trkpt>
      <trkpt lat="41.614237840" lon="2.569253201">
        <ele>233.26</ele>
        <time>2013-10-27T09:54:51Z</time>
      </trkpt>
      <trkpt lat="41.614511258" lon="2.569271725">
        <ele>229.89</ele>
        <time>2013-10-27T09:54:56Z</time>
      </trkpt>
      <trkpt lat="41.614788950" lon="2.569331655">
        <ele>225.57</ele>
        <time>2013-10-27T09:55:01Z</time>
      </trkpt>
      <trkpt lat="41.614836727" lon="2.569393681">
        <ele>225.09</ele>
        <time>2013-10-27T09:55:02Z</time>
      </trkpt>
      <trkpt lat="41.614984416" lon="2.569616975">
        <ele>221.72</ele>
        <time>2013-10-27T09:55:05Z</time>
      </trkpt>
      <trkpt lat="41.615123137" lon="2.569917802">
        <ele>218.84</ele>
        <time>2013-10-27T09:55:09Z</time>
      </trkpt>
      <trkpt lat="41.615255571" lon="2.570113687">
        <ele>215.95</ele>
        <time>2013-10-27T09:55:12Z</time>
      </trkpt>
      <trkpt lat="41.615465957" lon="2.570421722">
        <ele>214.03</ele>
        <time>2013-10-27T09:55:16Z</time>
      </trkpt>
      <trkpt lat="41.615546088" lon="2.570590030">
        <ele>213.07</ele>
        <time>2013-10-27T09:55:18Z</time>
      </trkpt>
      <trkpt lat="41.615601073" lon="2.570864119">
        <ele>209.70</ele>
        <time>2013-10-27T09:55:22Z</time>
      </trkpt>
      <trkpt lat="41.615657483" lon="2.571337026">
        <ele>206.34</ele>
        <time>2013-10-27T09:55:27Z</time>
      </trkpt>
      <trkpt lat="41.615768795" lon="2.571662160">
        <ele>202.49</ele>
        <time>2013-10-27T09:55:31Z</time>
      </trkpt>
      <trkpt lat="41.615874658" lon="2.571919149">
        <ele>198.17</ele>
        <time>2013-10-27T09:55:35Z</time>
      </trkpt>
      <trkpt lat="41.615978091" lon="2.572264232">
        <ele>194.32</ele>
        <time>2013-10-27T09:55:39Z</time>
      </trkpt>
      <trkpt lat="41.616076495" lon="2.572615014">
        <ele>190.48</ele>
        <time>2013-10-27T09:55:43Z</time>
      </trkpt>
      <trkpt lat="41.616177245" lon="2.572963953">
        <ele>187.11</ele>
        <time>2013-10-27T09:55:46Z</time>
      </trkpt>
      <trkpt lat="41.616389391" lon="2.573385479">
        <ele>181.83</ele>
        <time>2013-10-27T09:55:50Z</time>
      </trkpt>
      <trkpt lat="41.616455105" lon="2.573472148">
        <ele>181.35</ele>
        <time>2013-10-27T09:55:51Z</time>
      </trkpt>
      <trkpt lat="41.616639088" lon="2.573714720">
        <ele>179.90</ele>
        <time>2013-10-27T09:55:54Z</time>
      </trkpt>
      <trkpt lat="41.616789543" lon="2.573787559">
        <ele>179.90</ele>
        <time>2013-10-27T09:55:57Z</time>
      </trkpt>
      <trkpt lat="41.617245519" lon="2.573686138">
        <ele>178.94</ele>
        <time>2013-10-27T09:56:05Z</time>
      </trkpt>
      <trkpt lat="41.617445511" lon="2.573600056">
        <ele>177.50</ele>
        <time>2013-10-27T09:56:08Z</time>
      </trkpt>
      <trkpt lat="41.617777937" lon="2.573634170">
        <ele>177.02</ele>
        <time>2013-10-27T09:56:13Z</time>
      </trkpt>
      <trkpt lat="41.617941803" lon="2.573772555">
        <ele>177.02</ele>
        <time>2013-10-27T09:56:16Z</time>
      </trkpt>
      <trkpt lat="41.618149842" lon="2.574042034">
        <ele>176.54</ele>
        <time>2013-10-27T09:56:21Z</time>
      </trkpt>
      <trkpt lat="41.618392917" lon="2.574210175">
        <ele>172.69</ele>
        <time>2013-10-27T09:56:26Z</time>
      </trkpt>
      <trkpt lat="41.618448405" lon="2.574217383">
        <ele>172.21</ele>
        <time>2013-10-27T09:56:27Z</time>
      </trkpt>
      <trkpt lat="41.618606321" lon="2.574241188">
        <ele>171.73</ele>
        <time>2013-10-27T09:56:30Z</time>
      </trkpt>
      <trkpt lat="41.618835314" lon="2.574357696">
        <ele>170.29</ele>
        <time>2013-10-27T09:56:34Z</time>
      </trkpt>
      <trkpt lat="41.618996498" lon="2.574535141">
        <ele>168.37</ele>
        <time>2013-10-27T09:56:37Z</time>
      </trkpt>
      <trkpt lat="41.619314005" lon="2.574700432">
        <ele>164.04</ele>
        <time>2013-10-27T09:56:42Z</time>
      </trkpt>
      <trkpt lat="41.619541070" lon="2.574773690">
        <ele>162.12</ele>
        <time>2013-10-27T09:56:45Z</time>
      </trkpt>
      <trkpt lat="41.619704015" lon="2.574797327">
        <ele>160.20</ele>
        <time>2013-10-27T09:56:47Z</time>
      </trkpt>
      <trkpt lat="41.619966452" lon="2.574935544">
        <ele>157.79</ele>
        <time>2013-10-27T09:56:51Z</time>
      </trkpt>
      <trkpt lat="41.620138700" lon="2.575108631">
        <ele>155.87</ele>
        <time>2013-10-27T09:56:54Z</time>
      </trkpt>
      <trkpt lat="41.620330981" lon="2.575237628">
        <ele>154.43</ele>
        <time>2013-10-27T09:56:57Z</time>
      </trkpt>
      <trkpt lat="41.620605069" lon="2.575437034">
        <ele>151.54</ele>
        <time>2013-10-27T09:57:02Z</time>
      </trkpt>
      <trkpt lat="41.620660054" lon="2.575412056">
        <ele>151.54</ele>
        <time>2013-10-27T09:57:03Z</time>
      </trkpt>
      <trkpt lat="41.620771198" lon="2.575298062">
        <ele>149.62</ele>
        <time>2013-10-27T09:57:05Z</time>
      </trkpt>
      <trkpt lat="41.620968425" lon="2.574998493">
        <ele>146.26</ele>
        <time>2013-10-27T09:57:09Z</time>
      </trkpt>
      <trkpt lat="41.621273610" lon="2.574803194">
        <ele>141.93</ele>
        <time>2013-10-27T09:57:14Z</time>
      </trkpt>
      <trkpt lat="41.621410570" lon="2.574663300">
        <ele>139.05</ele>
        <time>2013-10-27T09:57:17Z</time>
      </trkpt>
      <trkpt lat="41.621398835" lon="2.574471690">
        <ele>136.64</ele>
        <time>2013-10-27T09:57:20Z</time>
      </trkpt>
      <trkpt lat="41.621356088" lon="2.574422572">
        <ele>136.16</ele>
        <time>2013-10-27T09:57:21Z</time>
      </trkpt>
      <trkpt lat="41.621090130" lon="2.574172540">
        <ele>133.76</ele>
        <time>2013-10-27T09:57:26Z</time>
      </trkpt>
      <trkpt lat="41.620979154" lon="2.574105904">
        <ele>132.80</ele>
        <time>2013-10-27T09:57:28Z</time>
      </trkpt>
      <trkpt lat="41.620977142" lon="2.573967099">
        <ele>130.88</ele>
        <time>2013-10-27T09:57:32Z</time>
      </trkpt>
      <trkpt lat="41.621037575" lon="2.573959472">
        <ele>130.40</ele>
        <time>2013-10-27T09:57:34Z</time>
      </trkpt>
      <trkpt lat="41.621254415" lon="2.573998448">
        <ele>128.47</ele>
        <time>2013-10-27T09:57:41Z</time>
      </trkpt>
      <trkpt lat="41.621251230" lon="2.573935416">
        <ele>127.51</ele>
        <time>2013-10-27T09:57:45Z</time>
      </trkpt>
      <trkpt lat="41.621105217" lon="2.573819159">
        <ele>126.55</ele>
        <time>2013-10-27T09:57:51Z</time>
      </trkpt>
      <trkpt lat="41.621061129" lon="2.573786134">
        <ele>125.59</ele>
        <time>2013-10-27T09:57:52Z</time>
      </trkpt>
      <trkpt lat="41.620790225" lon="2.573759228">
        <ele>123.19</ele>
        <time>2013-10-27T09:57:57Z</time>
      </trkpt>
      <trkpt lat="41.620603896" lon="2.573679265">
        <ele>121.26</ele>
        <time>2013-10-27T09:58:02Z</time>
      </trkpt>
      <trkpt lat="41.620366269" lon="2.573590668">
        <ele>119.82</ele>
        <time>2013-10-27T09:58:08Z</time>
      </trkpt>
      <trkpt lat="41.620123529" lon="2.573432837">
        <ele>118.86</ele>
        <time>2013-10-27T09:58:14Z</time>
      </trkpt>
      <trkpt lat="41.620053959" lon="2.573383551">
        <ele>118.38</ele>
        <time>2013-10-27T09:58:16Z</time>
      </trkpt>
      <trkpt lat="41.619996794" lon="2.573220188">
        <ele>116.46</ele>
        <time>2013-10-27T09:58:20Z</time>
      </trkpt>
      <trkpt lat="41.619962848" lon="2.572849289">
        <ele>114.05</ele>
        <time>2013-10-27T09:58:27Z</time>
      </trkpt>
      <trkpt lat="41.619983803" lon="2.572812157">
        <ele>114.05</ele>
        <time>2013-10-27T09:58:29Z</time>
      </trkpt>
      <trkpt lat="41.620158314" lon="2.572844679">
        <ele>112.61</ele>
        <time>2013-10-27T09:58:35Z</time>
      </trkpt>
      <trkpt lat="41.620178346" lon="2.572861359">
        <ele>112.13</ele>
        <time>2013-10-27T09:58:36Z</time>
      </trkpt>
      <trkpt lat="41.620252107" lon="2.572803691">
        <ele>112.13</ele>
        <time>2013-10-27T09:58:40Z</time>
      </trkpt>
      <trkpt lat="41.620347912" lon="2.572529687">
        <ele>113.57</ele>
        <time>2013-10-27T09:58:50Z</time>
      </trkpt>
      <trkpt lat="41.620357132" lon="2.572492220">
        <ele>113.57</ele>
        <time>2013-10-27T09:58:51Z</time>
      </trkpt>
      <trkpt lat="41.620442796" lon="2.572186783">
        <ele>113.57</ele>
        <time>2013-10-27T09:59:01Z</time>
      </trkpt>
      <trkpt lat="41.620494260" lon="2.572027695">
        <ele>113.57</ele>
        <time>2013-10-27T09:59:08Z</time>
      </trkpt>
      <trkpt lat="41.620542205" lon="2.571948486">
        <ele>113.57</ele>
        <time>2013-10-27T09:59:11Z</time>
      </trkpt>
      <trkpt lat="41.620657624" lon="2.571944043">
        <ele>113.57</ele>
        <time>2013-10-27T09:59:15Z</time>
      </trkpt>
      <trkpt lat="41.621000444" lon="2.572169684">
        <ele>112.61</ele>
        <time>2013-10-27T09:59:24Z</time>
      </trkpt>
      <trkpt lat="41.621263635" lon="2.572181502">
        <ele>111.17</ele>
        <time>2013-10-27T09:59:29Z</time>
      </trkpt>
      <trkpt lat="41.621404284" lon="2.572131463">
        <ele>113.09</ele>
        <time>2013-10-27T09:59:33Z</time>
      </trkpt>
      <trkpt lat="41.621657920" lon="2.572189046">
        <ele>113.57</ele>
        <time>2013-10-27T09:59:41Z</time>
      </trkpt>
      <trkpt lat="41.621700584" lon="2.572208408">
        <ele>113.57</ele>
        <time>2013-10-27T09:59:42Z</time>
      </trkpt>
      <trkpt lat="41.622026891" lon="2.572313685">
        <ele>112.13</ele>
        <time>2013-10-27T09:59:50Z</time>
      </trkpt>
      <trkpt lat="41.622267033" lon="2.572348973">
        <ele>112.13</ele>
        <time>2013-10-27T09:59:58Z</time>
      </trkpt>
      <trkpt lat="41.622428133" lon="2.572418040">
        <ele>113.57</ele>
        <time>2013-10-27T10:00:05Z</time>
      </trkpt>
      <trkpt lat="41.622631143" lon="2.572508564">
        <ele>115.01</ele>
        <time>2013-10-27T10:00:14Z</time>
      </trkpt>
      <trkpt lat="41.622853179" lon="2.572568914">
        <ele>115.50</ele>
        <time>2013-10-27T10:00:23Z</time>
      </trkpt>
      <trkpt lat="41.623014280" lon="2.572619038">
        <ele>116.46</ele>
        <time>2013-10-27T10:00:31Z</time>
      </trkpt>
      <trkpt lat="41.623156772" lon="2.572817605">
        <ele>116.46</ele>
        <time>2013-10-27T10:00:38Z</time>
      </trkpt>
      <trkpt lat="41.623391968" lon="2.573092364">
        <ele>115.01</ele>
        <time>2013-10-27T10:00:45Z</time>
      </trkpt>
      <trkpt lat="41.623514176" lon="2.573338457">
        <ele>114.53</ele>
        <time>2013-10-27T10:00:50Z</time>
      </trkpt>
      <trkpt lat="41.623529934" lon="2.573550183">
        <ele>114.53</ele>
        <time>2013-10-27T10:00:54Z</time>
      </trkpt>
      <trkpt lat="41.623574275" lon="2.573866014">
        <ele>114.53</ele>
        <time>2013-10-27T10:01:00Z</time>
      </trkpt>
      <trkpt lat="41.623557678" lon="2.573941786">
        <ele>114.53</ele>
        <time>2013-10-27T10:01:02Z</time>
      </trkpt>
      <trkpt lat="41.623548794" lon="2.574225513">
        <ele>115.98</ele>
        <time>2013-10-27T10:01:10Z</time>
      </trkpt>
      <trkpt lat="41.623617525" lon="2.574577805">
        <ele>118.38</ele>
        <time>2013-10-27T10:01:19Z</time>
      </trkpt>
      <trkpt lat="41.623629176" lon="2.574790118">
        <ele>119.82</ele>
        <time>2013-10-27T10:01:26Z</time>
      </trkpt>
      <trkpt lat="41.623629260" lon="2.574815683">
        <ele>119.82</ele>
        <time>2013-10-27T10:01:27Z</time>
      </trkpt>
      <trkpt lat="41.623603276" lon="2.575026740">
        <ele>121.74</ele>
        <time>2013-10-27T10:01:35Z</time>
      </trkpt>
      <trkpt lat="41.623589530" lon="2.575247016">
        <ele>122.71</ele>
        <time>2013-10-27T10:01:43Z</time>
      </trkpt>
      <trkpt lat="41.623572766" lon="2.575394370">
        <ele>123.19</ele>
        <time>2013-10-27T10:01:47Z</time>
      </trkpt>
      <trkpt lat="41.623574358" lon="2.575755127">
        <ele>124.15</ele>
        <time>2013-10-27T10:01:56Z</time>
      </trkpt>
      <trkpt lat="41.623662201" lon="2.575868534">
        <ele>124.63</ele>
        <time>2013-10-27T10:02:03Z</time>
      </trkpt>
      <trkpt lat="41.623789354" lon="2.575930644">
        <ele>124.63</ele>
        <time>2013-10-27T10:02:10Z</time>
      </trkpt>
      <trkpt lat="41.624047265" lon="2.575960903">
        <ele>124.63</ele>
        <time>2013-10-27T10:02:18Z</time>
      </trkpt>
      <trkpt lat="41.624219262" lon="2.576045979">
        <ele>123.19</ele>
        <time>2013-10-27T10:02:24Z</time>
      </trkpt>
      <trkpt lat="41.624282126" lon="2.576300537">
        <ele>123.67</ele>
        <time>2013-10-27T10:02:30Z</time>
      </trkpt>
      <trkpt lat="41.624237199" lon="2.576474462">
        <ele>123.67</ele>
        <time>2013-10-27T10:02:36Z</time>
      </trkpt>
      <trkpt lat="41.624175173" lon="2.576519892">
        <ele>124.63</ele>
        <time>2013-10-27T10:02:39Z</time>
      </trkpt>
      <trkpt lat="41.623975516" lon="2.576662133">
        <ele>126.07</ele>
        <time>2013-10-27T10:02:48Z</time>
      </trkpt>
      <trkpt lat="41.623900582" lon="2.576873608">
        <ele>128.47</ele>
        <time>2013-10-27T10:02:56Z</time>
      </trkpt>
      <trkpt lat="41.623782732" lon="2.577105032">
        <ele>129.92</ele>
        <time>2013-10-27T10:03:05Z</time>
      </trkpt>
      <trkpt lat="41.623688017" lon="2.577331344">
        <ele>130.40</ele>
        <time>2013-10-27T10:03:13Z</time>
      </trkpt>
      <trkpt lat="41.623678629" lon="2.577407703">
        <ele>130.40</ele>
        <time>2013-10-27T10:03:15Z</time>
      </trkpt>
      <trkpt lat="41.623751468" lon="2.577580538">
        <ele>130.40</ele>
        <time>2013-10-27T10:03:21Z</time>
      </trkpt>
      <trkpt lat="41.623866216" lon="2.577708446">
        <ele>132.32</ele>
        <time>2013-10-27T10:03:29Z</time>
      </trkpt>
      <trkpt lat="41.623999069" lon="2.577880778">
        <ele>134.72</ele>
        <time>2013-10-27T10:03:38Z</time>
      </trkpt>
      <trkpt lat="41.624173497" lon="2.578085045">
        <ele>135.68</ele>
        <time>2013-10-27T10:03:48Z</time>
      </trkpt>
      <trkpt lat="41.624192021" lon="2.578115136">
        <ele>135.68</ele>
        <time>2013-10-27T10:03:50Z</time>
      </trkpt>
      <trkpt lat="41.624327891" lon="2.578213707">
        <ele>135.68</ele>
        <time>2013-10-27T10:03:58Z</time>
      </trkpt>
      <trkpt lat="41.624431073" lon="2.578240361">
        <ele>135.68</ele>
        <time>2013-10-27T10:04:03Z</time>
      </trkpt>
      <trkpt lat="41.624571386" lon="2.578170372">
        <ele>138.57</ele>
        <time>2013-10-27T10:04:13Z</time>
      </trkpt>
      <trkpt lat="41.624667778" lon="2.578123601">
        <ele>142.41</ele>
        <time>2013-10-27T10:04:22Z</time>
      </trkpt>
      <trkpt lat="41.624786046" lon="2.578061324">
        <ele>145.30</ele>
        <time>2013-10-27T10:04:32Z</time>
      </trkpt>
      <trkpt lat="41.624836254" lon="2.578018241">
        <ele>145.30</ele>
        <time>2013-10-27T10:04:41Z</time>
      </trkpt>
      <trkpt lat="41.624894760" lon="2.577977253">
        <ele>147.70</ele>
        <time>2013-10-27T10:04:49Z</time>
      </trkpt>
      <trkpt lat="41.624968688" lon="2.577913802">
        <ele>149.62</ele>
        <time>2013-10-27T10:05:00Z</time>
      </trkpt>
      <trkpt lat="41.625012190" lon="2.577883208">
        <ele>151.06</ele>
        <time>2013-10-27T10:05:10Z</time>
      </trkpt>
      <trkpt lat="41.625064074" lon="2.577882705">
        <ele>152.99</ele>
        <time>2013-10-27T10:05:20Z</time>
      </trkpt>
      <trkpt lat="41.625083017" lon="2.577861164">
        <ele>153.47</ele>
        <time>2013-10-27T10:05:27Z</time>
      </trkpt>
      <trkpt lat="41.625116209" lon="2.577821182">
        <ele>154.91</ele>
        <time>2013-10-27T10:05:34Z</time>
      </trkpt>
      <trkpt lat="41.625135069" lon="2.577771897">
        <ele>156.83</ele>
        <time>2013-10-27T10:05:42Z</time>
      </trkpt>
      <trkpt lat="41.625141942" lon="2.577679109">
        <ele>158.27</ele>
        <time>2013-10-27T10:05:52Z</time>
      </trkpt>
      <trkpt lat="41.625127776" lon="2.577589255">
        <ele>158.27</ele>
        <time>2013-10-27T10:05:59Z</time>
      </trkpt>
      <trkpt lat="41.625124675" lon="2.577570815">
        <ele>158.27</ele>
        <time>2013-10-27T10:06:00Z</time>
      </trkpt>
      <trkpt lat="41.625136913" lon="2.577416755">
        <ele>158.27</ele>
        <time>2013-10-27T10:06:05Z</time>
      </trkpt>
      <trkpt lat="41.625266581" lon="2.577119198">
        <ele>155.39</ele>
        <time>2013-10-27T10:06:12Z</time>
      </trkpt>
      <trkpt lat="41.625377054" lon="2.576914176">
        <ele>152.51</ele>
        <time>2013-10-27T10:06:18Z</time>
      </trkpt>
      <trkpt lat="41.625407145" lon="2.576846786">
        <ele>151.54</ele>
        <time>2013-10-27T10:06:20Z</time>
      </trkpt>
      <trkpt lat="41.625416449" lon="2.576805212">
        <ele>151.06</ele>
        <time>2013-10-27T10:06:21Z</time>
      </trkpt>
      <trkpt lat="41.625457856" lon="2.576645201">
        <ele>149.14</ele>
        <time>2013-10-27T10:06:24Z</time>
      </trkpt>
      <trkpt lat="41.625505800" lon="2.576320319">
        <ele>146.74</ele>
        <time>2013-10-27T10:06:30Z</time>
      </trkpt>
      <trkpt lat="41.625572520" lon="2.576048326">
        <ele>145.78</ele>
        <time>2013-10-27T10:06:36Z</time>
      </trkpt>
      <trkpt lat="41.625645610" lon="2.575873312">
        <ele>145.30</ele>
        <time>2013-10-27T10:06:41Z</time>
      </trkpt>
      <trkpt lat="41.625687771" lon="2.575662758">
        <ele>144.34</ele>
        <time>2013-10-27T10:06:45Z</time>
      </trkpt>
      <trkpt lat="41.625702691" lon="2.575378193">
        <ele>143.37</ele>
        <time>2013-10-27T10:06:52Z</time>
      </trkpt>
      <trkpt lat="41.625709145" lon="2.575327817">
        <ele>143.37</ele>
        <time>2013-10-27T10:06:54Z</time>
      </trkpt>
      <trkpt lat="41.625763628" lon="2.575252967">
        <ele>144.82</ele>
        <time>2013-10-27T10:06:58Z</time>
      </trkpt>
      <trkpt lat="41.625776201" lon="2.575240310">
        <ele>144.82</ele>
        <time>2013-10-27T10:06:59Z</time>
      </trkpt>
      <trkpt lat="41.625870748" lon="2.575133190">
        <ele>146.74</ele>
        <time>2013-10-27T10:07:07Z</time>
      </trkpt>
      <trkpt lat="41.625973846" lon="2.575041575">
        <ele>147.70</ele>
        <time>2013-10-27T10:07:14Z</time>
      </trkpt>
      <trkpt lat="41.626131761" lon="2.574922804">
        <ele>149.14</ele>
        <time>2013-10-27T10:07:23Z</time>
      </trkpt>
      <trkpt lat="41.626295376" lon="2.574784167">
        <ele>151.06</ele>
        <time>2013-10-27T10:07:33Z</time>
      </trkpt>
      <trkpt lat="41.626423283" lon="2.574761201">
        <ele>151.54</ele>
        <time>2013-10-27T10:07:40Z</time>
      </trkpt>
      <trkpt lat="41.626577510" lon="2.574766649">
        <ele>152.51</ele>
        <time>2013-10-27T10:07:47Z</time>
      </trkpt>
      <trkpt lat="41.626754620" lon="2.574793136">
        <ele>154.43</ele>
        <time>2013-10-27T10:07:55Z</time>
      </trkpt>
      <trkpt lat="41.626873056" lon="2.574797830">
        <ele>155.87</ele>
        <time>2013-10-27T10:08:02Z</time>
      </trkpt>
      <trkpt lat="41.627027367" lon="2.574787269">
        <ele>157.79</ele>
        <time>2013-10-27T10:08:10Z</time>
      </trkpt>
      <trkpt lat="41.627141277" lon="2.574705210">
        <ele>159.72</ele>
        <time>2013-10-27T10:08:17Z</time>
      </trkpt>
      <trkpt lat="41.627229036" lon="2.574546456">
        <ele>161.16</ele>
        <time>2013-10-27T10:08:27Z</time>
      </trkpt>
      <trkpt lat="41.627309083" lon="2.574439587">
        <ele>162.60</ele>
        <time>2013-10-27T10:08:35Z</time>
      </trkpt>
      <trkpt lat="41.627352669" lon="2.574403880">
        <ele>163.08</ele>
        <time>2013-10-27T10:08:38Z</time>
      </trkpt>
      <trkpt lat="41.627532042" lon="2.574331209">
        <ele>164.52</ele>
        <time>2013-10-27T10:08:49Z</time>
      </trkpt>
      <trkpt lat="41.627626506" lon="2.574274296">
        <ele>165.96</ele>
        <time>2013-10-27T10:08:56Z</time>
      </trkpt>
      <trkpt lat="41.627646874" lon="2.574240182">
        <ele>166.45</ele>
        <time>2013-10-27T10:08:58Z</time>
      </trkpt>
      <trkpt lat="41.627706888" lon="2.574076986">
        <ele>169.81</ele>
        <time>2013-10-27T10:09:08Z</time>
      </trkpt>
      <trkpt lat="41.627750809" lon="2.573917898">
        <ele>171.73</ele>
        <time>2013-10-27T10:09:17Z</time>
      </trkpt>
      <trkpt lat="41.627767825" lon="2.573781775">
        <ele>173.66</ele>
        <time>2013-10-27T10:09:26Z</time>
      </trkpt>
      <trkpt lat="41.627750474" lon="2.573652946">
        <ele>176.06</ele>
        <time>2013-10-27T10:09:36Z</time>
      </trkpt>
      <trkpt lat="41.627744523" lon="2.573563511">
        <ele>178.46</ele>
        <time>2013-10-27T10:09:44Z</time>
      </trkpt>
      <trkpt lat="41.627822307" lon="2.573386150">
        <ele>179.90</ele>
        <time>2013-10-27T10:09:54Z</time>
      </trkpt>
      <trkpt lat="41.627870251" lon="2.573333930">
        <ele>179.90</ele>
        <time>2013-10-27T10:09:57Z</time>
      </trkpt>
      <trkpt lat="41.627951723" lon="2.573341474">
        <ele>180.38</ele>
        <time>2013-10-27T10:10:03Z</time>
      </trkpt>
      <trkpt lat="41.628010229" lon="2.573311132">
        <ele>180.87</ele>
        <time>2013-10-27T10:10:10Z</time>
      </trkpt>
      <trkpt lat="41.628052809" lon="2.573330242">
        <ele>181.35</ele>
        <time>2013-10-27T10:10:15Z</time>
      </trkpt>
      <trkpt lat="41.628134365" lon="2.573363016">
        <ele>182.79</ele>
        <time>2013-10-27T10:10:22Z</time>
      </trkpt>
      <trkpt lat="41.628191781" lon="2.573372571">
        <ele>183.27</ele>
        <time>2013-10-27T10:10:26Z</time>
      </trkpt>
      <trkpt lat="41.628237295" lon="2.573366871">
        <ele>183.75</ele>
        <time>2013-10-27T10:10:29Z</time>
      </trkpt>
      <trkpt lat="41.628383894" lon="2.573412134">
        <ele>185.67</ele>
        <time>2013-10-27T10:10:40Z</time>
      </trkpt>
      <trkpt lat="41.628524207" lon="2.573453121">
        <ele>188.08</ele>
        <time>2013-10-27T10:10:50Z</time>
      </trkpt>
      <trkpt lat="41.628645075" lon="2.573486397">
        <ele>190.96</ele>
        <time>2013-10-27T10:10:59Z</time>
      </trkpt>
      <trkpt lat="41.628764936" lon="2.573515399">
        <ele>191.92</ele>
        <time>2013-10-27T10:11:07Z</time>
      </trkpt>
      <trkpt lat="41.628867530" lon="2.573543562">
        <ele>194.32</ele>
        <time>2013-10-27T10:11:14Z</time>
      </trkpt>
      <trkpt lat="41.628986553" lon="2.573580191">
        <ele>195.28</ele>
        <time>2013-10-27T10:11:22Z</time>
      </trkpt>
      <trkpt lat="41.629164333" lon="2.573565606">
        <ele>197.69</ele>
        <time>2013-10-27T10:11:33Z</time>
      </trkpt>
      <trkpt lat="41.629304646" lon="2.573487990">
        <ele>199.13</ele>
        <time>2013-10-27T10:11:42Z</time>
      </trkpt>
      <trkpt lat="41.629464154" lon="2.573400231">
        <ele>200.57</ele>
        <time>2013-10-27T10:11:53Z</time>
      </trkpt>
      <trkpt lat="41.629593068" lon="2.573332505">
        <ele>202.01</ele>
        <time>2013-10-27T10:12:02Z</time>
      </trkpt>
      <trkpt lat="41.629762215" lon="2.573249357">
        <ele>202.98</ele>
        <time>2013-10-27T10:12:13Z</time>
      </trkpt>
      <trkpt lat="41.629908646" lon="2.573197473">
        <ele>204.42</ele>
        <time>2013-10-27T10:12:22Z</time>
      </trkpt>
      <trkpt lat="41.630091204" lon="2.573130418">
        <ele>206.34</ele>
        <time>2013-10-27T10:12:33Z</time>
      </trkpt>
      <trkpt lat="41.630257753" lon="2.573070152">
        <ele>208.26</ele>
        <time>2013-10-27T10:12:44Z</time>
      </trkpt>
      <trkpt lat="41.630420362" lon="2.573024387">
        <ele>209.22</ele>
        <time>2013-10-27T10:12:54Z</time>
      </trkpt>
      <trkpt lat="41.630567715" lon="2.572998487">
        <ele>211.15</ele>
        <time>2013-10-27T10:13:03Z</time>
      </trkpt>
      <trkpt lat="41.630724876" lon="2.572968898">
        <ele>211.63</ele>
        <time>2013-10-27T10:13:12Z</time>
      </trkpt>
      <trkpt lat="41.630881031" lon="2.572962528">
        <ele>212.11</ele>
        <time>2013-10-27T10:13:21Z</time>
      </trkpt>
      <trkpt lat="41.631047160" lon="2.572988261">
        <ele>212.59</ele>
        <time>2013-10-27T10:13:30Z</time>
      </trkpt>
      <trkpt lat="41.631209937" lon="2.573009970">
        <ele>213.07</ele>
        <time>2013-10-27T10:13:38Z</time>
      </trkpt>
      <trkpt lat="41.631426944" lon="2.573053807">
        <ele>213.07</ele>
        <time>2013-10-27T10:13:49Z</time>
      </trkpt>
      <trkpt lat="41.631641521" lon="2.573101835">
        <ele>215.47</ele>
        <time>2013-10-27T10:14:00Z</time>
      </trkpt>
      <trkpt lat="41.631818128" lon="2.573129663">
        <ele>216.43</ele>
        <time>2013-10-27T10:14:09Z</time>
      </trkpt>
      <trkpt lat="41.631986520" lon="2.573172327">
        <ele>216.91</ele>
        <time>2013-10-27T10:14:18Z</time>
      </trkpt>
      <trkpt lat="41.632156421" lon="2.573196970">
        <ele>219.32</ele>
        <time>2013-10-27T10:14:27Z</time>
      </trkpt>
      <trkpt lat="41.632311906" lon="2.573204346">
        <ele>221.24</ele>
        <time>2013-10-27T10:14:35Z</time>
      </trkpt>
      <trkpt lat="41.632529919" lon="2.573219182">
        <ele>223.64</ele>
        <time>2013-10-27T10:14:45Z</time>
      </trkpt>
      <trkpt lat="41.632708454" lon="2.573236197">
        <ele>225.09</ele>
        <time>2013-10-27T10:14:52Z</time>
      </trkpt>
      <trkpt lat="41.632982542" lon="2.573286992">
        <ele>227.01</ele>
        <time>2013-10-27T10:15:03Z</time>
      </trkpt>
      <trkpt lat="41.633196699" lon="2.573323034">
        <ele>228.93</ele>
        <time>2013-10-27T10:15:12Z</time>
      </trkpt>
      <trkpt lat="41.633433153" lon="2.573420599">
        <ele>229.41</ele>
        <time>2013-10-27T10:15:21Z</time>
      </trkpt>
      <trkpt lat="41.633691148" lon="2.573481787">
        <ele>230.37</ele>
        <time>2013-10-27T10:15:31Z</time>
      </trkpt>
      <trkpt lat="41.633902372" lon="2.573524619">
        <ele>230.85</ele>
        <time>2013-10-27T10:15:39Z</time>
      </trkpt>
      <trkpt lat="41.634106806" lon="2.573562002">
        <ele>232.30</ele>
        <time>2013-10-27T10:15:48Z</time>
      </trkpt>
      <trkpt lat="41.634296489" lon="2.573575078">
        <ele>232.78</ele>
        <time>2013-10-27T10:15:56Z</time>
      </trkpt>
      <trkpt lat="41.634520956" lon="2.573583879">
        <ele>233.74</ele>
        <time>2013-10-27T10:16:05Z</time>
      </trkpt>
      <trkpt lat="41.634765121" lon="2.573584633">
        <ele>234.22</ele>
        <time>2013-10-27T10:16:15Z</time>
      </trkpt>
      <trkpt lat="41.634966454" lon="2.573583208">
        <ele>235.66</ele>
        <time>2013-10-27T10:16:24Z</time>
      </trkpt>
      <trkpt lat="41.635180947" lon="2.573578598">
        <ele>236.62</ele>
        <time>2013-10-27T10:16:33Z</time>
      </trkpt>
      <trkpt lat="41.635441289" lon="2.573567199">
        <ele>236.62</ele>
        <time>2013-10-27T10:16:44Z</time>
      </trkpt>
      <trkpt lat="41.635677743" lon="2.573542472">
        <ele>238.54</ele>
        <time>2013-10-27T10:16:54Z</time>
      </trkpt>
      <trkpt lat="41.635866671" lon="2.573540880">
        <ele>239.99</ele>
        <time>2013-10-27T10:17:02Z</time>
      </trkpt>
      <trkpt lat="41.636056269" lon="2.573563343">
        <ele>239.99</ele>
        <time>2013-10-27T10:17:10Z</time>
      </trkpt>
      <trkpt lat="41.636290125" lon="2.573658478">
        <ele>240.95</ele>
        <time>2013-10-27T10:17:20Z</time>
      </trkpt>
      <trkpt lat="41.636458601" lon="2.573753696">
        <ele>241.43</ele>
        <time>2013-10-27T10:17:28Z</time>
      </trkpt>
      <trkpt lat="41.636609391" lon="2.573809855">
        <ele>241.91</ele>
        <time>2013-10-27T10:17:36Z</time>
      </trkpt>
      <trkpt lat="41.636829919" lon="2.573924938">
        <ele>243.35</ele>
        <time>2013-10-27T10:17:45Z</time>
      </trkpt>
      <trkpt lat="41.637035024" lon="2.573989144">
        <ele>243.83</ele>
        <time>2013-10-27T10:17:53Z</time>
      </trkpt>
      <trkpt lat="41.637273741" lon="2.574036334">
        <ele>244.31</ele>
        <time>2013-10-27T10:18:02Z</time>
      </trkpt>
      <trkpt lat="41.637496867" lon="2.574167930">
        <ele>245.75</ele>
        <time>2013-10-27T10:18:11Z</time>
      </trkpt>
      <trkpt lat="41.637577250" lon="2.574325007">
        <ele>248.16</ele>
        <time>2013-10-27T10:18:18Z</time>
      </trkpt>
      <trkpt lat="41.637660230" lon="2.574550899">
        <ele>250.08</ele>
        <time>2013-10-27T10:18:26Z</time>
      </trkpt>
      <trkpt lat="41.637729716" lon="2.574758351">
        <ele>251.04</ele>
        <time>2013-10-27T10:18:34Z</time>
      </trkpt>
      <trkpt lat="41.637752934" lon="2.574990027">
        <ele>252.96</ele>
        <time>2013-10-27T10:18:43Z</time>
      </trkpt>
      <trkpt lat="41.637719491" lon="2.575225307">
        <ele>254.41</ele>
        <time>2013-10-27T10:18:51Z</time>
      </trkpt>
      <trkpt lat="41.637742541" lon="2.575552285">
        <ele>256.33</ele>
        <time>2013-10-27T10:19:02Z</time>
      </trkpt>
      <trkpt lat="41.637802807" lon="2.575818410">
        <ele>259.21</ele>
        <time>2013-10-27T10:19:12Z</time>
      </trkpt>
      <trkpt lat="41.637808674" lon="2.576082943">
        <ele>261.62</ele>
        <time>2013-10-27T10:19:22Z</time>
      </trkpt>
      <trkpt lat="41.637848237" lon="2.576368179">
        <ele>264.98</ele>
        <time>2013-10-27T10:19:32Z</time>
      </trkpt>
      <trkpt lat="41.637970529" lon="2.576537410">
        <ele>266.90</ele>
        <time>2013-10-27T10:19:40Z</time>
      </trkpt>
      <trkpt lat="41.638100532" lon="2.576629192">
        <ele>268.83</ele>
        <time>2013-10-27T10:19:48Z</time>
      </trkpt>
      <trkpt lat="41.638237660" lon="2.576718878">
        <ele>271.23</ele>
        <time>2013-10-27T10:19:57Z</time>
      </trkpt>
      <trkpt lat="41.638340003" lon="2.576785514">
        <ele>272.67</ele>
        <time>2013-10-27T10:20:05Z</time>
      </trkpt>
      <trkpt lat="41.638484255" lon="2.576841338">
        <ele>274.59</ele>
        <time>2013-10-27T10:20:14Z</time>
      </trkpt>
      <trkpt lat="41.638615265" lon="2.576831196">
        <ele>276.52</ele>
        <time>2013-10-27T10:20:22Z</time>
      </trkpt>
      <trkpt lat="41.638752141" lon="2.576745197">
        <ele>277.96</ele>
        <time>2013-10-27T10:20:32Z</time>
      </trkpt>
      <trkpt lat="41.638886000" lon="2.576618798">
        <ele>279.88</ele>
        <time>2013-10-27T10:20:42Z</time>
      </trkpt>
      <trkpt lat="41.639008124" lon="2.576500697">
        <ele>280.84</ele>
        <time>2013-10-27T10:20:52Z</time>
      </trkpt>
      <trkpt lat="41.639136200" lon="2.576389888">
        <ele>282.77</ele>
        <time>2013-10-27T10:21:02Z</time>
      </trkpt>
      <trkpt lat="41.639148354" lon="2.576375639">
        <ele>283.25</ele>
        <time>2013-10-27T10:21:03Z</time>
      </trkpt>
      <trkpt lat="41.639293696" lon="2.576307662">
        <ele>284.69</ele>
        <time>2013-10-27T10:21:13Z</time>
      </trkpt>
      <trkpt lat="41.639308616" lon="2.576295508">
        <ele>284.69</ele>
        <time>2013-10-27T10:21:14Z</time>
      </trkpt>
      <trkpt lat="41.639472146" lon="2.576191573">
        <ele>286.13</ele>
        <time>2013-10-27T10:21:25Z</time>
      </trkpt>
      <trkpt lat="41.639519756" lon="2.576134911">
        <ele>287.09</ele>
        <time>2013-10-27T10:21:29Z</time>
      </trkpt>
      <trkpt lat="41.639575831" lon="2.575990407">
        <ele>289.01</ele>
        <time>2013-10-27T10:21:37Z</time>
      </trkpt>
      <trkpt lat="41.639597372" lon="2.575831486">
        <ele>289.97</ele>
        <time>2013-10-27T10:21:46Z</time>
      </trkpt>
      <trkpt lat="41.639607514" lon="2.575766191">
        <ele>290.94</ele>
        <time>2013-10-27T10:21:49Z</time>
      </trkpt>
      <trkpt lat="41.639638695" lon="2.575584304">
        <ele>292.38</ele>
        <time>2013-10-27T10:21:58Z</time>
      </trkpt>
      <trkpt lat="41.639689238" lon="2.575399650">
        <ele>293.82</ele>
        <time>2013-10-27T10:22:06Z</time>
      </trkpt>
      <trkpt lat="41.639708265" lon="2.575330500">
        <ele>294.30</ele>
        <time>2013-10-27T10:22:09Z</time>
      </trkpt>
      <trkpt lat="41.639744307" lon="2.575146936">
        <ele>295.26</ele>
        <time>2013-10-27T10:22:18Z</time>
      </trkpt>
      <trkpt lat="41.639893421" lon="2.574919116">
        <ele>297.18</ele>
        <time>2013-10-27T10:22:29Z</time>
      </trkpt>
      <trkpt lat="41.639996015" lon="2.574859101">
        <ele>298.15</ele>
        <time>2013-10-27T10:22:36Z</time>
      </trkpt>
      <trkpt lat="41.640107746" lon="2.574838650">
        <ele>299.11</ele>
        <time>2013-10-27T10:22:43Z</time>
      </trkpt>
      <trkpt lat="41.640251999" lon="2.574804200">
        <ele>299.59</ele>
        <time>2013-10-27T10:22:52Z</time>
      </trkpt>
      <trkpt lat="41.640418463" lon="2.574740581">
        <ele>301.99</ele>
        <time>2013-10-27T10:23:01Z</time>
      </trkpt>
      <trkpt lat="41.640579815" lon="2.574659361">
        <ele>302.95</ele>
        <time>2013-10-27T10:23:10Z</time>
      </trkpt>
      <trkpt lat="41.640698922" lon="2.574559281">
        <ele>303.91</ele>
        <time>2013-10-27T10:23:17Z</time>
      </trkpt>
      <trkpt lat="41.640763043" lon="2.574483089">
        <ele>304.88</ele>
        <time>2013-10-27T10:23:21Z</time>
      </trkpt>
      <trkpt lat="41.640890700" lon="2.574356606">
        <ele>305.84</ele>
        <time>2013-10-27T10:23:29Z</time>
      </trkpt>
      <trkpt lat="41.641003101" lon="2.574279577">
        <ele>306.80</ele>
        <time>2013-10-27T10:23:36Z</time>
      </trkpt>
      <trkpt lat="41.641137714" lon="2.574186789">
        <ele>306.80</ele>
        <time>2013-10-27T10:23:44Z</time>
      </trkpt>
      <trkpt lat="41.641309963" lon="2.574072544">
        <ele>307.28</ele>
        <time>2013-10-27T10:23:53Z</time>
      </trkpt>
      <trkpt lat="41.641496208" lon="2.573905409">
        <ele>307.28</ele>
        <time>2013-10-27T10:24:02Z</time>
      </trkpt>
      <trkpt lat="41.641693854" lon="2.573785296">
        <ele>307.28</ele>
        <time>2013-10-27T10:24:09Z</time>
      </trkpt>
      <trkpt lat="41.641886721" lon="2.573822176">
        <ele>307.28</ele>
        <time>2013-10-27T10:24:16Z</time>
      </trkpt>
      <trkpt lat="41.642213616" lon="2.573917311">
        <ele>307.28</ele>
        <time>2013-10-27T10:24:26Z</time>
      </trkpt>
      <trkpt lat="41.642322329" lon="2.573986042">
        <ele>306.32</ele>
        <time>2013-10-27T10:24:29Z</time>
      </trkpt>
      <trkpt lat="41.642564482" lon="2.574262981">
        <ele>305.84</ele>
        <time>2013-10-27T10:24:36Z</time>
      </trkpt>
      <trkpt lat="41.642901183" lon="2.574482503">
        <ele>305.84</ele>
        <time>2013-10-27T10:24:45Z</time>
      </trkpt>
      <trkpt lat="41.643207709" lon="2.574625330">
        <ele>305.84</ele>
        <time>2013-10-27T10:24:54Z</time>
      </trkpt>
      <trkpt lat="41.643292450" lon="2.574670676">
        <ele>306.80</ele>
        <time>2013-10-27T10:24:57Z</time>
      </trkpt>
      <trkpt lat="41.643472074" lon="2.574638825">
        <ele>308.24</ele>
        <time>2013-10-27T10:25:03Z</time>
      </trkpt>
      <trkpt lat="41.643606101" lon="2.574402539">
        <ele>308.72</ele>
        <time>2013-10-27T10:25:10Z</time>
      </trkpt>
      <trkpt lat="41.643673324" lon="2.574191148">
        <ele>308.72</ele>
        <time>2013-10-27T10:25:14Z</time>
      </trkpt>
      <trkpt lat="41.643764100" lon="2.573991742">
        <ele>307.76</ele>
        <time>2013-10-27T10:25:17Z</time>
      </trkpt>
      <trkpt lat="41.644027627" lon="2.573819745">
        <ele>304.39</ele>
        <time>2013-10-27T10:25:21Z</time>
      </trkpt>
      <trkpt lat="41.644386792" lon="2.573642552">
        <ele>301.99</ele>
        <time>2013-10-27T10:25:26Z</time>
      </trkpt>
      <trkpt lat="41.644480082" lon="2.573555548">
        <ele>301.03</ele>
        <time>2013-10-27T10:25:28Z</time>
      </trkpt>
      <trkpt lat="41.644518387" lon="2.573374080">
        <ele>300.55</ele>
        <time>2013-10-27T10:25:32Z</time>
      </trkpt>
      <trkpt lat="41.644384193" lon="2.573303169">
        <ele>300.55</ele>
        <time>2013-10-27T10:25:37Z</time>
      </trkpt>
      <trkpt lat="41.644129970" lon="2.573289590">
        <ele>299.11</ele>
        <time>2013-10-27T10:25:43Z</time>
      </trkpt>
      <trkpt lat="41.644027543" lon="2.573263019">
        <ele>299.11</ele>
        <time>2013-10-27T10:25:45Z</time>
      </trkpt>
      <trkpt lat="41.643939785" lon="2.573221445">
        <ele>298.15</ele>
        <time>2013-10-27T10:25:47Z</time>
      </trkpt>
      <trkpt lat="41.643844734" lon="2.573037462">
        <ele>296.70</ele>
        <time>2013-10-27T10:25:51Z</time>
      </trkpt>
      <trkpt lat="41.643841046" lon="2.572914416">
        <ele>295.74</ele>
        <time>2013-10-27T10:25:53Z</time>
      </trkpt>
      <trkpt lat="41.643735937" lon="2.572605627">
        <ele>294.30</ele>
        <time>2013-10-27T10:25:58Z</time>
      </trkpt>
      <trkpt lat="41.643580369" lon="2.572528178">
        <ele>292.38</ele>
        <time>2013-10-27T10:26:01Z</time>
      </trkpt>
      <trkpt lat="41.643472410" lon="2.572594311">
        <ele>290.94</ele>
        <time>2013-10-27T10:26:03Z</time>
      </trkpt>
      <trkpt lat="41.643275603" lon="2.572573189">
        <ele>288.53</ele>
        <time>2013-10-27T10:26:08Z</time>
      </trkpt>
      <trkpt lat="41.643254732" lon="2.572448550">
        <ele>288.05</ele>
        <time>2013-10-27T10:26:10Z</time>
      </trkpt>
      <trkpt lat="41.643285745" lon="2.571850250">
        <ele>284.69</ele>
        <time>2013-10-27T10:26:17Z</time>
      </trkpt>
      <trkpt lat="41.643327654" lon="2.571686048">
        <ele>283.73</ele>
        <time>2013-10-27T10:26:19Z</time>
      </trkpt>
      <trkpt lat="41.643268478" lon="2.571409026">
        <ele>279.88</ele>
        <time>2013-10-27T10:26:23Z</time>
      </trkpt>
      <trkpt lat="41.643176026" lon="2.571162347">
        <ele>276.52</ele>
        <time>2013-10-27T10:26:26Z</time>
      </trkpt>
      <trkpt lat="41.643167728" lon="2.571068302">
        <ele>275.56</ele>
        <time>2013-10-27T10:26:27Z</time>
      </trkpt>
      <trkpt lat="41.643089022" lon="2.570616517">
        <ele>270.27</ele>
        <time>2013-10-27T10:26:32Z</time>
      </trkpt>
      <trkpt lat="41.642813592" lon="2.570219718">
        <ele>264.02</ele>
        <time>2013-10-27T10:26:37Z</time>
      </trkpt>
      <trkpt lat="41.642611337" lon="2.570052583">
        <ele>261.14</ele>
        <time>2013-10-27T10:26:41Z</time>
      </trkpt>
      <trkpt lat="41.642528775" lon="2.569927860">
        <ele>259.21</ele>
        <time>2013-10-27T10:26:44Z</time>
      </trkpt>
      <trkpt lat="41.642599015" lon="2.569804898">
        <ele>257.77</ele>
        <time>2013-10-27T10:26:47Z</time>
      </trkpt>
      <trkpt lat="41.642645116" lon="2.569794504">
        <ele>257.77</ele>
        <time>2013-10-27T10:26:48Z</time>
      </trkpt>
      <trkpt lat="41.642889532" lon="2.569801964">
        <ele>255.85</ele>
        <time>2013-10-27T10:26:52Z</time>
      </trkpt>
      <trkpt lat="41.643095727" lon="2.570008746">
        <ele>254.41</ele>
        <time>2013-10-27T10:26:56Z</time>
      </trkpt>
      <trkpt lat="41.643299491" lon="2.570248049">
        <ele>253.44</ele>
        <time>2013-10-27T10:27:00Z</time>
      </trkpt>
      <trkpt lat="41.643474002" lon="2.570383920">
        <ele>251.04</ele>
        <time>2013-10-27T10:27:05Z</time>
      </trkpt>
      <trkpt lat="41.643471320" lon="2.570245367">
        <ele>250.08</ele>
        <time>2013-10-27T10:27:08Z</time>
      </trkpt>
      <trkpt lat="41.643433685" lon="2.570207900">
        <ele>250.08</ele>
        <time>2013-10-27T10:27:09Z</time>
      </trkpt>
      <trkpt lat="41.643156663" lon="2.569824763">
        <ele>246.23</ele>
        <time>2013-10-27T10:27:16Z</time>
      </trkpt>
      <trkpt lat="41.643145767" lon="2.569462581">
        <ele>243.83</ele>
        <time>2013-10-27T10:27:21Z</time>
      </trkpt>
      <trkpt lat="41.643137385" lon="2.569249094">
        <ele>241.43</ele>
        <time>2013-10-27T10:27:24Z</time>
      </trkpt>
      <trkpt lat="41.642947703" lon="2.569006940">
        <ele>237.58</ele>
        <time>2013-10-27T10:27:29Z</time>
      </trkpt>
      <trkpt lat="41.642900345" lon="2.568909207">
        <ele>237.10</ele>
        <time>2013-10-27T10:27:31Z</time>
      </trkpt>
      <trkpt lat="41.642862123" lon="2.568770403">
        <ele>235.66</ele>
        <time>2013-10-27T10:27:33Z</time>
      </trkpt>
      <trkpt lat="41.642673363" lon="2.568471169">
        <ele>232.30</ele>
        <time>2013-10-27T10:27:37Z</time>
      </trkpt>
      <trkpt lat="41.642545790" lon="2.568310237">
        <ele>230.37</ele>
        <time>2013-10-27T10:27:39Z</time>
      </trkpt>
      <trkpt lat="41.642433054" lon="2.568124913">
        <ele>229.41</ele>
        <time>2013-10-27T10:27:41Z</time>
      </trkpt>
      <trkpt lat="41.642356024" lon="2.567914527">
        <ele>228.93</ele>
        <time>2013-10-27T10:27:43Z</time>
      </trkpt>
      <trkpt lat="41.642260303" lon="2.567636583">
        <ele>228.45</ele>
        <time>2013-10-27T10:27:46Z</time>
      </trkpt>
      <trkpt lat="41.642104986" lon="2.567403734">
        <ele>226.05</ele>
        <time>2013-10-27T10:27:49Z</time>
      </trkpt>
      <trkpt lat="41.642044217" lon="2.567326788">
        <ele>225.09</ele>
        <time>2013-10-27T10:27:50Z</time>
      </trkpt>
      <trkpt lat="41.641911280" lon="2.566946836">
        <ele>221.72</ele>
        <time>2013-10-27T10:27:54Z</time>
      </trkpt>
      <trkpt lat="41.641900300" lon="2.566849774">
        <ele>221.24</ele>
        <time>2013-10-27T10:27:55Z</time>
      </trkpt>
      <trkpt lat="41.641776248" lon="2.566387093">
        <ele>217.40</ele>
        <time>2013-10-27T10:28:00Z</time>
      </trkpt>
      <trkpt lat="41.641719335" lon="2.566161452">
        <ele>216.43</ele>
        <time>2013-10-27T10:28:02Z</time>
      </trkpt>
      <trkpt lat="41.641615902" lon="2.565824332">
        <ele>214.51</ele>
        <time>2013-10-27T10:28:06Z</time>
      </trkpt>
      <trkpt lat="41.641509368" lon="2.565707404">
        <ele>212.11</ele>
        <time>2013-10-27T10:28:08Z</time>
      </trkpt>
      <trkpt lat="41.641376599" lon="2.565590225">
        <ele>211.63</ele>
        <time>2013-10-27T10:28:10Z</time>
      </trkpt>
      <trkpt lat="41.641195550" lon="2.565385791">
        <ele>210.67</ele>
        <time>2013-10-27T10:28:13Z</time>
      </trkpt>
      <trkpt lat="41.641008801" lon="2.565033164">
        <ele>208.74</ele>
        <time>2013-10-27T10:28:17Z</time>
      </trkpt>
      <trkpt lat="41.640872092" lon="2.564495633">
        <ele>207.30</ele>
        <time>2013-10-27T10:28:22Z</time>
      </trkpt>
      <trkpt lat="41.640749381" lon="2.564012583">
        <ele>202.98</ele>
        <time>2013-10-27T10:28:27Z</time>
      </trkpt>
      <trkpt lat="41.640643350" lon="2.563841509">
        <ele>202.01</ele>
        <time>2013-10-27T10:28:29Z</time>
      </trkpt>
      <trkpt lat="41.640399688" lon="2.563429790">
        <ele>198.65</ele>
        <time>2013-10-27T10:28:34Z</time>
      </trkpt>
      <trkpt lat="41.640354845" lon="2.563358124">
        <ele>198.17</ele>
        <time>2013-10-27T10:28:35Z</time>
      </trkpt>
      <trkpt lat="41.640234564" lon="2.563124856">
        <ele>196.73</ele>
        <time>2013-10-27T10:28:40Z</time>
      </trkpt>
      <trkpt lat="41.640223752" lon="2.563007509">
        <ele>197.21</ele>
        <time>2013-10-27T10:28:47Z</time>
      </trkpt>
      <trkpt lat="41.640189805" lon="2.562961409">
        <ele>197.21</ele>
        <time>2013-10-27T10:28:55Z</time>
      </trkpt>
      <trkpt lat="41.640164156" lon="2.562947495">
        <ele>197.21</ele>
        <time>2013-10-27T10:29:04Z</time>
      </trkpt>
      <trkpt lat="41.640162815" lon="2.562930815">
        <ele>197.21</ele>
        <time>2013-10-27T10:29:15Z</time>
      </trkpt>
      <trkpt lat="41.640163821" lon="2.562944813">
        <ele>197.69</ele>
        <time>2013-10-27T10:29:40Z</time>
      </trkpt>
      <trkpt lat="41.640173293" lon="2.562926708">
        <ele>197.69</ele>
        <time>2013-10-27T10:29:56Z</time>
      </trkpt>
      <trkpt lat="41.640222159" lon="2.562918661">
        <ele>198.17</ele>
        <time>2013-10-27T10:30:17Z</time>
      </trkpt>
      <trkpt lat="41.640228027" lon="2.562926121">
        <ele>198.17</ele>
        <time>2013-10-27T10:30:40Z</time>
      </trkpt>
      <trkpt lat="41.640229116" lon="2.562942047">
        <ele>198.17</ele>
        <time>2013-10-27T10:31:04Z</time>
      </trkpt>
      <trkpt lat="41.640237917" lon="2.562933916">
        <ele>198.65</ele>
        <time>2013-10-27T10:31:27Z</time>
      </trkpt>
      <trkpt lat="41.640239091" lon="2.562925702">
        <ele>198.65</ele>
        <time>2013-10-27T10:31:51Z</time>
      </trkpt>
      <trkpt lat="41.640198271" lon="2.562924361">
        <ele>199.13</ele>
        <time>2013-10-27T10:32:13Z</time>
      </trkpt>
      <trkpt lat="41.640199025" lon="2.562906088">
        <ele>199.13</ele>
        <time>2013-10-27T10:32:39Z</time>
      </trkpt>
      <trkpt lat="41.640208664" lon="2.562913465">
        <ele>199.13</ele>
        <time>2013-10-27T10:32:53Z</time>
      </trkpt>
      <trkpt lat="41.640210844" lon="2.562921176">
        <ele>199.61</ele>
        <time>2013-10-27T10:33:14Z</time>
      </trkpt>
      <trkpt lat="41.640213777" lon="2.562932324">
        <ele>199.61</ele>
        <time>2013-10-27T10:33:34Z</time>
      </trkpt>
      <trkpt lat="41.640221153" lon="2.562923104">
        <ele>199.61</ele>
        <time>2013-10-27T10:33:50Z</time>
      </trkpt>
      <trkpt lat="41.640211766" lon="2.562916147">
        <ele>199.61</ele>
        <time>2013-10-27T10:34:17Z</time>
      </trkpt>
      <trkpt lat="41.640186788" lon="2.562897287">
        <ele>200.09</ele>
        <time>2013-10-27T10:34:36Z</time>
      </trkpt>
      <trkpt lat="41.640141441" lon="2.562887732">
        <ele>200.09</ele>
        <time>2013-10-27T10:34:59Z</time>
      </trkpt>
      <trkpt lat="41.640150997" lon="2.562900556">
        <ele>201.53</ele>
        <time>2013-10-27T10:35:16Z</time>
      </trkpt>
      <trkpt lat="41.640139095" lon="2.562911285">
        <ele>201.53</ele>
        <time>2013-10-27T10:35:28Z</time>
      </trkpt>
      <trkpt lat="41.640120990" lon="2.562895779">
        <ele>201.53</ele>
        <time>2013-10-27T10:35:44Z</time>
      </trkpt>
      <trkpt lat="41.640110345" lon="2.562915476">
        <ele>201.53</ele>
        <time>2013-10-27T10:35:58Z</time>
      </trkpt>
      <trkpt lat="41.640089055" lon="2.562901562">
        <ele>202.01</ele>
        <time>2013-10-27T10:36:11Z</time>
      </trkpt>
      <trkpt lat="41.639977994" lon="2.562880188">
        <ele>202.01</ele>
        <time>2013-10-27T10:36:21Z</time>
      </trkpt>
      <trkpt lat="41.639828042" lon="2.562851858">
        <ele>202.49</ele>
        <time>2013-10-27T10:36:30Z</time>
      </trkpt>
      <trkpt lat="41.639690495" lon="2.562724620">
        <ele>203.46</ele>
        <time>2013-10-27T10:36:38Z</time>
      </trkpt>
      <trkpt lat="41.639635510" lon="2.562530998">
        <ele>204.42</ele>
        <time>2013-10-27T10:36:44Z</time>
      </trkpt>
      <trkpt lat="41.639657051" lon="2.562361349">
        <ele>206.34</ele>
        <time>2013-10-27T10:36:51Z</time>
      </trkpt>
      <trkpt lat="41.639582033" lon="2.562232603">
        <ele>207.78</ele>
        <time>2013-10-27T10:36:58Z</time>
      </trkpt>
      <trkpt lat="41.639456137" lon="2.562151801">
        <ele>208.26</ele>
        <time>2013-10-27T10:37:05Z</time>
      </trkpt>
      <trkpt lat="41.639323787" lon="2.562010231">
        <ele>208.74</ele>
        <time>2013-10-27T10:37:12Z</time>
      </trkpt>
      <trkpt lat="41.639147348" lon="2.561861033">
        <ele>209.22</ele>
        <time>2013-10-27T10:37:21Z</time>
      </trkpt>
      <trkpt lat="41.638960850" lon="2.561749889">
        <ele>209.22</ele>
        <time>2013-10-27T10:37:30Z</time>
      </trkpt>
      <trkpt lat="41.638792039" lon="2.561658442">
        <ele>211.15</ele>
        <time>2013-10-27T10:37:39Z</time>
      </trkpt>
      <trkpt lat="41.638627167" lon="2.561571857">
        <ele>213.07</ele>
        <time>2013-10-27T10:37:48Z</time>
      </trkpt>
      <trkpt lat="41.638498421" lon="2.561481668">
        <ele>214.03</ele>
        <time>2013-10-27T10:37:55Z</time>
      </trkpt>
      <trkpt lat="41.638389037" lon="2.561309671">
        <ele>214.99</ele>
        <time>2013-10-27T10:38:03Z</time>
      </trkpt>
      <trkpt lat="41.638224416" lon="2.561135244">
        <ele>215.95</ele>
        <time>2013-10-27T10:38:13Z</time>
      </trkpt>
      <trkpt lat="41.638096509" lon="2.561023178">
        <ele>217.40</ele>
        <time>2013-10-27T10:38:20Z</time>
      </trkpt>
      <trkpt lat="41.637928451" lon="2.560881859">
        <ele>217.88</ele>
        <time>2013-10-27T10:38:29Z</time>
      </trkpt>
      <trkpt lat="41.637765926" lon="2.560690332">
        <ele>219.80</ele>
        <time>2013-10-27T10:38:39Z</time>
      </trkpt>
      <trkpt lat="41.637756622" lon="2.560573321">
        <ele>220.76</ele>
        <time>2013-10-27T10:38:44Z</time>
      </trkpt>
      <trkpt lat="41.637843207" lon="2.560431248">
        <ele>221.24</ele>
        <time>2013-10-27T10:38:51Z</time>
      </trkpt>
      <trkpt lat="41.637943958" lon="2.560239889">
        <ele>222.20</ele>
        <time>2013-10-27T10:38:59Z</time>
      </trkpt>
      <trkpt lat="41.638008750" lon="2.560090104">
        <ele>222.68</ele>
        <time>2013-10-27T10:39:06Z</time>
      </trkpt>
      <trkpt lat="41.638121235" lon="2.559931854">
        <ele>225.09</ele>
        <time>2013-10-27T10:39:14Z</time>
      </trkpt>
      <trkpt lat="41.638283509" lon="2.559911905">
        <ele>226.05</ele>
        <time>2013-10-27T10:39:21Z</time>
      </trkpt>
      <trkpt lat="41.638418960" lon="2.559970662">
        <ele>227.01</ele>
        <time>2013-10-27T10:39:28Z</time>
      </trkpt>
      <trkpt lat="41.638571176" lon="2.560021037">
        <ele>227.97</ele>
        <time>2013-10-27T10:39:35Z</time>
      </trkpt>
      <trkpt lat="41.638737137" lon="2.560061187">
        <ele>228.93</ele>
        <time>2013-10-27T10:39:43Z</time>
      </trkpt>
      <trkpt lat="41.638937130" lon="2.560041657">
        <ele>230.85</ele>
        <time>2013-10-27T10:39:53Z</time>
      </trkpt>
      <trkpt lat="41.639073755" lon="2.560003016">
        <ele>233.74</ele>
        <time>2013-10-27T10:40:01Z</time>
      </trkpt>
      <trkpt lat="41.639162854" lon="2.559953312">
        <ele>234.22</ele>
        <time>2013-10-27T10:40:06Z</time>
      </trkpt>
      <trkpt lat="41.639306688" lon="2.559833450">
        <ele>234.70</ele>
        <time>2013-10-27T10:40:15Z</time>
      </trkpt>
      <trkpt lat="41.639417245" lon="2.559682325">
        <ele>235.66</ele>
        <time>2013-10-27T10:40:23Z</time>
      </trkpt>
      <trkpt lat="41.639540040" lon="2.559527595">
        <ele>237.58</ele>
        <time>2013-10-27T10:40:32Z</time>
      </trkpt>
      <trkpt lat="41.639664511" lon="2.559398849">
        <ele>238.06</ele>
        <time>2013-10-27T10:40:40Z</time>
      </trkpt>
      <trkpt lat="41.639752773" lon="2.559318550">
        <ele>239.02</ele>
        <time>2013-10-27T10:40:46Z</time>
      </trkpt>
      <trkpt lat="41.639786049" lon="2.559323663">
        <ele>239.51</ele>
        <time>2013-10-27T10:40:48Z</time>
      </trkpt>
      <trkpt lat="41.639849248" lon="2.559395077">
        <ele>240.47</ele>
        <time>2013-10-27T10:40:53Z</time>
      </trkpt>
      <trkpt lat="41.639942790" lon="2.559539413">
        <ele>241.91</ele>
        <time>2013-10-27T10:41:01Z</time>
      </trkpt>
      <trkpt lat="41.640090815" lon="2.559561793">
        <ele>242.39</ele>
        <time>2013-10-27T10:41:09Z</time>
      </trkpt>
      <trkpt lat="41.640225428" lon="2.559564894">
        <ele>243.83</ele>
        <time>2013-10-27T10:41:17Z</time>
      </trkpt>
      <trkpt lat="41.640364568" lon="2.559602445">
        <ele>244.79</ele>
        <time>2013-10-27T10:41:24Z</time>
      </trkpt>
      <trkpt lat="41.640500774" lon="2.559590878">
        <ele>246.72</ele>
        <time>2013-10-27T10:41:31Z</time>
      </trkpt>
      <trkpt lat="41.640642763" lon="2.559551064">
        <ele>248.64</ele>
        <time>2013-10-27T10:41:39Z</time>
      </trkpt>
      <trkpt lat="41.640788441" lon="2.559591297">
        <ele>249.12</ele>
        <time>2013-10-27T10:41:47Z</time>
      </trkpt>
      <trkpt lat="41.640879971" lon="2.559625747">
        <ele>249.12</ele>
        <time>2013-10-27T10:41:52Z</time>
      </trkpt>
      <trkpt lat="41.641098906" lon="2.559680229">
        <ele>250.56</ele>
        <time>2013-10-27T10:42:04Z</time>
      </trkpt>
      <trkpt lat="41.641189012" lon="2.559797241">
        <ele>252.00</ele>
        <time>2013-10-27T10:42:11Z</time>
      </trkpt>
      <trkpt lat="41.641225641" lon="2.559924059">
        <ele>252.96</ele>
        <time>2013-10-27T10:42:17Z</time>
      </trkpt>
      <trkpt lat="41.641275848" lon="2.560131595">
        <ele>253.93</ele>
        <time>2013-10-27T10:42:27Z</time>
      </trkpt>
      <trkpt lat="41.641411887" lon="2.560165206">
        <ele>254.89</ele>
        <time>2013-10-27T10:42:34Z</time>
      </trkpt>
      <trkpt lat="41.641572484" lon="2.560092116">
        <ele>255.37</ele>
        <time>2013-10-27T10:42:42Z</time>
      </trkpt>
      <trkpt lat="41.641762585" lon="2.559991030">
        <ele>256.33</ele>
        <time>2013-10-27T10:42:51Z</time>
      </trkpt>
      <trkpt lat="41.641884793" lon="2.559985666">
        <ele>257.77</ele>
        <time>2013-10-27T10:42:58Z</time>
      </trkpt>
      <trkpt lat="41.641972636" lon="2.560057582">
        <ele>258.25</ele>
        <time>2013-10-27T10:43:04Z</time>
      </trkpt>
      <trkpt lat="41.642079505" lon="2.560172917">
        <ele>259.21</ele>
        <time>2013-10-27T10:43:11Z</time>
      </trkpt>
      <trkpt lat="41.642205234" lon="2.560243661">
        <ele>261.14</ele>
        <time>2013-10-27T10:43:19Z</time>
      </trkpt>
      <trkpt lat="41.642402376" lon="2.560189011">
        <ele>262.10</ele>
        <time>2013-10-27T10:43:28Z</time>
      </trkpt>
      <trkpt lat="41.642650983" lon="2.560087590">
        <ele>264.98</ele>
        <time>2013-10-27T10:43:40Z</time>
      </trkpt>
      <trkpt lat="41.642823734" lon="2.560083063">
        <ele>265.94</ele>
        <time>2013-10-27T10:43:47Z</time>
      </trkpt>
      <trkpt lat="41.643056164" lon="2.560098235">
        <ele>267.86</ele>
        <time>2013-10-27T10:43:57Z</time>
      </trkpt>
      <trkpt lat="41.643220198" lon="2.560176019">
        <ele>269.31</ele>
        <time>2013-10-27T10:44:05Z</time>
      </trkpt>
      <trkpt lat="41.643344250" lon="2.560261430">
        <ele>269.79</ele>
        <time>2013-10-27T10:44:11Z</time>
      </trkpt>
      <trkpt lat="41.643501998" lon="2.560401995">
        <ele>272.19</ele>
        <time>2013-10-27T10:44:20Z</time>
      </trkpt>
      <trkpt lat="41.643677683" lon="2.560630486">
        <ele>274.59</ele>
        <time>2013-10-27T10:44:29Z</time>
      </trkpt>
      <trkpt lat="41.643709282" lon="2.560938520">
        <ele>276.04</ele>
        <time>2013-10-27T10:44:39Z</time>
      </trkpt>
      <trkpt lat="41.643758316" lon="2.561132059">
        <ele>277.96</ele>
        <time>2013-10-27T10:44:46Z</time>
      </trkpt>
      <trkpt lat="41.643789665" lon="2.561379409">
        <ele>278.92</ele>
        <time>2013-10-27T10:44:54Z</time>
      </trkpt>
      <trkpt lat="41.643891756" lon="2.561583005">
        <ele>280.84</ele>
        <time>2013-10-27T10:45:02Z</time>
      </trkpt>
      <trkpt lat="41.644020922" lon="2.561635979">
        <ele>280.84</ele>
        <time>2013-10-27T10:45:08Z</time>
      </trkpt>
      <trkpt lat="41.644231810" lon="2.561672859">
        <ele>282.28</ele>
        <time>2013-10-27T10:45:19Z</time>
      </trkpt>
      <trkpt lat="41.644368854" lon="2.561710578">
        <ele>285.17</ele>
        <time>2013-10-27T10:45:26Z</time>
      </trkpt>
      <trkpt lat="41.644495170" lon="2.561747877">
        <ele>287.57</ele>
        <time>2013-10-27T10:45:34Z</time>
      </trkpt>
      <trkpt lat="41.644619306" lon="2.561696664">
        <ele>287.57</ele>
        <time>2013-10-27T10:45:41Z</time>
      </trkpt>
      <trkpt lat="41.644718044" lon="2.561598344">
        <ele>288.53</ele>
        <time>2013-10-27T10:45:48Z</time>
      </trkpt>
      <trkpt lat="41.644853915" lon="2.561452164">
        <ele>290.46</ele>
        <time>2013-10-27T10:45:58Z</time>
      </trkpt>
      <trkpt lat="41.644974782" lon="2.561298523">
        <ele>292.38</ele>
        <time>2013-10-27T10:46:08Z</time>
      </trkpt>
      <trkpt lat="41.645071761" lon="2.561240437">
        <ele>294.30</ele>
        <time>2013-10-27T10:46:15Z</time>
      </trkpt>
      <trkpt lat="41.645220875" lon="2.561264912">
        <ele>296.70</ele>
        <time>2013-10-27T10:46:25Z</time>
      </trkpt>
      <trkpt lat="41.645373342" lon="2.561337331">
        <ele>297.67</ele>
        <time>2013-10-27T10:46:35Z</time>
      </trkpt>
      <trkpt lat="41.645496220" lon="2.561370524">
        <ele>298.63</ele>
        <time>2013-10-27T10:46:42Z</time>
      </trkpt>
      <trkpt lat="41.645638713" lon="2.561432969">
        <ele>299.59</ele>
        <time>2013-10-27T10:46:50Z</time>
      </trkpt>
      <trkpt lat="41.645726387" lon="2.561564649">
        <ele>301.51</ele>
        <time>2013-10-27T10:46:58Z</time>
      </trkpt>
      <trkpt lat="41.645764274" lon="2.561725833">
        <ele>301.99</ele>
        <time>2013-10-27T10:47:05Z</time>
      </trkpt>
      <trkpt lat="41.645775841" lon="2.561879389">
        <ele>303.43</ele>
        <time>2013-10-27T10:47:12Z</time>
      </trkpt>
      <trkpt lat="41.645847338" lon="2.562019954">
        <ele>304.39</ele>
        <time>2013-10-27T10:47:19Z</time>
      </trkpt>
      <trkpt lat="41.645944149" lon="2.562025067">
        <ele>305.84</ele>
        <time>2013-10-27T10:47:26Z</time>
      </trkpt>
      <trkpt lat="41.646073985" lon="2.561952395">
        <ele>307.28</ele>
        <time>2013-10-27T10:47:35Z</time>
      </trkpt>
      <trkpt lat="41.646201055" lon="2.561982822">
        <ele>308.24</ele>
        <time>2013-10-27T10:47:43Z</time>
      </trkpt>
      <trkpt lat="41.646308259" lon="2.562067060">
        <ele>310.64</ele>
        <time>2013-10-27T10:47:50Z</time>
      </trkpt>
      <trkpt lat="41.646365591" lon="2.562177366">
        <ele>311.12</ele>
        <time>2013-10-27T10:47:56Z</time>
      </trkpt>
      <trkpt lat="41.646465671" lon="2.562254312">
        <ele>312.57</ele>
        <time>2013-10-27T10:48:02Z</time>
      </trkpt>
      <trkpt lat="41.646482938" lon="2.562264454">
        <ele>312.57</ele>
        <time>2013-10-27T10:48:03Z</time>
      </trkpt>
      <trkpt lat="41.646655773" lon="2.562357577">
        <ele>314.01</ele>
        <time>2013-10-27T10:48:13Z</time>
      </trkpt>
      <trkpt lat="41.646766246" lon="2.562454052">
        <ele>314.97</ele>
        <time>2013-10-27T10:48:21Z</time>
      </trkpt>
      <trkpt lat="41.646843527" lon="2.562474420">
        <ele>315.45</ele>
        <time>2013-10-27T10:48:26Z</time>
      </trkpt>
      <trkpt lat="41.647000437" lon="2.562471487">
        <ele>315.93</ele>
        <time>2013-10-27T10:48:35Z</time>
      </trkpt>
      <trkpt lat="41.647196070" lon="2.562433517">
        <ele>316.41</ele>
        <time>2013-10-27T10:48:44Z</time>
      </trkpt>
      <trkpt lat="41.647334288" lon="2.562351961">
        <ele>316.89</ele>
        <time>2013-10-27T10:48:51Z</time>
      </trkpt>
      <trkpt lat="41.647524473" lon="2.562227909">
        <ele>318.81</ele>
        <time>2013-10-27T10:49:01Z</time>
      </trkpt>
      <trkpt lat="41.647704349" lon="2.562169654">
        <ele>318.81</ele>
        <time>2013-10-27T10:49:08Z</time>
      </trkpt>
      <trkpt lat="41.647948514" lon="2.562068233">
        <ele>318.81</ele>
        <time>2013-10-27T10:49:16Z</time>
      </trkpt>
      <trkpt lat="41.648047169" lon="2.562007046">
        <ele>319.30</ele>
        <time>2013-10-27T10:49:20Z</time>
      </trkpt>
      <trkpt lat="41.648177759" lon="2.561928172">
        <ele>320.74</ele>
        <time>2013-10-27T10:49:26Z</time>
      </trkpt>
      <trkpt lat="41.648191086" lon="2.561800851">
        <ele>321.70</ele>
        <time>2013-10-27T10:49:30Z</time>
      </trkpt>
      <trkpt lat="41.648028729" lon="2.561526176">
        <ele>323.14</ele>
        <time>2013-10-27T10:49:42Z</time>
      </trkpt>
      <trkpt lat="41.647953962" lon="2.561423917">
        <ele>325.06</ele>
        <time>2013-10-27T10:49:48Z</time>
      </trkpt>
      <trkpt lat="41.647792443" lon="2.561251082">
        <ele>326.50</ele>
        <time>2013-10-27T10:49:57Z</time>
      </trkpt>
      <trkpt lat="41.647680125" lon="2.561045390">
        <ele>328.43</ele>
        <time>2013-10-27T10:50:06Z</time>
      </trkpt>
      <trkpt lat="41.647612064" lon="2.560820839">
        <ele>329.87</ele>
        <time>2013-10-27T10:50:15Z</time>
      </trkpt>
      <trkpt lat="41.647626481" lon="2.560541386">
        <ele>331.79</ele>
        <time>2013-10-27T10:50:24Z</time>
      </trkpt>
      <trkpt lat="41.647643496" lon="2.560316751">
        <ele>333.71</ele>
        <time>2013-10-27T10:50:33Z</time>
      </trkpt>
      <trkpt lat="41.647678700" lon="2.560141318">
        <ele>335.64</ele>
        <time>2013-10-27T10:50:41Z</time>
      </trkpt>
      <trkpt lat="41.647732931" lon="2.559944427">
        <ele>338.04</ele>
        <time>2013-10-27T10:50:50Z</time>
      </trkpt>
      <trkpt lat="41.647801076" lon="2.559739992">
        <ele>339.96</ele>
        <time>2013-10-27T10:50:59Z</time>
      </trkpt>
      <trkpt lat="41.647808620" lon="2.559694478">
        <ele>339.96</ele>
        <time>2013-10-27T10:51:01Z</time>
      </trkpt>
      <trkpt lat="41.647755898" lon="2.559587442">
        <ele>340.44</ele>
        <time>2013-10-27T10:51:07Z</time>
      </trkpt>
      <trkpt lat="41.647622961" lon="2.559429862">
        <ele>342.37</ele>
        <time>2013-10-27T10:51:17Z</time>
      </trkpt>
      <trkpt lat="41.647524222" lon="2.559316119">
        <ele>342.85</ele>
        <time>2013-10-27T10:51:24Z</time>
      </trkpt>
      <trkpt lat="41.647396314" lon="2.559268426">
        <ele>343.33</ele>
        <time>2013-10-27T10:51:32Z</time>
      </trkpt>
      <trkpt lat="41.647289361" lon="2.559149571">
        <ele>343.81</ele>
        <time>2013-10-27T10:51:40Z</time>
      </trkpt>
      <trkpt lat="41.647340155" lon="2.559024681">
        <ele>344.77</ele>
        <time>2013-10-27T10:51:46Z</time>
      </trkpt>
      <trkpt lat="41.647454317" lon="2.558974473">
        <ele>346.21</ele>
        <time>2013-10-27T10:51:54Z</time>
      </trkpt>
      <trkpt lat="41.647587924" lon="2.558968941">
        <ele>348.13</ele>
        <time>2013-10-27T10:52:03Z</time>
      </trkpt>
      <trkpt lat="41.647718850" lon="2.558942370">
        <ele>350.54</ele>
        <time>2013-10-27T10:52:13Z</time>
      </trkpt>
      <trkpt lat="41.647836699" lon="2.558929630">
        <ele>351.98</ele>
        <time>2013-10-27T10:52:21Z</time>
      </trkpt>
      <trkpt lat="41.647955974" lon="2.558915464">
        <ele>353.42</ele>
        <time>2013-10-27T10:52:29Z</time>
      </trkpt>
      <trkpt lat="41.648067034" lon="2.558900880">
        <ele>355.83</ele>
        <time>2013-10-27T10:52:36Z</time>
      </trkpt>
      <trkpt lat="41.648211622" lon="2.558894342">
        <ele>356.31</ele>
        <time>2013-10-27T10:52:44Z</time>
      </trkpt>
      <trkpt lat="41.648334081" lon="2.558874644">
        <ele>358.23</ele>
        <time>2013-10-27T10:52:53Z</time>
      </trkpt>
      <trkpt lat="41.648472550" lon="2.558868777">
        <ele>360.15</ele>
        <time>2013-10-27T10:53:02Z</time>
      </trkpt>
      <trkpt lat="41.648576234" lon="2.558922505">
        <ele>361.59</ele>
        <time>2013-10-27T10:53:11Z</time>
      </trkpt>
      <trkpt lat="41.648681595" lon="2.559025938">
        <ele>362.07</ele>
        <time>2013-10-27T10:53:19Z</time>
      </trkpt>
      <trkpt lat="41.648815705" lon="2.559037170">
        <ele>363.52</ele>
        <time>2013-10-27T10:53:27Z</time>
      </trkpt>
      <trkpt lat="41.648937578" lon="2.558963409">
        <ele>364.48</ele>
        <time>2013-10-27T10:53:35Z</time>
      </trkpt>
      <trkpt lat="41.649068587" lon="2.558860395">
        <ele>366.40</ele>
        <time>2013-10-27T10:53:45Z</time>
      </trkpt>
      <trkpt lat="41.649192304" lon="2.558765931">
        <ele>368.32</ele>
        <time>2013-10-27T10:53:54Z</time>
      </trkpt>
      <trkpt lat="41.649318033" lon="2.558732320">
        <ele>370.73</ele>
        <time>2013-10-27T10:54:02Z</time>
      </trkpt>
      <trkpt lat="41.649419286" lon="2.558754364">
        <ele>371.21</ele>
        <time>2013-10-27T10:54:09Z</time>
      </trkpt>
      <trkpt lat="41.649527413" lon="2.558813959">
        <ele>373.13</ele>
        <time>2013-10-27T10:54:17Z</time>
      </trkpt>
      <trkpt lat="41.649637467" lon="2.558884451">
        <ele>375.05</ele>
        <time>2013-10-27T10:54:25Z</time>
      </trkpt>
      <trkpt lat="41.649714162" lon="2.558936587">
        <ele>376.49</ele>
        <time>2013-10-27T10:54:32Z</time>
      </trkpt>
      <trkpt lat="41.649814661" lon="2.559013784">
        <ele>377.45</ele>
        <time>2013-10-27T10:54:40Z</time>
      </trkpt>
      <trkpt lat="41.649852295" lon="2.559036248">
        <ele>377.45</ele>
        <time>2013-10-27T10:54:43Z</time>
      </trkpt>
      <trkpt lat="41.650006355" lon="2.559098441">
        <ele>379.86</ele>
        <time>2013-10-27T10:54:55Z</time>
      </trkpt>
      <trkpt lat="41.650118672" lon="2.559159378">
        <ele>381.78</ele>
        <time>2013-10-27T10:55:03Z</time>
      </trkpt>
      <trkpt lat="41.650207772" lon="2.559205562">
        <ele>383.22</ele>
        <time>2013-10-27T10:55:10Z</time>
      </trkpt>
      <trkpt lat="41.650222440" lon="2.559211513">
        <ele>383.22</ele>
        <time>2013-10-27T10:55:11Z</time>
      </trkpt>
      <trkpt lat="41.650328974" lon="2.559253087">
        <ele>384.18</ele>
        <time>2013-10-27T10:55:18Z</time>
      </trkpt>
      <trkpt lat="41.650397538" lon="2.559283095">
        <ele>385.15</ele>
        <time>2013-10-27T10:55:23Z</time>
      </trkpt>
      <trkpt lat="41.650520585" lon="2.559328189">
        <ele>387.07</ele>
        <time>2013-10-27T10:55:33Z</time>
      </trkpt>
      <trkpt lat="41.650578168" lon="2.559348725">
        <ele>388.03</ele>
        <time>2013-10-27T10:55:37Z</time>
      </trkpt>
      <trkpt lat="41.650667771" lon="2.559215956">
        <ele>388.03</ele>
        <time>2013-10-27T10:55:44Z</time>
      </trkpt>
      <trkpt lat="41.650621419" lon="2.558957458">
        <ele>388.03</ele>
        <time>2013-10-27T10:55:52Z</time>
      </trkpt>
      <trkpt lat="41.650531732" lon="2.558689572">
        <ele>387.07</ele>
        <time>2013-10-27T10:55:58Z</time>
      </trkpt>
      <trkpt lat="41.650496445" lon="2.558351278">
        <ele>387.07</ele>
        <time>2013-10-27T10:56:05Z</time>
      </trkpt>
      <trkpt lat="41.650502899" lon="2.558059169">
        <ele>387.07</ele>
        <time>2013-10-27T10:56:12Z</time>
      </trkpt>
      <trkpt lat="41.650502731" lon="2.557694221">
        <ele>388.03</ele>
        <time>2013-10-27T10:56:21Z</time>
      </trkpt>
      <trkpt lat="41.650494768" lon="2.557307815">
        <ele>388.99</ele>
        <time>2013-10-27T10:56:31Z</time>
      </trkpt>
      <trkpt lat="41.650520668" lon="2.556940185">
        <ele>390.43</ele>
        <time>2013-10-27T10:56:41Z</time>
      </trkpt>
      <trkpt lat="41.650602727" lon="2.556723345">
        <ele>391.39</ele>
        <time>2013-10-27T10:56:48Z</time>
      </trkpt>
      <trkpt lat="41.650752093" lon="2.556486473">
        <ele>393.80</ele>
        <time>2013-10-27T10:56:58Z</time>
      </trkpt>
      <trkpt lat="41.650929957" lon="2.556316404">
        <ele>395.24</ele>
        <time>2013-10-27T10:57:08Z</time>
      </trkpt>
      <trkpt lat="41.651086279" lon="2.556232166">
        <ele>396.20</ele>
        <time>2013-10-27T10:57:15Z</time>
      </trkpt>
      <trkpt lat="41.651266322" lon="2.556090931">
        <ele>397.64</ele>
        <time>2013-10-27T10:57:24Z</time>
      </trkpt>
      <trkpt lat="41.651418705" lon="2.555911893">
        <ele>398.12</ele>
        <time>2013-10-27T10:57:33Z</time>
      </trkpt>
      <trkpt lat="41.651609058" lon="2.555688432">
        <ele>398.60</ele>
        <time>2013-10-27T10:57:43Z</time>
      </trkpt>
      <trkpt lat="41.651805530" lon="2.555484248">
        <ele>400.05</ele>
        <time>2013-10-27T10:57:53Z</time>
      </trkpt>
      <trkpt lat="41.652003762" lon="2.555298338">
        <ele>401.01</ele>
        <time>2013-10-27T10:58:03Z</time>
      </trkpt>
      <trkpt lat="41.652176932" lon="2.555119133">
        <ele>402.93</ele>
        <time>2013-10-27T10:58:13Z</time>
      </trkpt>
      <trkpt lat="41.652340212" lon="2.555060962">
        <ele>404.37</ele>
        <time>2013-10-27T10:58:22Z</time>
      </trkpt>
      <trkpt lat="41.652493852" lon="2.554990638">
        <ele>405.81</ele>
        <time>2013-10-27T10:58:30Z</time>
      </trkpt>
      <trkpt lat="41.652524530" lon="2.554818893">
        <ele>405.81</ele>
        <time>2013-10-27T10:58:36Z</time>
      </trkpt>
      <trkpt lat="41.652469377" lon="2.554657625">
        <ele>406.77</ele>
        <time>2013-10-27T10:58:43Z</time>
      </trkpt>
      <trkpt lat="41.652379439" lon="2.554456040">
        <ele>407.26</ele>
        <time>2013-10-27T10:58:50Z</time>
      </trkpt>
      <trkpt lat="41.652239461" lon="2.554310195">
        <ele>407.74</ele>
        <time>2013-10-27T10:58:58Z</time>
      </trkpt>
      <trkpt lat="41.652112727" lon="2.554096038">
        <ele>407.74</ele>
        <time>2013-10-27T10:59:04Z</time>
      </trkpt>
      <trkpt lat="41.651971743" lon="2.553889424">
        <ele>408.70</ele>
        <time>2013-10-27T10:59:12Z</time>
      </trkpt>
      <trkpt lat="41.651775272" lon="2.553814909">
        <ele>408.70</ele>
        <time>2013-10-27T10:59:19Z</time>
      </trkpt>
      <trkpt lat="41.651601766" lon="2.553687671">
        <ele>409.18</ele>
        <time>2013-10-27T10:59:25Z</time>
      </trkpt>
      <trkpt lat="41.651636635" lon="2.553457923">
        <ele>407.74</ele>
        <time>2013-10-27T10:59:30Z</time>
      </trkpt>
      <trkpt lat="41.651669995" lon="2.553435208">
        <ele>407.74</ele>
        <time>2013-10-27T10:59:31Z</time>
      </trkpt>
      <trkpt lat="41.651843081" lon="2.553212501">
        <ele>407.74</ele>
        <time>2013-10-27T10:59:38Z</time>
      </trkpt>
      <trkpt lat="41.651896306" lon="2.553056682">
        <ele>409.18</ele>
        <time>2013-10-27T10:59:42Z</time>
      </trkpt>
      <trkpt lat="41.651990016" lon="2.552708833">
        <ele>409.66</ele>
        <time>2013-10-27T10:59:50Z</time>
      </trkpt>
      <trkpt lat="41.652068806" lon="2.552494424">
        <ele>411.58</ele>
        <time>2013-10-27T10:59:57Z</time>
      </trkpt>
      <trkpt lat="41.652095376" lon="2.552468021">
        <ele>412.06</ele>
        <time>2013-10-27T10:59:59Z</time>
      </trkpt>
      <trkpt lat="41.652193864" lon="2.552505907">
        <ele>413.50</ele>
        <time>2013-10-27T11:00:06Z</time>
      </trkpt>
      <trkpt lat="41.652199983" lon="2.552696176">
        <ele>416.39</ele>
        <time>2013-10-27T11:00:15Z</time>
      </trkpt>
      <trkpt lat="41.652216746" lon="2.552888876">
        <ele>417.83</ele>
        <time>2013-10-27T11:00:24Z</time>
      </trkpt>
      <trkpt lat="41.652236612" lon="2.553035727">
        <ele>418.79</ele>
        <time>2013-10-27T11:00:31Z</time>
      </trkpt>
      <trkpt lat="41.652332752" lon="2.553235803">
        <ele>420.71</ele>
        <time>2013-10-27T11:00:42Z</time>
      </trkpt>
      <trkpt lat="41.652363094" lon="2.553263463">
        <ele>421.19</ele>
        <time>2013-10-27T11:00:46Z</time>
      </trkpt>
      <trkpt lat="41.652397879" lon="2.553208394">
        <ele>422.64</ele>
        <time>2013-10-27T11:00:51Z</time>
      </trkpt>
      <trkpt lat="41.652435346" lon="2.553042432">
        <ele>425.04</ele>
        <time>2013-10-27T11:00:59Z</time>
      </trkpt>
      <trkpt lat="41.652439118" lon="2.553010833">
        <ele>425.52</ele>
        <time>2013-10-27T11:01:05Z</time>
      </trkpt>
      <trkpt lat="41.652443728" lon="2.552959032">
        <ele>426.00</ele>
        <time>2013-10-27T11:01:13Z</time>
      </trkpt>
      <trkpt lat="41.652450434" lon="2.552915614">
        <ele>426.48</ele>
        <time>2013-10-27T11:01:21Z</time>
      </trkpt>
      <trkpt lat="41.652486979" lon="2.552796172">
        <ele>428.40</ele>
        <time>2013-10-27T11:01:30Z</time>
      </trkpt>
      <trkpt lat="41.652499887" lon="2.552759376">
        <ele>428.89</ele>
        <time>2013-10-27T11:01:33Z</time>
      </trkpt>
      <trkpt lat="41.652555627" lon="2.552622834">
        <ele>430.81</ele>
        <time>2013-10-27T11:01:43Z</time>
      </trkpt>
      <trkpt lat="41.652627376" lon="2.552494591">
        <ele>431.77</ele>
        <time>2013-10-27T11:01:53Z</time>
      </trkpt>
      <trkpt lat="41.652685295" lon="2.552393841">
        <ele>434.17</ele>
        <time>2013-10-27T11:02:01Z</time>
      </trkpt>
      <trkpt lat="41.652712620" lon="2.552359726">
        <ele>434.65</ele>
        <time>2013-10-27T11:02:05Z</time>
      </trkpt>
      <trkpt lat="41.652822339" lon="2.552277919">
        <ele>435.61</ele>
        <time>2013-10-27T11:02:16Z</time>
      </trkpt>
      <trkpt lat="41.652924850" lon="2.552184209">
        <ele>437.54</ele>
        <time>2013-10-27T11:02:26Z</time>
      </trkpt>
      <trkpt lat="41.653011099" lon="2.552124782">
        <ele>438.98</ele>
        <time>2013-10-27T11:02:35Z</time>
      </trkpt>
      <trkpt lat="41.653084357" lon="2.552107683">
        <ele>439.94</ele>
        <time>2013-10-27T11:02:41Z</time>
      </trkpt>
      <trkpt lat="41.653223245" lon="2.552081447">
        <ele>440.90</ele>
        <time>2013-10-27T11:02:52Z</time>
      </trkpt>
      <trkpt lat="41.653340089" lon="2.551984050">
        <ele>444.27</ele>
        <time>2013-10-27T11:03:02Z</time>
      </trkpt>
      <trkpt lat="41.653435978" lon="2.551852370">
        <ele>445.23</ele>
        <time>2013-10-27T11:03:10Z</time>
      </trkpt>
      <trkpt lat="41.653478893" lon="2.551789003">
        <ele>445.23</ele>
        <time>2013-10-27T11:03:14Z</time>
      </trkpt>
      <trkpt lat="41.653499010" lon="2.551717589">
        <ele>446.19</ele>
        <time>2013-10-27T11:03:18Z</time>
      </trkpt>
      <trkpt lat="41.653444695" lon="2.551557159">
        <ele>447.15</ele>
        <time>2013-10-27T11:03:27Z</time>
      </trkpt>
      <trkpt lat="41.653372192" lon="2.551434867">
        <ele>449.07</ele>
        <time>2013-10-27T11:03:37Z</time>
      </trkpt>
      <trkpt lat="41.653333803" lon="2.551327998">
        <ele>450.52</ele>
        <time>2013-10-27T11:03:45Z</time>
      </trkpt>
      <trkpt lat="41.653300359" lon="2.551242838">
        <ele>451.96</ele>
        <time>2013-10-27T11:03:54Z</time>
      </trkpt>
      <trkpt lat="41.653285607" lon="2.551177794">
        <ele>452.92</ele>
        <time>2013-10-27T11:04:02Z</time>
      </trkpt>
      <trkpt lat="41.653280997" lon="2.551094310">
        <ele>454.36</ele>
        <time>2013-10-27T11:04:09Z</time>
      </trkpt>
      <trkpt lat="41.653277979" lon="2.551083582">
        <ele>454.36</ele>
        <time>2013-10-27T11:04:10Z</time>
      </trkpt>
      <trkpt lat="41.653276470" lon="2.550998086">
        <ele>454.84</ele>
        <time>2013-10-27T11:04:17Z</time>
      </trkpt>
      <trkpt lat="41.653291139" lon="2.550934468">
        <ele>454.84</ele>
        <time>2013-10-27T11:04:22Z</time>
      </trkpt>
      <trkpt lat="41.653342185" lon="2.550764734">
        <ele>454.84</ele>
        <time>2013-10-27T11:04:31Z</time>
      </trkpt>
      <trkpt lat="41.653344448" lon="2.550726848">
        <ele>454.84</ele>
        <time>2013-10-27T11:04:33Z</time>
      </trkpt>
      <trkpt lat="41.653382753" lon="2.550647555">
        <ele>454.84</ele>
        <time>2013-10-27T11:04:39Z</time>
      </trkpt>
      <trkpt lat="41.653383591" lon="2.550604640">
        <ele>455.80</ele>
        <time>2013-10-27T11:04:48Z</time>
      </trkpt>
      <trkpt lat="41.653381077" lon="2.550586283">
        <ele>455.80</ele>
        <time>2013-10-27T11:04:50Z</time>
      </trkpt>
      <trkpt lat="41.653356685" lon="2.550487712">
        <ele>454.36</ele>
        <time>2013-10-27T11:04:54Z</time>
      </trkpt>
      <trkpt lat="41.653377389" lon="2.550393919">
        <ele>453.88</ele>
        <time>2013-10-27T11:04:57Z</time>
      </trkpt>
      <trkpt lat="41.653422483" lon="2.550207002">
        <ele>452.92</ele>
        <time>2013-10-27T11:05:03Z</time>
      </trkpt>
      <trkpt lat="41.653484761" lon="2.550015727">
        <ele>451.00</ele>
        <time>2013-10-27T11:05:10Z</time>
      </trkpt>
      <trkpt lat="41.653527508" lon="2.549807772">
        <ele>449.55</ele>
        <time>2013-10-27T11:05:16Z</time>
      </trkpt>
      <trkpt lat="41.653609567" lon="2.549611300">
        <ele>448.11</ele>
        <time>2013-10-27T11:05:21Z</time>
      </trkpt>
      <trkpt lat="41.653699421" lon="2.549531337">
        <ele>448.59</ele>
        <time>2013-10-27T11:05:27Z</time>
      </trkpt>
      <trkpt lat="41.653819618" lon="2.549376942">
        <ele>448.59</ele>
        <time>2013-10-27T11:05:35Z</time>
      </trkpt>
      <trkpt lat="41.653882482" lon="2.549099418">
        <ele>448.59</ele>
        <time>2013-10-27T11:05:41Z</time>
      </trkpt>
      <trkpt lat="41.653919614" lon="2.548853073">
        <ele>450.03</ele>
        <time>2013-10-27T11:05:47Z</time>
      </trkpt>
      <trkpt lat="41.653919782" lon="2.548822731">
        <ele>450.03</ele>
        <time>2013-10-27T11:05:48Z</time>
      </trkpt>
      <trkpt lat="41.653917770" lon="2.548770176">
        <ele>451.48</ele>
        <time>2013-10-27T11:05:50Z</time>
      </trkpt>
      <trkpt lat="41.654026064" lon="2.548574291">
        <ele>450.52</ele>
        <time>2013-10-27T11:05:57Z</time>
      </trkpt>
      <trkpt lat="41.654241060" lon="2.548326355">
        <ele>449.07</ele>
        <time>2013-10-27T11:06:05Z</time>
      </trkpt>
      <trkpt lat="41.654357149" lon="2.548140444">
        <ele>448.59</ele>
        <time>2013-10-27T11:06:10Z</time>
      </trkpt>
      <trkpt lat="41.654475334" lon="2.548013207">
        <ele>446.67</ele>
        <time>2013-10-27T11:06:13Z</time>
      </trkpt>
      <trkpt lat="41.654551190" lon="2.547930058">
        <ele>444.75</ele>
        <time>2013-10-27T11:06:15Z</time>
      </trkpt>
      <trkpt lat="41.654688989" lon="2.547829559">
        <ele>443.31</ele>
        <time>2013-10-27T11:06:20Z</time>
      </trkpt>
      <trkpt lat="41.654806838" lon="2.547751105">
        <ele>442.34</ele>
        <time>2013-10-27T11:06:26Z</time>
      </trkpt>
      <trkpt lat="41.654835085" lon="2.547735263">
        <ele>441.38</ele>
        <time>2013-10-27T11:06:27Z</time>
      </trkpt>
      <trkpt lat="41.655017392" lon="2.547666447">
        <ele>439.94</ele>
        <time>2013-10-27T11:06:33Z</time>
      </trkpt>
      <trkpt lat="41.655149910" lon="2.547616994">
        <ele>438.98</ele>
        <time>2013-10-27T11:06:40Z</time>
      </trkpt>
      <trkpt lat="41.655187461" lon="2.547603164">
        <ele>438.98</ele>
        <time>2013-10-27T11:06:41Z</time>
      </trkpt>
      <trkpt lat="41.655328277" lon="2.547528817">
        <ele>438.50</ele>
        <time>2013-10-27T11:06:45Z</time>
      </trkpt>
      <trkpt lat="41.655369515" lon="2.547361262">
        <ele>438.50</ele>
        <time>2013-10-27T11:06:49Z</time>
      </trkpt>
      <trkpt lat="41.655341268" lon="2.547108799">
        <ele>438.50</ele>
        <time>2013-10-27T11:06:56Z</time>
      </trkpt>
      <trkpt lat="41.655202213" lon="2.547010983">
        <ele>439.94</ele>
        <time>2013-10-27T11:07:03Z</time>
      </trkpt>
      <trkpt lat="41.655109006" lon="2.546931019">
        <ele>440.42</ele>
        <time>2013-10-27T11:07:09Z</time>
      </trkpt>
      <trkpt lat="41.655002807" lon="2.546808057">
        <ele>440.42</ele>
        <time>2013-10-27T11:07:14Z</time>
      </trkpt>
      <trkpt lat="41.654939105" lon="2.546720969">
        <ele>438.98</ele>
        <time>2013-10-27T11:07:16Z</time>
      </trkpt>
      <trkpt lat="41.654755038" lon="2.546558276">
        <ele>436.10</ele>
        <time>2013-10-27T11:07:22Z</time>
      </trkpt>
      <trkpt lat="41.654682199" lon="2.546489712">
        <ele>435.61</ele>
        <time>2013-10-27T11:07:24Z</time>
      </trkpt>
      <trkpt lat="41.654468629" lon="2.546222665">
        <ele>433.69</ele>
        <time>2013-10-27T11:07:30Z</time>
      </trkpt>
      <trkpt lat="41.654359580" lon="2.546159968">
        <ele>433.69</ele>
        <time>2013-10-27T11:07:34Z</time>
      </trkpt>
      <trkpt lat="41.654330411" lon="2.546146473">
        <ele>434.17</ele>
        <time>2013-10-27T11:07:40Z</time>
      </trkpt>
      <trkpt lat="41.654323286" lon="2.546138007">
        <ele>433.69</ele>
        <time>2013-10-27T11:07:52Z</time>
      </trkpt>
      <trkpt lat="41.654318676" lon="2.546123590">
        <ele>433.69</ele>
        <time>2013-10-27T11:08:02Z</time>
      </trkpt>
      <trkpt lat="41.654272241" lon="2.546100121">
        <ele>433.69</ele>
        <time>2013-10-27T11:08:08Z</time>
      </trkpt>
      <trkpt lat="41.654113236" lon="2.546005489">
        <ele>433.69</ele>
        <time>2013-10-27T11:08:15Z</time>
      </trkpt>
      <trkpt lat="41.653976611" lon="2.545911361">
        <ele>435.13</ele>
        <time>2013-10-27T11:08:20Z</time>
      </trkpt>
      <trkpt lat="41.653843841" lon="2.545848077">
        <ele>435.13</ele>
        <time>2013-10-27T11:08:24Z</time>
      </trkpt>
      <trkpt lat="41.653472272" lon="2.545665436">
        <ele>433.21</ele>
        <time>2013-10-27T11:08:33Z</time>
      </trkpt>
      <trkpt lat="41.653297593" lon="2.545547754">
        <ele>434.65</ele>
        <time>2013-10-27T11:08:39Z</time>
      </trkpt>
      <trkpt lat="41.653227772" lon="2.545494361">
        <ele>434.65</ele>
        <time>2013-10-27T11:08:41Z</time>
      </trkpt>
      <trkpt lat="41.653099361" lon="2.545418337">
        <ele>433.21</ele>
        <time>2013-10-27T11:08:44Z</time>
      </trkpt>
      <trkpt lat="41.652889646" lon="2.545253884">
        <ele>431.77</ele>
        <time>2013-10-27T11:08:49Z</time>
      </trkpt>
      <trkpt lat="41.652863662" lon="2.545193702">
        <ele>431.29</ele>
        <time>2013-10-27T11:08:50Z</time>
      </trkpt>
      <trkpt lat="41.652739107" lon="2.544907041">
        <ele>428.89</ele>
        <time>2013-10-27T11:08:55Z</time>
      </trkpt>
      <trkpt lat="41.652499636" lon="2.544693470">
        <ele>428.40</ele>
        <time>2013-10-27T11:09:00Z</time>
      </trkpt>
      <trkpt lat="41.652260835" lon="2.544665055">
        <ele>428.40</ele>
        <time>2013-10-27T11:09:06Z</time>
      </trkpt>
      <trkpt lat="41.652048522" lon="2.544701181">
        <ele>427.92</ele>
        <time>2013-10-27T11:09:12Z</time>
      </trkpt>
      <trkpt lat="41.652016754" lon="2.544680813">
        <ele>427.92</ele>
        <time>2013-10-27T11:09:15Z</time>
      </trkpt>
      <trkpt lat="41.652007115" lon="2.544654578">
        <ele>427.92</ele>
        <time>2013-10-27T11:09:17Z</time>
      </trkpt>
      <trkpt lat="41.652114571" lon="2.544585763">
        <ele>430.33</ele>
        <time>2013-10-27T11:09:25Z</time>
      </trkpt>
      <trkpt lat="41.652284137" lon="2.544501944">
        <ele>431.77</ele>
        <time>2013-10-27T11:09:33Z</time>
      </trkpt>
      <trkpt lat="41.652474322" lon="2.544450563">
        <ele>433.69</ele>
        <time>2013-10-27T11:09:41Z</time>
      </trkpt>
      <trkpt lat="41.652672806" lon="2.544445617">
        <ele>434.17</ele>
        <time>2013-10-27T11:09:49Z</time>
      </trkpt>
      <trkpt lat="41.652831140" lon="2.544442767">
        <ele>435.61</ele>
        <time>2013-10-27T11:09:56Z</time>
      </trkpt>
      <trkpt lat="41.652962065" lon="2.544434302">
        <ele>436.58</ele>
        <time>2013-10-27T11:10:03Z</time>
      </trkpt>
      <trkpt lat="41.653121741" lon="2.544389626">
        <ele>438.02</ele>
        <time>2013-10-27T11:10:12Z</time>
      </trkpt>
      <trkpt lat="41.653294408" lon="2.544372527">
        <ele>439.94</ele>
        <time>2013-10-27T11:10:22Z</time>
      </trkpt>
      <trkpt lat="41.653392560" lon="2.544418544">
        <ele>442.34</ele>
        <time>2013-10-27T11:10:29Z</time>
      </trkpt>
      <trkpt lat="41.653503201" lon="2.544511415">
        <ele>443.79</ele>
        <time>2013-10-27T11:10:36Z</time>
      </trkpt>
      <trkpt lat="41.653565981" lon="2.544538992">
        <ele>444.75</ele>
        <time>2013-10-27T11:10:40Z</time>
      </trkpt>
      <trkpt lat="41.653687770" lon="2.544650052">
        <ele>446.19</ele>
        <time>2013-10-27T11:10:49Z</time>
      </trkpt>
      <trkpt lat="41.653699840" lon="2.544656674">
        <ele>447.15</ele>
        <time>2013-10-27T11:10:50Z</time>
      </trkpt>
      <trkpt lat="41.653736302" lon="2.544587942">
        <ele>447.15</ele>
        <time>2013-10-27T11:10:56Z</time>
      </trkpt>
      <trkpt lat="41.653746779" lon="2.544426842">
        <ele>449.07</ele>
        <time>2013-10-27T11:11:06Z</time>
      </trkpt>
      <trkpt lat="41.653833532" lon="2.544233471">
        <ele>450.03</ele>
        <time>2013-10-27T11:11:15Z</time>
      </trkpt>
      <trkpt lat="41.653961775" lon="2.543947900">
        <ele>450.03</ele>
        <time>2013-10-27T11:11:24Z</time>
      </trkpt>
      <trkpt lat="41.654038385" lon="2.543844048">
        <ele>450.03</ele>
        <time>2013-10-27T11:11:29Z</time>
      </trkpt>
      <trkpt lat="41.654009133" lon="2.543725360">
        <ele>447.63</ele>
        <time>2013-10-27T11:11:34Z</time>
      </trkpt>
      <trkpt lat="41.653981472" lon="2.543676494">
        <ele>447.15</ele>
        <time>2013-10-27T11:11:35Z</time>
      </trkpt>
      <trkpt lat="41.653850128" lon="2.543479268">
        <ele>445.23</ele>
        <time>2013-10-27T11:11:39Z</time>
      </trkpt>
      <trkpt lat="41.653788689" lon="2.543393521">
        <ele>444.75</ele>
        <time>2013-10-27T11:11:41Z</time>
      </trkpt>
      <trkpt lat="41.653676455" lon="2.543194618">
        <ele>440.90</ele>
        <time>2013-10-27T11:11:46Z</time>
      </trkpt>
      <trkpt lat="41.653658937" lon="2.543169472">
        <ele>440.90</ele>
        <time>2013-10-27T11:11:47Z</time>
      </trkpt>
      <trkpt lat="41.653596659" lon="2.543061765">
        <ele>438.98</ele>
        <time>2013-10-27T11:11:50Z</time>
      </trkpt>
      <trkpt lat="41.653551648" lon="2.542964200">
        <ele>438.02</ele>
        <time>2013-10-27T11:11:52Z</time>
      </trkpt>
      <trkpt lat="41.653404043" lon="2.542758592">
        <ele>432.73</ele>
        <time>2013-10-27T11:11:57Z</time>
      </trkpt>
      <trkpt lat="41.653293067" lon="2.542703690">
        <ele>430.81</ele>
        <time>2013-10-27T11:12:00Z</time>
      </trkpt>
      <trkpt lat="41.653212181" lon="2.542648956">
        <ele>428.89</ele>
        <time>2013-10-27T11:12:05Z</time>
      </trkpt>
      <trkpt lat="41.653078322" lon="2.542493556">
        <ele>425.52</ele>
        <time>2013-10-27T11:12:12Z</time>
      </trkpt>
      <trkpt lat="41.653028031" lon="2.542314770">
        <ele>422.64</ele>
        <time>2013-10-27T11:12:16Z</time>
      </trkpt>
      <trkpt lat="41.653029959" lon="2.542203207">
        <ele>420.71</ele>
        <time>2013-10-27T11:12:18Z</time>
      </trkpt>
      <trkpt lat="41.652917390" lon="2.541893998">
        <ele>416.87</ele>
        <time>2013-10-27T11:12:25Z</time>
      </trkpt>
      <trkpt lat="41.652885538" lon="2.541682691">
        <ele>413.02</ele>
        <time>2013-10-27T11:12:30Z</time>
      </trkpt>
      <trkpt lat="41.652832984" lon="2.541564003">
        <ele>411.58</ele>
        <time>2013-10-27T11:12:33Z</time>
      </trkpt>
      <trkpt lat="41.652684121" lon="2.541479597">
        <ele>409.66</ele>
        <time>2013-10-27T11:12:38Z</time>
      </trkpt>
      <trkpt lat="41.652555040" lon="2.541310785">
        <ele>407.74</ele>
        <time>2013-10-27T11:12:43Z</time>
      </trkpt>
      <trkpt lat="41.652434760" lon="2.541205425">
        <ele>406.77</ele>
        <time>2013-10-27T11:12:46Z</time>
      </trkpt>
      <trkpt lat="41.652324538" lon="2.540944915">
        <ele>405.33</ele>
        <time>2013-10-27T11:12:51Z</time>
      </trkpt>
      <trkpt lat="41.652279359" lon="2.540855061">
        <ele>404.37</ele>
        <time>2013-10-27T11:12:53Z</time>
      </trkpt>
      <trkpt lat="41.652126390" lon="2.540564796">
        <ele>400.53</ele>
        <time>2013-10-27T11:12:59Z</time>
      </trkpt>
      <trkpt lat="41.652090180" lon="2.540544680">
        <ele>399.57</ele>
        <time>2013-10-27T11:13:00Z</time>
      </trkpt>
      <trkpt lat="41.651912316" lon="2.540535962">
        <ele>396.20</ele>
        <time>2013-10-27T11:13:05Z</time>
      </trkpt>
      <trkpt lat="41.651766638" lon="2.540500423">
        <ele>392.84</ele>
        <time>2013-10-27T11:13:09Z</time>
      </trkpt>
      <trkpt lat="41.651733278" lon="2.540474439">
        <ele>392.84</ele>
        <time>2013-10-27T11:13:10Z</time>
      </trkpt>
      <trkpt lat="41.651660188" lon="2.540409563">
        <ele>391.87</ele>
        <time>2013-10-27T11:13:12Z</time>
      </trkpt>
      <trkpt lat="41.651594306" lon="2.540330606">
        <ele>390.43</ele>
        <time>2013-10-27T11:13:14Z</time>
      </trkpt>
      <trkpt lat="41.651405797" lon="2.540103875">
        <ele>387.55</ele>
        <time>2013-10-27T11:13:19Z</time>
      </trkpt>
      <trkpt lat="41.651379059" lon="2.540070264">
        <ele>386.59</ele>
        <time>2013-10-27T11:13:20Z</time>
      </trkpt>
      <trkpt lat="41.651288870" lon="2.540095829">
        <ele>385.15</ele>
        <time>2013-10-27T11:13:24Z</time>
      </trkpt>
      <trkpt lat="41.651290965" lon="2.540130949">
        <ele>385.15</ele>
        <time>2013-10-27T11:13:25Z</time>
      </trkpt>
      <trkpt lat="41.651318374" lon="2.540222228">
        <ele>384.18</ele>
        <time>2013-10-27T11:13:27Z</time>
      </trkpt>
      <trkpt lat="41.651383753" lon="2.540538812">
        <ele>379.86</ele>
        <time>2013-10-27T11:13:32Z</time>
      </trkpt>
      <trkpt lat="41.651422896" lon="2.540846512">
        <ele>377.45</ele>
        <time>2013-10-27T11:13:35Z</time>
      </trkpt>
      <trkpt lat="41.651464135" lon="2.541042984">
        <ele>376.49</ele>
        <time>2013-10-27T11:13:37Z</time>
      </trkpt>
      <trkpt lat="41.651507302" lon="2.541327046">
        <ele>376.49</ele>
        <time>2013-10-27T11:13:41Z</time>
      </trkpt>
      <trkpt lat="41.651423902" lon="2.541359065">
        <ele>376.49</ele>
        <time>2013-10-27T11:13:44Z</time>
      </trkpt>
      <trkpt lat="41.651388447" lon="2.541341882">
        <ele>376.49</ele>
        <time>2013-10-27T11:13:45Z</time>
      </trkpt>
      <trkpt lat="41.651195244" lon="2.541211208">
        <ele>377.45</ele>
        <time>2013-10-27T11:13:52Z</time>
      </trkpt>
      <trkpt lat="41.650995000" lon="2.541102244">
        <ele>379.86</ele>
        <time>2013-10-27T11:14:00Z</time>
      </trkpt>
      <trkpt lat="41.650846138" lon="2.540931421">
        <ele>380.82</ele>
        <time>2013-10-27T11:14:07Z</time>
      </trkpt>
      <trkpt lat="41.650776568" lon="2.540870316">
        <ele>380.82</ele>
        <time>2013-10-27T11:14:10Z</time>
      </trkpt>
      <trkpt lat="41.650662406" lon="2.540914741">
        <ele>381.30</ele>
        <time>2013-10-27T11:14:15Z</time>
      </trkpt>
      <trkpt lat="41.650566266" lon="2.541027980">
        <ele>381.78</ele>
        <time>2013-10-27T11:14:20Z</time>
      </trkpt>
      <trkpt lat="41.650444561" lon="2.540913232">
        <ele>380.34</ele>
        <time>2013-10-27T11:14:25Z</time>
      </trkpt>
      <trkpt lat="41.650428970" lon="2.540863862">
        <ele>380.34</ele>
        <time>2013-10-27T11:14:26Z</time>
      </trkpt>
      <trkpt lat="41.650393682" lon="2.540615507">
        <ele>377.94</ele>
        <time>2013-10-27T11:14:31Z</time>
      </trkpt>
      <trkpt lat="41.650320341" lon="2.540214433">
        <ele>373.61</ele>
        <time>2013-10-27T11:14:36Z</time>
      </trkpt>
      <trkpt lat="41.650303158" lon="2.540140756">
        <ele>373.13</ele>
        <time>2013-10-27T11:14:37Z</time>
      </trkpt>
      <trkpt lat="41.650225709" lon="2.539935734">
        <ele>370.73</ele>
        <time>2013-10-27T11:14:40Z</time>
      </trkpt>
      <trkpt lat="41.650138537" lon="2.539745884">
        <ele>366.88</ele>
        <time>2013-10-27T11:14:44Z</time>
      </trkpt>
      <trkpt lat="41.650032087" lon="2.539664831">
        <ele>364.00</ele>
        <time>2013-10-27T11:14:49Z</time>
      </trkpt>
      <trkpt lat="41.649912477" lon="2.539707160">
        <ele>360.63</ele>
        <time>2013-10-27T11:14:54Z</time>
      </trkpt>
      <trkpt lat="41.649836034" lon="2.539742028">
        <ele>359.67</ele>
        <time>2013-10-27T11:14:56Z</time>
      </trkpt>
      <trkpt lat="41.649655824" lon="2.539711183">
        <ele>359.19</ele>
        <time>2013-10-27T11:15:01Z</time>
      </trkpt>
      <trkpt lat="41.649620955" lon="2.539598614">
        <ele>359.19</ele>
        <time>2013-10-27T11:15:04Z</time>
      </trkpt>
      <trkpt lat="41.649565131" lon="2.539365597">
        <ele>361.11</ele>
        <time>2013-10-27T11:15:10Z</time>
      </trkpt>
      <trkpt lat="41.649395398" lon="2.539004756">
        <ele>356.79</ele>
        <time>2013-10-27T11:15:16Z</time>
      </trkpt>
      <trkpt lat="41.649199764" lon="2.538707869">
        <ele>352.94</ele>
        <time>2013-10-27T11:15:20Z</time>
      </trkpt>
      <trkpt lat="41.649092811" lon="2.538548948">
        <ele>351.50</ele>
        <time>2013-10-27T11:15:22Z</time>
      </trkpt>
      <trkpt lat="41.648974710" lon="2.538418694">
        <ele>350.54</ele>
        <time>2013-10-27T11:15:24Z</time>
      </trkpt>
      <trkpt lat="41.648767426" lon="2.538364630">
        <ele>349.58</ele>
        <time>2013-10-27T11:15:28Z</time>
      </trkpt>
      <trkpt lat="41.648649241" lon="2.538420705">
        <ele>348.13</ele>
        <time>2013-10-27T11:15:31Z</time>
      </trkpt>
      <trkpt lat="41.648484620" lon="2.538581051">
        <ele>344.77</ele>
        <time>2013-10-27T11:15:35Z</time>
      </trkpt>
      <trkpt lat="41.648433910" lon="2.538597228">
        <ele>344.77</ele>
        <time>2013-10-27T11:15:36Z</time>
      </trkpt>
      <trkpt lat="41.648313965" lon="2.538524808">
        <ele>344.29</ele>
        <time>2013-10-27T11:15:39Z</time>
      </trkpt>
      <trkpt lat="41.648263673" lon="2.538382568">
        <ele>344.29</ele>
        <time>2013-10-27T11:15:42Z</time>
      </trkpt>
      <trkpt lat="41.648221428" lon="2.538094314">
        <ele>343.81</ele>
        <time>2013-10-27T11:15:47Z</time>
      </trkpt>
      <trkpt lat="41.648226039" lon="2.537947547">
        <ele>342.85</ele>
        <time>2013-10-27T11:15:49Z</time>
      </trkpt>
      <trkpt lat="41.648302733" lon="2.537461480">
        <ele>339.96</ele>
        <time>2013-10-27T11:15:55Z</time>
      </trkpt>
      <trkpt lat="41.648318072" lon="2.537378248">
        <ele>339.48</ele>
        <time>2013-10-27T11:15:56Z</time>
      </trkpt>
      <trkpt lat="41.648388899" lon="2.537165515">
        <ele>337.56</ele>
        <time>2013-10-27T11:15:59Z</time>
      </trkpt>
      <trkpt lat="41.648451847" lon="2.536943311">
        <ele>334.20</ele>
        <time>2013-10-27T11:16:03Z</time>
      </trkpt>
      <trkpt lat="41.648354868" lon="2.536778858">
        <ele>330.83</ele>
        <time>2013-10-27T11:16:06Z</time>
      </trkpt>
      <trkpt lat="41.648244311" lon="2.536688501">
        <ele>328.43</ele>
        <time>2013-10-27T11:16:09Z</time>
      </trkpt>
      <trkpt lat="41.648104752" lon="2.536590265">
        <ele>324.10</ele>
        <time>2013-10-27T11:16:12Z</time>
      </trkpt>
      <trkpt lat="41.648051611" lon="2.536551625">
        <ele>323.14</ele>
        <time>2013-10-27T11:16:13Z</time>
      </trkpt>
      <trkpt lat="41.647927140" lon="2.536457244">
        <ele>322.18</ele>
        <time>2013-10-27T11:16:16Z</time>
      </trkpt>
      <trkpt lat="41.647829407" lon="2.536507620">
        <ele>320.26</ele>
        <time>2013-10-27T11:16:19Z</time>
      </trkpt>
      <trkpt lat="41.647798897" lon="2.536570400">
        <ele>319.78</ele>
        <time>2013-10-27T11:16:20Z</time>
      </trkpt>
      <trkpt lat="41.647645256" lon="2.536785312">
        <ele>316.41</ele>
        <time>2013-10-27T11:16:25Z</time>
      </trkpt>
      <trkpt lat="41.647554229" lon="2.536768548">
        <ele>315.45</ele>
        <time>2013-10-27T11:16:27Z</time>
      </trkpt>
      <trkpt lat="41.647422382" lon="2.536647262">
        <ele>313.05</ele>
        <time>2013-10-27T11:16:30Z</time>
      </trkpt>
      <trkpt lat="41.647154245" lon="2.536560426">
        <ele>310.16</ele>
        <time>2013-10-27T11:16:36Z</time>
      </trkpt>
      <trkpt lat="41.647103534" lon="2.536593786">
        <ele>309.68</ele>
        <time>2013-10-27T11:16:37Z</time>
      </trkpt>
      <trkpt lat="41.646783094" lon="2.536789168">
        <ele>307.76</ele>
        <time>2013-10-27T11:16:43Z</time>
      </trkpt>
      <trkpt lat="41.646655773" lon="2.536861587">
        <ele>305.36</ele>
        <time>2013-10-27T11:16:46Z</time>
      </trkpt>
      <trkpt lat="41.646572038" lon="2.536774667">
        <ele>303.91</ele>
        <time>2013-10-27T11:16:50Z</time>
      </trkpt>
      <trkpt lat="41.646618389" lon="2.536665032">
        <ele>302.95</ele>
        <time>2013-10-27T11:16:52Z</time>
      </trkpt>
      <trkpt lat="41.646848892" lon="2.536332606">
        <ele>298.63</ele>
        <time>2013-10-27T11:16:57Z</time>
      </trkpt>
      <trkpt lat="41.646895495" lon="2.536280973">
        <ele>298.15</ele>
        <time>2013-10-27T11:16:58Z</time>
      </trkpt>
      <trkpt lat="41.647024828" lon="2.536104031">
        <ele>296.70</ele>
        <time>2013-10-27T11:17:01Z</time>
      </trkpt>
      <trkpt lat="41.647105713" lon="2.535957851">
        <ele>295.74</ele>
        <time>2013-10-27T11:17:03Z</time>
      </trkpt>
      <trkpt lat="41.647212247" lon="2.535679152">
        <ele>293.82</ele>
        <time>2013-10-27T11:17:06Z</time>
      </trkpt>
      <trkpt lat="41.647353231" lon="2.535237594">
        <ele>289.97</ele>
        <time>2013-10-27T11:17:10Z</time>
      </trkpt>
      <trkpt lat="41.647508129" lon="2.534903659">
        <ele>287.57</ele>
        <time>2013-10-27T11:17:13Z</time>
      </trkpt>
      <trkpt lat="41.647628241" lon="2.534441145">
        <ele>282.28</ele>
        <time>2013-10-27T11:17:17Z</time>
      </trkpt>
      <trkpt lat="41.647608460" lon="2.533924485">
        <ele>276.52</ele>
        <time>2013-10-27T11:17:23Z</time>
      </trkpt>
      <trkpt lat="41.647593121" lon="2.533812670">
        <ele>276.04</ele>
        <time>2013-10-27T11:17:24Z</time>
      </trkpt>
      <trkpt lat="41.647450545" lon="2.533455601">
        <ele>275.07</ele>
        <time>2013-10-27T11:17:28Z</time>
      </trkpt>
      <trkpt lat="41.647244350" lon="2.533057964">
        <ele>274.59</ele>
        <time>2013-10-27T11:17:33Z</time>
      </trkpt>
      <trkpt lat="41.647250888" lon="2.532535352">
        <ele>273.63</ele>
        <time>2013-10-27T11:17:39Z</time>
      </trkpt>
      <trkpt lat="41.647284499" lon="2.531683667">
        <ele>269.31</ele>
        <time>2013-10-27T11:17:48Z</time>
      </trkpt>
      <trkpt lat="41.647280895" lon="2.531590125">
        <ele>269.31</ele>
        <time>2013-10-27T11:17:49Z</time>
      </trkpt>
      <trkpt lat="41.647275195" lon="2.531488117">
        <ele>267.86</ele>
        <time>2013-10-27T11:17:50Z</time>
      </trkpt>
      <trkpt lat="41.647294893" lon="2.531134065">
        <ele>265.46</ele>
        <time>2013-10-27T11:17:53Z</time>
      </trkpt>
      <trkpt lat="41.647297994" lon="2.530914962">
        <ele>264.98</ele>
        <time>2013-10-27T11:17:55Z</time>
      </trkpt>
      <trkpt lat="41.647238818" lon="2.530175679">
        <ele>263.54</ele>
        <time>2013-10-27T11:18:03Z</time>
      </trkpt>
      <trkpt lat="41.647226916" lon="2.529993624">
        <ele>263.06</ele>
        <time>2013-10-27T11:18:05Z</time>
      </trkpt>
      <trkpt lat="41.647085345" lon="2.529623982">
        <ele>263.06</ele>
        <time>2013-10-27T11:18:11Z</time>
      </trkpt>
      <trkpt lat="41.646989121" lon="2.529362634">
        <ele>262.58</ele>
        <time>2013-10-27T11:18:15Z</time>
      </trkpt>
      <trkpt lat="41.646810335" lon="2.528859804">
        <ele>261.62</ele>
        <time>2013-10-27T11:18:21Z</time>
      </trkpt>
      <trkpt lat="41.646670022" lon="2.528055476">
        <ele>259.21</ele>
        <time>2013-10-27T11:18:30Z</time>
      </trkpt>
      <trkpt lat="41.646570194" lon="2.527358772">
        <ele>256.81</ele>
        <time>2013-10-27T11:18:37Z</time>
      </trkpt>
      <trkpt lat="41.646455529" lon="2.526838675">
        <ele>255.37</ele>
        <time>2013-10-27T11:18:42Z</time>
      </trkpt>
      <trkpt lat="41.646469192" lon="2.526314639">
        <ele>253.44</ele>
        <time>2013-10-27T11:18:47Z</time>
      </trkpt>
      <trkpt lat="41.646571367" lon="2.525686331">
        <ele>252.00</ele>
        <time>2013-10-27T11:18:53Z</time>
      </trkpt>
      <trkpt lat="41.646562985" lon="2.525567811">
        <ele>251.52</ele>
        <time>2013-10-27T11:18:54Z</time>
      </trkpt>
      <trkpt lat="41.646500288" lon="2.524935061">
        <ele>250.56</ele>
        <time>2013-10-27T11:19:00Z</time>
      </trkpt>
      <trkpt lat="41.646401633" lon="2.524275992">
        <ele>250.56</ele>
        <time>2013-10-27T11:19:07Z</time>
      </trkpt>
      <trkpt lat="41.646286131" lon="2.523752207">
        <ele>250.08</ele>
        <time>2013-10-27T11:19:13Z</time>
      </trkpt>
      <trkpt lat="41.646252771" lon="2.523393713">
        <ele>250.08</ele>
        <time>2013-10-27T11:19:18Z</time>
      </trkpt>
      <trkpt lat="41.646324771" lon="2.522958608">
        <ele>250.08</ele>
        <time>2013-10-27T11:19:24Z</time>
      </trkpt>
      <trkpt lat="41.646404819" lon="2.522475476">
        <ele>248.64</ele>
        <time>2013-10-27T11:19:29Z</time>
      </trkpt>
      <trkpt lat="41.646526775" lon="2.521647260">
        <ele>246.23</ele>
        <time>2013-10-27T11:19:38Z</time>
      </trkpt>
      <trkpt lat="41.646592657" lon="2.521230847">
        <ele>246.23</ele>
        <time>2013-10-27T11:19:43Z</time>
      </trkpt>
      <trkpt lat="41.646600871" lon="2.521073351">
        <ele>246.23</ele>
        <time>2013-10-27T11:19:45Z</time>
      </trkpt>
      <trkpt lat="41.646660299" lon="2.520780068">
        <ele>246.23</ele>
        <time>2013-10-27T11:19:49Z</time>
      </trkpt>
      <trkpt lat="41.646819388" lon="2.520159053">
        <ele>244.31</ele>
        <time>2013-10-27T11:19:56Z</time>
      </trkpt>
      <trkpt lat="41.646920306" lon="2.519485902">
        <ele>241.91</ele>
        <time>2013-10-27T11:20:02Z</time>
      </trkpt>
      <trkpt lat="41.646891304" lon="2.519159595">
        <ele>240.95</ele>
        <time>2013-10-27T11:20:05Z</time>
      </trkpt>
      <trkpt lat="41.646912510" lon="2.518834377">
        <ele>239.51</ele>
        <time>2013-10-27T11:20:08Z</time>
      </trkpt>
      <trkpt lat="41.646943356" lon="2.518736728">
        <ele>239.02</ele>
        <time>2013-10-27T11:20:09Z</time>
      </trkpt>
      <trkpt lat="41.647043017" lon="2.518454928">
        <ele>237.58</ele>
        <time>2013-10-27T11:20:12Z</time>
      </trkpt>
      <trkpt lat="41.647072605" lon="2.518353339">
        <ele>236.62</ele>
        <time>2013-10-27T11:20:13Z</time>
      </trkpt>
      <trkpt lat="41.647115101" lon="2.518136919">
        <ele>235.66</ele>
        <time>2013-10-27T11:20:15Z</time>
      </trkpt>
      <trkpt lat="41.647132871" lon="2.518026697">
        <ele>235.66</ele>
        <time>2013-10-27T11:20:16Z</time>
      </trkpt>
      <trkpt lat="41.647120633" lon="2.517261764">
        <ele>234.22</ele>
        <time>2013-10-27T11:20:23Z</time>
      </trkpt>
      <trkpt lat="41.647045280" lon="2.516827498">
        <ele>234.22</ele>
        <time>2013-10-27T11:20:28Z</time>
      </trkpt>
      <trkpt lat="41.646953498" lon="2.516513595">
        <ele>235.66</ele>
        <time>2013-10-27T11:20:32Z</time>
      </trkpt>
      <trkpt lat="41.646828021" lon="2.516257445">
        <ele>236.14</ele>
        <time>2013-10-27T11:20:36Z</time>
      </trkpt>
      <trkpt lat="41.646559549" lon="2.515930299">
        <ele>236.14</ele>
        <time>2013-10-27T11:20:43Z</time>
      </trkpt>
      <trkpt lat="41.646469275" lon="2.515819658">
        <ele>234.70</ele>
        <time>2013-10-27T11:20:46Z</time>
      </trkpt>
      <trkpt lat="41.646286801" lon="2.515606422">
        <ele>233.26</ele>
        <time>2013-10-27T11:20:53Z</time>
      </trkpt>
      <trkpt lat="41.646204323" lon="2.515579600">
        <ele>233.26</ele>
        <time>2013-10-27T11:20:56Z</time>
      </trkpt>
      <trkpt lat="41.646086725" lon="2.515689319">
        <ele>233.26</ele>
        <time>2013-10-27T11:21:03Z</time>
      </trkpt>
      <trkpt lat="41.646000895" lon="2.515721925">
        <ele>231.33</ele>
        <time>2013-10-27T11:21:09Z</time>
      </trkpt>
      <trkpt lat="41.645889583" lon="2.515871206">
        <ele>229.89</ele>
        <time>2013-10-27T11:21:16Z</time>
      </trkpt>
      <trkpt lat="41.645883213" lon="2.515874475">
        <ele>229.89</ele>
        <time>2013-10-27T11:21:17Z</time>
      </trkpt>
      <trkpt lat="41.645783217" lon="2.515842540">
        <ele>228.45</ele>
        <time>2013-10-27T11:21:24Z</time>
      </trkpt>
      <trkpt lat="41.645756646" lon="2.515815718">
        <ele>229.89</ele>
        <time>2013-10-27T11:21:27Z</time>
      </trkpt>
      <trkpt lat="41.645707863" lon="2.515769282">
        <ele>230.85</ele>
        <time>2013-10-27T11:21:30Z</time>
      </trkpt>
      <trkpt lat="41.645569646" lon="2.515695186">
        <ele>231.33</ele>
        <time>2013-10-27T11:21:38Z</time>
      </trkpt>
      <trkpt lat="41.645438469" lon="2.515577169">
        <ele>232.78</ele>
        <time>2013-10-27T11:21:47Z</time>
      </trkpt>
      <trkpt lat="41.645359344" lon="2.515486729">
        <ele>234.22</ele>
        <time>2013-10-27T11:21:54Z</time>
      </trkpt>
      <trkpt lat="41.645292875" lon="2.515285730">
        <ele>235.18</ele>
        <time>2013-10-27T11:22:03Z</time>
      </trkpt>
      <trkpt lat="41.645212744" lon="2.515136533">
        <ele>236.14</ele>
        <time>2013-10-27T11:22:11Z</time>
      </trkpt>
      <trkpt lat="41.645114425" lon="2.514989933">
        <ele>237.10</ele>
        <time>2013-10-27T11:22:19Z</time>
      </trkpt>
      <trkpt lat="41.644993558" lon="2.514848028">
        <ele>239.02</ele>
        <time>2013-10-27T11:22:29Z</time>
      </trkpt>
      <trkpt lat="41.644906805" lon="2.514772590">
        <ele>240.95</ele>
        <time>2013-10-27T11:22:37Z</time>
      </trkpt>
      <trkpt lat="41.644815191" lon="2.514706122">
        <ele>242.39</ele>
        <time>2013-10-27T11:22:46Z</time>
      </trkpt>
      <trkpt lat="41.644742352" lon="2.514657674">
        <ele>243.35</ele>
        <time>2013-10-27T11:22:54Z</time>
      </trkpt>
      <trkpt lat="41.644645625" lon="2.514629763">
        <ele>244.31</ele>
        <time>2013-10-27T11:23:02Z</time>
      </trkpt>
      <trkpt lat="41.644494499" lon="2.514639067">
        <ele>245.27</ele>
        <time>2013-10-27T11:23:11Z</time>
      </trkpt>
      <trkpt lat="41.644366088" lon="2.514652729">
        <ele>246.23</ele>
        <time>2013-10-27T11:23:18Z</time>
      </trkpt>
      <trkpt lat="41.644202390" lon="2.514633535">
        <ele>246.72</ele>
        <time>2013-10-27T11:23:27Z</time>
      </trkpt>
      <trkpt lat="41.644089402" lon="2.514615765">
        <ele>248.16</ele>
        <time>2013-10-27T11:23:35Z</time>
      </trkpt>
      <trkpt lat="41.643966858" lon="2.514601851">
        <ele>251.04</ele>
        <time>2013-10-27T11:23:44Z</time>
      </trkpt>
      <trkpt lat="41.643859486" lon="2.514582656">
        <ele>252.48</ele>
        <time>2013-10-27T11:23:51Z</time>
      </trkpt>
      <trkpt lat="41.643708528" lon="2.514557008">
        <ele>253.93</ele>
        <time>2013-10-27T11:24:01Z</time>
      </trkpt>
      <trkpt lat="41.643570646" lon="2.514536472">
        <ele>255.37</ele>
        <time>2013-10-27T11:24:10Z</time>
      </trkpt>
      <trkpt lat="41.643458999" lon="2.514493892">
        <ele>256.33</ele>
        <time>2013-10-27T11:24:18Z</time>
      </trkpt>
      <trkpt lat="41.643426142" lon="2.514479391">
        <ele>256.33</ele>
        <time>2013-10-27T11:24:20Z</time>
      </trkpt>
      <trkpt lat="41.643301587" lon="2.514441170">
        <ele>257.77</ele>
        <time>2013-10-27T11:24:28Z</time>
      </trkpt>
      <trkpt lat="41.643161190" lon="2.514399428">
        <ele>258.73</ele>
        <time>2013-10-27T11:24:37Z</time>
      </trkpt>
      <trkpt lat="41.643028839" lon="2.514351316">
        <ele>260.65</ele>
        <time>2013-10-27T11:24:46Z</time>
      </trkpt>
      <trkpt lat="41.642974106" lon="2.514329020">
        <ele>261.14</ele>
        <time>2013-10-27T11:24:50Z</time>
      </trkpt>
      <trkpt lat="41.642916773" lon="2.514303036">
        <ele>261.62</ele>
        <time>2013-10-27T11:24:54Z</time>
      </trkpt>
      <trkpt lat="41.642760367" lon="2.514203040">
        <ele>263.06</ele>
        <time>2013-10-27T11:25:05Z</time>
      </trkpt>
      <trkpt lat="41.642675458" lon="2.514126597">
        <ele>264.50</ele>
        <time>2013-10-27T11:25:12Z</time>
      </trkpt>
      <trkpt lat="41.642575714" lon="2.514034229">
        <ele>266.42</ele>
        <time>2013-10-27T11:25:20Z</time>
      </trkpt>
      <trkpt lat="41.642544365" lon="2.514009334">
        <ele>267.38</ele>
        <time>2013-10-27T11:25:23Z</time>
      </trkpt>
      <trkpt lat="41.642426600" lon="2.513919229">
        <ele>268.35</ele>
        <time>2013-10-27T11:25:30Z</time>
      </trkpt>
      <trkpt lat="41.642414111" lon="2.513904560">
        <ele>268.35</ele>
        <time>2013-10-27T11:25:31Z</time>
      </trkpt>
      <trkpt lat="41.642306487" lon="2.513774222">
        <ele>269.31</ele>
        <time>2013-10-27T11:25:40Z</time>
      </trkpt>
      <trkpt lat="41.642269774" lon="2.513736587">
        <ele>269.79</ele>
        <time>2013-10-27T11:25:42Z</time>
      </trkpt>
      <trkpt lat="41.642113452" lon="2.513562244">
        <ele>271.71</ele>
        <time>2013-10-27T11:25:51Z</time>
      </trkpt>
      <trkpt lat="41.642008007" lon="2.513445735">
        <ele>273.63</ele>
        <time>2013-10-27T11:25:59Z</time>
      </trkpt>
      <trkpt lat="41.641975653" lon="2.513410196">
        <ele>274.11</ele>
        <time>2013-10-27T11:26:02Z</time>
      </trkpt>
      <trkpt lat="41.641904491" lon="2.513305590">
        <ele>275.56</ele>
        <time>2013-10-27T11:26:10Z</time>
      </trkpt>
      <trkpt lat="41.641833832" lon="2.513176173">
        <ele>277.48</ele>
        <time>2013-10-27T11:26:18Z</time>
      </trkpt>
      <trkpt lat="41.641768620" lon="2.513044745">
        <ele>279.40</ele>
        <time>2013-10-27T11:26:26Z</time>
      </trkpt>
      <trkpt lat="41.641709109" lon="2.512903845">
        <ele>280.84</ele>
        <time>2013-10-27T11:26:35Z</time>
      </trkpt>
      <trkpt lat="41.641625793" lon="2.512784738">
        <ele>282.77</ele>
        <time>2013-10-27T11:26:43Z</time>
      </trkpt>
      <trkpt lat="41.641534514" lon="2.512807621">
        <ele>284.69</ele>
        <time>2013-10-27T11:26:52Z</time>
      </trkpt>
      <trkpt lat="41.641499058" lon="2.512927231">
        <ele>285.65</ele>
        <time>2013-10-27T11:27:00Z</time>
      </trkpt>
      <trkpt lat="41.641502830" lon="2.513078524">
        <ele>286.61</ele>
        <time>2013-10-27T11:27:09Z</time>
      </trkpt>
      <trkpt lat="41.641520684" lon="2.513171395">
        <ele>287.09</ele>
        <time>2013-10-27T11:27:14Z</time>
      </trkpt>
      <trkpt lat="41.641522444" lon="2.513250604">
        <ele>288.05</ele>
        <time>2013-10-27T11:27:18Z</time>
      </trkpt>
      <trkpt lat="41.641497885" lon="2.513431234">
        <ele>290.94</ele>
        <time>2013-10-27T11:27:29Z</time>
      </trkpt>
      <trkpt lat="41.641421526" lon="2.513517400">
        <ele>290.94</ele>
        <time>2013-10-27T11:27:36Z</time>
      </trkpt>
      <trkpt lat="41.641327648" lon="2.513611194">
        <ele>291.90</ele>
        <time>2013-10-27T11:27:44Z</time>
      </trkpt>
      <trkpt lat="41.641279620" lon="2.513649080">
        <ele>293.34</ele>
        <time>2013-10-27T11:27:48Z</time>
      </trkpt>
      <trkpt lat="41.641223461" lon="2.513599124">
        <ele>294.30</ele>
        <time>2013-10-27T11:27:54Z</time>
      </trkpt>
      <trkpt lat="41.641255564" lon="2.513478844">
        <ele>295.74</ele>
        <time>2013-10-27T11:28:01Z</time>
      </trkpt>
      <trkpt lat="41.641293450" lon="2.513345236">
        <ele>296.70</ele>
        <time>2013-10-27T11:28:10Z</time>
      </trkpt>
      <trkpt lat="41.641322200" lon="2.513212718">
        <ele>297.67</ele>
        <time>2013-10-27T11:28:17Z</time>
      </trkpt>
      <trkpt lat="41.641318009" lon="2.513131581">
        <ele>298.63</ele>
        <time>2013-10-27T11:28:22Z</time>
      </trkpt>
      <trkpt lat="41.641285823" lon="2.513093695">
        <ele>299.11</ele>
        <time>2013-10-27T11:28:26Z</time>
      </trkpt>
      <trkpt lat="41.641264030" lon="2.513113393">
        <ele>299.59</ele>
        <time>2013-10-27T11:28:29Z</time>
      </trkpt>
      <trkpt lat="41.641217510" lon="2.513235014">
        <ele>301.51</ele>
        <time>2013-10-27T11:28:38Z</time>
      </trkpt>
      <trkpt lat="41.641122124" lon="2.513333166">
        <ele>302.95</ele>
        <time>2013-10-27T11:28:46Z</time>
      </trkpt>
      <trkpt lat="41.640979632" lon="2.513444897">
        <ele>304.88</ele>
        <time>2013-10-27T11:28:56Z</time>
      </trkpt>
      <trkpt lat="41.640904195" lon="2.513514886">
        <ele>305.84</ele>
        <time>2013-10-27T11:29:02Z</time>
      </trkpt>
      <trkpt lat="41.640772347" lon="2.513694426">
        <ele>308.24</ele>
        <time>2013-10-27T11:29:13Z</time>
      </trkpt>
      <trkpt lat="41.640777879" lon="2.513839517">
        <ele>309.20</ele>
        <time>2013-10-27T11:29:19Z</time>
      </trkpt>
      <trkpt lat="41.640847952" lon="2.514039593">
        <ele>310.16</ele>
        <time>2013-10-27T11:29:27Z</time>
      </trkpt>
      <trkpt lat="41.640847198" lon="2.514212847">
        <ele>310.64</ele>
        <time>2013-10-27T11:29:33Z</time>
      </trkpt>
      <trkpt lat="41.640814173" lon="2.514390040">
        <ele>311.12</ele>
        <time>2013-10-27T11:29:39Z</time>
      </trkpt>
      <trkpt lat="41.640744268" lon="2.514669409">
        <ele>311.60</ele>
        <time>2013-10-27T11:29:48Z</time>
      </trkpt>
      <trkpt lat="41.640669418" lon="2.514823469">
        <ele>312.57</ele>
        <time>2013-10-27T11:29:55Z</time>
      </trkpt>
      <trkpt lat="41.640652905" lon="2.514841909">
        <ele>312.57</ele>
        <time>2013-10-27T11:29:56Z</time>
      </trkpt>
      <trkpt lat="41.640516280" lon="2.514831599">
        <ele>313.53</ele>
        <time>2013-10-27T11:30:03Z</time>
      </trkpt>
      <trkpt lat="41.640437574" lon="2.514747948">
        <ele>314.01</ele>
        <time>2013-10-27T11:30:08Z</time>
      </trkpt>
      <trkpt lat="41.640365993" lon="2.514615178">
        <ele>314.97</ele>
        <time>2013-10-27T11:30:15Z</time>
      </trkpt>
      <trkpt lat="41.640332465" lon="2.514555751">
        <ele>315.45</ele>
        <time>2013-10-27T11:30:19Z</time>
      </trkpt>
      <trkpt lat="41.640286448" lon="2.514476206">
        <ele>315.93</ele>
        <time>2013-10-27T11:30:24Z</time>
      </trkpt>
      <trkpt lat="41.640155272" lon="2.514329020">
        <ele>316.89</ele>
        <time>2013-10-27T11:30:33Z</time>
      </trkpt>
      <trkpt lat="41.640137837" lon="2.514317034">
        <ele>317.37</ele>
        <time>2013-10-27T11:30:34Z</time>
      </trkpt>
      <trkpt lat="41.640033231" lon="2.514297672">
        <ele>318.33</ele>
        <time>2013-10-27T11:30:40Z</time>
      </trkpt>
      <trkpt lat="41.639930888" lon="2.514353747">
        <ele>320.26</ele>
        <time>2013-10-27T11:30:47Z</time>
      </trkpt>
      <trkpt lat="41.639873221" lon="2.514414515">
        <ele>321.22</ele>
        <time>2013-10-27T11:30:52Z</time>
      </trkpt>
      <trkpt lat="41.639751767" lon="2.514540160">
        <ele>322.66</ele>
        <time>2013-10-27T11:31:01Z</time>
      </trkpt>
      <trkpt lat="41.639656716" lon="2.514676618">
        <ele>324.10</ele>
        <time>2013-10-27T11:31:09Z</time>
      </trkpt>
      <trkpt lat="41.639569293" lon="2.514846183">
        <ele>324.58</ele>
        <time>2013-10-27T11:31:17Z</time>
      </trkpt>
      <trkpt lat="41.639450605" lon="2.514993370">
        <ele>326.02</ele>
        <time>2013-10-27T11:31:27Z</time>
      </trkpt>
      <trkpt lat="41.639315656" lon="2.514969146">
        <ele>326.99</ele>
        <time>2013-10-27T11:31:35Z</time>
      </trkpt>
      <trkpt lat="41.639130500" lon="2.514952131">
        <ele>327.95</ele>
        <time>2013-10-27T11:31:45Z</time>
      </trkpt>
      <trkpt lat="41.638962778" lon="2.515095210">
        <ele>329.87</ele>
        <time>2013-10-27T11:31:56Z</time>
      </trkpt>
      <trkpt lat="41.638859848" lon="2.515238289">
        <ele>330.35</ele>
        <time>2013-10-27T11:32:04Z</time>
      </trkpt>
      <trkpt lat="41.638769911" lon="2.515399724">
        <ele>330.83</ele>
        <time>2013-10-27T11:32:12Z</time>
      </trkpt>
      <trkpt lat="41.638666729" lon="2.515551604">
        <ele>331.79</ele>
        <time>2013-10-27T11:32:20Z</time>
      </trkpt>
      <trkpt lat="41.638532451" lon="2.515560825">
        <ele>332.75</ele>
        <time>2013-10-27T11:32:27Z</time>
      </trkpt>
      <trkpt lat="41.638385517" lon="2.515405843">
        <ele>333.23</ele>
        <time>2013-10-27T11:32:36Z</time>
      </trkpt>
      <trkpt lat="41.638230032" lon="2.515279360">
        <ele>332.75</ele>
        <time>2013-10-27T11:32:44Z</time>
      </trkpt>
      <trkpt lat="41.638062227" lon="2.515177855">
        <ele>333.23</ele>
        <time>2013-10-27T11:32:52Z</time>
      </trkpt>
      <trkpt lat="41.637871538" lon="2.515123541">
        <ele>333.23</ele>
        <time>2013-10-27T11:33:00Z</time>
      </trkpt>
      <trkpt lat="41.637672720" lon="2.515128821">
        <ele>335.64</ele>
        <time>2013-10-27T11:33:09Z</time>
      </trkpt>
      <trkpt lat="41.637526371" lon="2.515151452">
        <ele>335.64</ele>
        <time>2013-10-27T11:33:15Z</time>
      </trkpt>
      <trkpt lat="41.637350687" lon="2.515279109">
        <ele>333.71</ele>
        <time>2013-10-27T11:33:19Z</time>
      </trkpt>
      <trkpt lat="41.637246667" lon="2.515350271">
        <ele>333.23</ele>
        <time>2013-10-27T11:33:21Z</time>
      </trkpt>
      <trkpt lat="41.636927820" lon="2.515436689">
        <ele>332.75</ele>
        <time>2013-10-27T11:33:28Z</time>
      </trkpt>
      <trkpt lat="41.636833607" lon="2.515425457">
        <ele>333.71</ele>
        <time>2013-10-27T11:33:31Z</time>
      </trkpt>
      <trkpt lat="41.636661862" lon="2.515411543">
        <ele>334.20</ele>
        <time>2013-10-27T11:33:38Z</time>
      </trkpt>
      <trkpt lat="41.636546443" lon="2.515397377">
        <ele>334.68</ele>
        <time>2013-10-27T11:33:44Z</time>
      </trkpt>
      <trkpt lat="41.636416691" lon="2.515335603">
        <ele>336.60</ele>
        <time>2013-10-27T11:33:52Z</time>
      </trkpt>
      <trkpt lat="41.636279228" lon="2.515205600">
        <ele>338.52</ele>
        <time>2013-10-27T11:34:01Z</time>
      </trkpt>
      <trkpt lat="41.636181076" lon="2.515085906">
        <ele>340.44</ele>
        <time>2013-10-27T11:34:09Z</time>
      </trkpt>
      <trkpt lat="41.636078901" lon="2.515046846">
        <ele>341.41</ele>
        <time>2013-10-27T11:34:15Z</time>
      </trkpt>
      <trkpt lat="41.635960716" lon="2.515024215">
        <ele>342.85</ele>
        <time>2013-10-27T11:34:23Z</time>
      </trkpt>
      <trkpt lat="41.635929619" lon="2.515012564">
        <ele>343.33</ele>
        <time>2013-10-27T11:34:25Z</time>
      </trkpt>
      <trkpt lat="41.635766172" lon="2.515006865">
        <ele>344.29</ele>
        <time>2013-10-27T11:34:35Z</time>
      </trkpt>
      <trkpt lat="41.635644467" lon="2.515031340">
        <ele>346.21</ele>
        <time>2013-10-27T11:34:43Z</time>
      </trkpt>
      <trkpt lat="41.635565928" lon="2.515078278">
        <ele>346.69</ele>
        <time>2013-10-27T11:34:48Z</time>
      </trkpt>
      <trkpt lat="41.635474733" lon="2.515185483">
        <ele>350.06</ele>
        <time>2013-10-27T11:34:58Z</time>
      </trkpt>
      <trkpt lat="41.635387561" lon="2.515320096">
        <ele>351.02</ele>
        <time>2013-10-27T11:35:07Z</time>
      </trkpt>
      <trkpt lat="41.635370211" lon="2.515348930">
        <ele>351.98</ele>
        <time>2013-10-27T11:35:09Z</time>
      </trkpt>
      <trkpt lat="41.635284464" lon="2.515349852">
        <ele>353.42</ele>
        <time>2013-10-27T11:35:18Z</time>
      </trkpt>
      <trkpt lat="41.635276836" lon="2.515316324">
        <ele>353.90</ele>
        <time>2013-10-27T11:35:21Z</time>
      </trkpt>
      <trkpt lat="41.635286895" lon="2.515150363">
        <ele>356.79</ele>
        <time>2013-10-27T11:35:32Z</time>
      </trkpt>
      <trkpt lat="41.635290666" lon="2.515075093">
        <ele>359.19</ele>
        <time>2013-10-27T11:35:37Z</time>
      </trkpt>
      <trkpt lat="41.635277088" lon="2.514978534">
        <ele>360.63</ele>
        <time>2013-10-27T11:35:44Z</time>
      </trkpt>
      <trkpt lat="41.635207518" lon="2.514866971">
        <ele>361.59</ele>
        <time>2013-10-27T11:35:53Z</time>
      </trkpt>
      <trkpt lat="41.635179187" lon="2.514828749">
        <ele>362.07</ele>
        <time>2013-10-27T11:35:56Z</time>
      </trkpt>
      <trkpt lat="41.635063014" lon="2.514735626">
        <ele>364.48</ele>
        <time>2013-10-27T11:36:07Z</time>
      </trkpt>
      <trkpt lat="41.635027391" lon="2.514726238">
        <ele>365.44</ele>
        <time>2013-10-27T11:36:11Z</time>
      </trkpt>
      <trkpt lat="41.634989002" lon="2.514723556">
        <ele>365.44</ele>
        <time>2013-10-27T11:36:15Z</time>
      </trkpt>
      <trkpt lat="41.634924629" lon="2.514700087">
        <ele>365.92</ele>
        <time>2013-10-27T11:36:22Z</time>
      </trkpt>
      <trkpt lat="41.634846258" lon="2.514678462">
        <ele>366.40</ele>
        <time>2013-10-27T11:36:29Z</time>
      </trkpt>
      <trkpt lat="41.634730001" lon="2.514669325">
        <ele>369.28</ele>
        <time>2013-10-27T11:36:40Z</time>
      </trkpt>
      <trkpt lat="41.634641572" lon="2.514679803">
        <ele>369.76</ele>
        <time>2013-10-27T11:36:48Z</time>
      </trkpt>
      <trkpt lat="41.634535457" lon="2.514697489">
        <ele>370.73</ele>
        <time>2013-10-27T11:36:56Z</time>
      </trkpt>
      <trkpt lat="41.634473263" lon="2.514774015">
        <ele>371.21</ele>
        <time>2013-10-27T11:37:05Z</time>
      </trkpt>
      <trkpt lat="41.634412327" lon="2.514822044">
        <ele>371.21</ele>
        <time>2013-10-27T11:37:12Z</time>
      </trkpt>
      <trkpt lat="41.634330100" lon="2.514852470">
        <ele>372.17</ele>
        <time>2013-10-27T11:37:21Z</time>
      </trkpt>
      <trkpt lat="41.634214514" lon="2.514855068">
        <ele>373.61</ele>
        <time>2013-10-27T11:37:31Z</time>
      </trkpt>
      <trkpt lat="41.634104040" lon="2.514848866">
        <ele>373.61</ele>
        <time>2013-10-27T11:37:39Z</time>
      </trkpt>
      <trkpt lat="41.634001362" lon="2.514807040">
        <ele>375.05</ele>
        <time>2013-10-27T11:37:48Z</time>
      </trkpt>
      <trkpt lat="41.633854595" lon="2.514797568">
        <ele>376.97</ele>
        <time>2013-10-27T11:37:59Z</time>
      </trkpt>
      <trkpt lat="41.633840094" lon="2.514801089">
        <ele>376.97</ele>
        <time>2013-10-27T11:38:00Z</time>
      </trkpt>
      <trkpt lat="41.633732471" lon="2.514863115">
        <ele>377.94</ele>
        <time>2013-10-27T11:38:08Z</time>
      </trkpt>
      <trkpt lat="41.633633899" lon="2.514965039">
        <ele>378.90</ele>
        <time>2013-10-27T11:38:18Z</time>
      </trkpt>
      <trkpt lat="41.633557289" lon="2.515041649">
        <ele>378.90</ele>
        <time>2013-10-27T11:38:25Z</time>
      </trkpt>
      <trkpt lat="41.633518062" lon="2.515061515">
        <ele>379.38</ele>
        <time>2013-10-27T11:38:28Z</time>
      </trkpt>
      <trkpt lat="41.633454527" lon="2.515074004">
        <ele>379.86</ele>
        <time>2013-10-27T11:38:33Z</time>
      </trkpt>
      <trkpt lat="41.633288146" lon="2.515070232">
        <ele>381.78</ele>
        <time>2013-10-27T11:38:45Z</time>
      </trkpt>
      <trkpt lat="41.633175242" lon="2.515066963">
        <ele>381.78</ele>
        <time>2013-10-27T11:38:52Z</time>
      </trkpt>
      <trkpt lat="41.632995953" lon="2.515046008">
        <ele>383.22</ele>
        <time>2013-10-27T11:39:03Z</time>
      </trkpt>
      <trkpt lat="41.632940381" lon="2.515033100">
        <ele>383.70</ele>
        <time>2013-10-27T11:39:06Z</time>
      </trkpt>
      <trkpt lat="41.632747094" lon="2.514918855">
        <ele>385.15</ele>
        <time>2013-10-27T11:39:17Z</time>
      </trkpt>
      <trkpt lat="41.632634274" lon="2.514819864">
        <ele>386.11</ele>
        <time>2013-10-27T11:39:24Z</time>
      </trkpt>
      <trkpt lat="41.632528662" lon="2.514743589">
        <ele>387.07</ele>
        <time>2013-10-27T11:39:31Z</time>
      </trkpt>
      <trkpt lat="41.632433862" lon="2.514681647">
        <ele>388.51</ele>
        <time>2013-10-27T11:39:38Z</time>
      </trkpt>
      <trkpt lat="41.632324395" lon="2.514636971">
        <ele>389.47</ele>
        <time>2013-10-27T11:39:45Z</time>
      </trkpt>
      <trkpt lat="41.632198247" lon="2.514628422">
        <ele>391.87</ele>
        <time>2013-10-27T11:39:54Z</time>
      </trkpt>
      <trkpt lat="41.632142005" lon="2.514624398">
        <ele>391.87</ele>
        <time>2013-10-27T11:39:58Z</time>
      </trkpt>
      <trkpt lat="41.631998674" lon="2.514644096">
        <ele>393.32</ele>
        <time>2013-10-27T11:40:08Z</time>
      </trkpt>
      <trkpt lat="41.631861462" lon="2.514667900">
        <ele>394.76</ele>
        <time>2013-10-27T11:40:16Z</time>
      </trkpt>
      <trkpt lat="41.631739925" lon="2.514709139">
        <ele>395.72</ele>
        <time>2013-10-27T11:40:24Z</time>
      </trkpt>
      <trkpt lat="41.631568012" lon="2.514799664">
        <ele>397.64</ele>
        <time>2013-10-27T11:40:35Z</time>
      </trkpt>
      <trkpt lat="41.631463406" lon="2.514893122">
        <ele>399.57</ele>
        <time>2013-10-27T11:40:44Z</time>
      </trkpt>
      <trkpt lat="41.631404229" lon="2.514930170">
        <ele>400.53</ele>
        <time>2013-10-27T11:40:50Z</time>
      </trkpt>
      <trkpt lat="41.631346562" lon="2.514970655">
        <ele>402.45</ele>
        <time>2013-10-27T11:40:56Z</time>
      </trkpt>
      <trkpt lat="41.631270957" lon="2.515046930">
        <ele>404.37</ele>
        <time>2013-10-27T11:41:05Z</time>
      </trkpt>
      <trkpt lat="41.631194263" lon="2.515127815">
        <ele>404.85</ele>
        <time>2013-10-27T11:41:12Z</time>
      </trkpt>
      <trkpt lat="41.631126285" lon="2.515281456">
        <ele>405.33</ele>
        <time>2013-10-27T11:41:21Z</time>
      </trkpt>
      <trkpt lat="41.631085717" lon="2.515390420">
        <ele>407.26</ele>
        <time>2013-10-27T11:41:29Z</time>
      </trkpt>
      <trkpt lat="41.631040287" lon="2.515536266">
        <ele>409.66</ele>
        <time>2013-10-27T11:41:39Z</time>
      </trkpt>
      <trkpt lat="41.631024278" lon="2.515569374">
        <ele>409.66</ele>
        <time>2013-10-27T11:41:41Z</time>
      </trkpt>
      <trkpt lat="41.630963174" lon="2.515709855">
        <ele>412.54</ele>
        <time>2013-10-27T11:41:52Z</time>
      </trkpt>
      <trkpt lat="41.630885390" lon="2.515801134">
        <ele>413.98</ele>
        <time>2013-10-27T11:42:00Z</time>
      </trkpt>
      <trkpt lat="41.630798385" lon="2.515868776">
        <ele>414.47</ele>
        <time>2013-10-27T11:42:08Z</time>
      </trkpt>
      <trkpt lat="41.630725547" lon="2.515907500">
        <ele>415.91</ele>
        <time>2013-10-27T11:42:15Z</time>
      </trkpt>
      <trkpt lat="41.630606691" lon="2.515924515">
        <ele>416.87</ele>
        <time>2013-10-27T11:42:24Z</time>
      </trkpt>
      <trkpt lat="41.630495463" lon="2.515960306">
        <ele>418.79</ele>
        <time>2013-10-27T11:42:33Z</time>
      </trkpt>
      <trkpt lat="41.630485405" lon="2.515961899">
        <ele>418.79</ele>
        <time>2013-10-27T11:42:34Z</time>
      </trkpt>
      <trkpt lat="41.630425558" lon="2.515948739">
        <ele>420.23</ele>
        <time>2013-10-27T11:42:40Z</time>
      </trkpt>
      <trkpt lat="41.630350289" lon="2.515886042">
        <ele>422.16</ele>
        <time>2013-10-27T11:42:49Z</time>
      </trkpt>
      <trkpt lat="41.630303350" lon="2.515824519">
        <ele>423.12</ele>
        <time>2013-10-27T11:42:55Z</time>
      </trkpt>
      <trkpt lat="41.630240570" lon="2.515728379">
        <ele>425.04</ele>
        <time>2013-10-27T11:43:04Z</time>
      </trkpt>
      <trkpt lat="41.630198828" lon="2.515637268">
        <ele>426.00</ele>
        <time>2013-10-27T11:43:12Z</time>
      </trkpt>
      <trkpt lat="41.630189273" lon="2.515628969">
        <ele>426.48</ele>
        <time>2013-10-27T11:43:13Z</time>
      </trkpt>
      <trkpt lat="41.630132779" lon="2.515594771">
        <ele>426.96</ele>
        <time>2013-10-27T11:43:18Z</time>
      </trkpt>
      <trkpt lat="41.630006966" lon="2.515575744">
        <ele>427.44</ele>
        <time>2013-10-27T11:43:28Z</time>
      </trkpt>
      <trkpt lat="41.629908143" lon="2.515635256">
        <ele>427.92</ele>
        <time>2013-10-27T11:43:36Z</time>
      </trkpt>
      <trkpt lat="41.629816445" lon="2.515654450">
        <ele>428.89</ele>
        <time>2013-10-27T11:43:43Z</time>
      </trkpt>
      <trkpt lat="41.629699853" lon="2.515654702">
        <ele>429.85</ele>
        <time>2013-10-27T11:43:52Z</time>
      </trkpt>
      <trkpt lat="41.629581668" lon="2.515649337">
        <ele>431.77</ele>
        <time>2013-10-27T11:44:02Z</time>
      </trkpt>
      <trkpt lat="41.629433057" lon="2.515678842">
        <ele>433.21</ele>
        <time>2013-10-27T11:44:11Z</time>
      </trkpt>
      <trkpt lat="41.629402212" lon="2.515671549">
        <ele>433.69</ele>
        <time>2013-10-27T11:44:14Z</time>
      </trkpt>
      <trkpt lat="41.629289559" lon="2.515608182">
        <ele>436.10</ele>
        <time>2013-10-27T11:44:25Z</time>
      </trkpt>
      <trkpt lat="41.629221917" lon="2.515588317">
        <ele>437.54</ele>
        <time>2013-10-27T11:44:32Z</time>
      </trkpt>
      <trkpt lat="41.629154443" lon="2.515561830">
        <ele>438.98</ele>
        <time>2013-10-27T11:44:38Z</time>
      </trkpt>
      <trkpt lat="41.629067690" lon="2.515521849">
        <ele>440.90</ele>
        <time>2013-10-27T11:44:47Z</time>
      </trkpt>
      <trkpt lat="41.628980770" lon="2.515475497">
        <ele>442.82</ele>
        <time>2013-10-27T11:44:55Z</time>
      </trkpt>
      <trkpt lat="41.628868704" lon="2.515399389">
        <ele>444.27</ele>
        <time>2013-10-27T11:45:04Z</time>
      </trkpt>
      <trkpt lat="41.628761583" lon="2.515316576">
        <ele>446.19</ele>
        <time>2013-10-27T11:45:14Z</time>
      </trkpt>
      <trkpt lat="41.628676171" lon="2.515249772">
        <ele>448.11</ele>
        <time>2013-10-27T11:45:22Z</time>
      </trkpt>
      <trkpt lat="41.628609954" lon="2.515203336">
        <ele>449.07</ele>
        <time>2013-10-27T11:45:28Z</time>
      </trkpt>
      <trkpt lat="41.628515406" lon="2.515115662">
        <ele>451.00</ele>
        <time>2013-10-27T11:45:39Z</time>
      </trkpt>
      <trkpt lat="41.628462098" lon="2.515053803">
        <ele>451.48</ele>
        <time>2013-10-27T11:45:45Z</time>
      </trkpt>
      <trkpt lat="41.628367382" lon="2.514988760">
        <ele>451.48</ele>
        <time>2013-10-27T11:45:52Z</time>
      </trkpt>
      <trkpt lat="41.628337794" lon="2.514972750">
        <ele>451.48</ele>
        <time>2013-10-27T11:45:54Z</time>
      </trkpt>
      <trkpt lat="41.628168815" lon="2.514935702">
        <ele>451.96</ele>
        <time>2013-10-27T11:46:06Z</time>
      </trkpt>
      <trkpt lat="41.628077368" lon="2.514927739">
        <ele>452.92</ele>
        <time>2013-10-27T11:46:14Z</time>
      </trkpt>
      <trkpt lat="41.628074602" lon="2.514922459">
        <ele>452.92</ele>
        <time>2013-10-27T11:46:20Z</time>
      </trkpt>
      <trkpt lat="41.628069238" lon="2.514923046">
        <ele>453.40</ele>
        <time>2013-10-27T11:46:31Z</time>
      </trkpt>
      <trkpt lat="41.628072423" lon="2.514908796">
        <ele>453.40</ele>
        <time>2013-10-27T11:46:44Z</time>
      </trkpt>
      <trkpt lat="41.628053815" lon="2.514911143">
        <ele>453.40</ele>
        <time>2013-10-27T11:47:00Z</time>
      </trkpt>
      <trkpt lat="41.628061778" lon="2.514895134">
        <ele>453.40</ele>
        <time>2013-10-27T11:47:19Z</time>
      </trkpt>
      <trkpt lat="41.628061526" lon="2.514887925">
        <ele>453.40</ele>
        <time>2013-10-27T11:47:34Z</time>
      </trkpt>
      <trkpt lat="41.628051636" lon="2.514890356">
        <ele>453.40</ele>
        <time>2013-10-27T11:47:46Z</time>
      </trkpt>
      <trkpt lat="41.628052558" lon="2.514902258">
        <ele>453.40</ele>
        <time>2013-10-27T11:47:59Z</time>
      </trkpt>
      <trkpt lat="41.628047780" lon="2.514904270">
        <ele>453.40</ele>
        <time>2013-10-27T11:48:00Z</time>
      </trkpt>
      <trkpt lat="41.628012241" lon="2.514927069">
        <ele>453.40</ele>
        <time>2013-10-27T11:48:04Z</time>
      </trkpt>
      <trkpt lat="41.627937307" lon="2.514927739">
        <ele>453.40</ele>
        <time>2013-10-27T11:48:10Z</time>
      </trkpt>
      <trkpt lat="41.627757682" lon="2.514940480">
        <ele>452.92</ele>
        <time>2013-10-27T11:48:20Z</time>
      </trkpt>
      <trkpt lat="41.627601863" lon="2.515056066">
        <ele>451.00</ele>
        <time>2013-10-27T11:48:25Z</time>
      </trkpt>
      <trkpt lat="41.627411007" lon="2.515229488">
        <ele>447.63</ele>
        <time>2013-10-27T11:48:29Z</time>
      </trkpt>
      <trkpt lat="41.627282764" lon="2.515336860">
        <ele>443.79</ele>
        <time>2013-10-27T11:48:32Z</time>
      </trkpt>
      <trkpt lat="41.627128788" lon="2.515393857">
        <ele>441.38</ele>
        <time>2013-10-27T11:48:37Z</time>
      </trkpt>
      <trkpt lat="41.627020997" lon="2.515442137">
        <ele>440.42</ele>
        <time>2013-10-27T11:48:42Z</time>
      </trkpt>
      <trkpt lat="41.626921755" lon="2.515497960">
        <ele>438.98</ele>
        <time>2013-10-27T11:48:45Z</time>
      </trkpt>
      <trkpt lat="41.626664598" lon="2.515636932">
        <ele>435.13</ele>
        <time>2013-10-27T11:48:50Z</time>
      </trkpt>
      <trkpt lat="41.626553957" lon="2.515696779">
        <ele>434.17</ele>
        <time>2013-10-27T11:48:52Z</time>
      </trkpt>
      <trkpt lat="41.626285569" lon="2.515842792">
        <ele>429.37</ele>
        <time>2013-10-27T11:48:57Z</time>
      </trkpt>
      <trkpt lat="41.626114159" lon="2.516049992">
        <ele>427.44</ele>
        <time>2013-10-27T11:49:02Z</time>
      </trkpt>
      <trkpt lat="41.626019192" lon="2.516274627">
        <ele>426.96</ele>
        <time>2013-10-27T11:49:07Z</time>
      </trkpt>
      <trkpt lat="41.625958758" lon="2.516240932">
        <ele>425.52</ele>
        <time>2013-10-27T11:49:10Z</time>
      </trkpt>
      <trkpt lat="41.626005948" lon="2.516104894">
        <ele>424.08</ele>
        <time>2013-10-27T11:49:14Z</time>
      </trkpt>
      <trkpt lat="41.626023299" lon="2.516064912">
        <ele>424.08</ele>
        <time>2013-10-27T11:49:15Z</time>
      </trkpt>
      <trkpt lat="41.626146597" lon="2.515745310">
        <ele>422.16</ele>
        <time>2013-10-27T11:49:21Z</time>
      </trkpt>
      <trkpt lat="41.626268805" lon="2.515550263">
        <ele>418.31</ele>
        <time>2013-10-27T11:49:25Z</time>
      </trkpt>
      <trkpt lat="41.626443568" lon="2.515222950">
        <ele>414.95</ele>
        <time>2013-10-27T11:49:31Z</time>
      </trkpt>
      <trkpt lat="41.626533505" lon="2.515074590">
        <ele>413.02</ele>
        <time>2013-10-27T11:49:34Z</time>
      </trkpt>
      <trkpt lat="41.626652780" lon="2.514759515">
        <ele>410.62</ele>
        <time>2013-10-27T11:49:39Z</time>
      </trkpt>
      <trkpt lat="41.626583713" lon="2.514554829">
        <ele>409.18</ele>
        <time>2013-10-27T11:49:42Z</time>
      </trkpt>
      <trkpt lat="41.626539624" lon="2.514499843">
        <ele>408.70</ele>
        <time>2013-10-27T11:49:43Z</time>
      </trkpt>
      <trkpt lat="41.626449100" lon="2.514401104">
        <ele>407.74</ele>
        <time>2013-10-27T11:49:45Z</time>
      </trkpt>
      <trkpt lat="41.626370729" lon="2.514290715">
        <ele>406.77</ele>
        <time>2013-10-27T11:49:47Z</time>
      </trkpt>
      <trkpt lat="41.626114326" lon="2.514207482">
        <ele>403.89</ele>
        <time>2013-10-27T11:49:52Z</time>
      </trkpt>
      <trkpt lat="41.625902013" lon="2.514164819">
        <ele>400.05</ele>
        <time>2013-10-27T11:49:56Z</time>
      </trkpt>
      <trkpt lat="41.625853649" lon="2.514136739">
        <ele>400.05</ele>
        <time>2013-10-27T11:49:57Z</time>
      </trkpt>
      <trkpt lat="41.625801262" lon="2.514108157">
        <ele>399.08</ele>
        <time>2013-10-27T11:49:58Z</time>
      </trkpt>
      <trkpt lat="41.625715096" lon="2.514057195">
        <ele>398.12</ele>
        <time>2013-10-27T11:50:00Z</time>
      </trkpt>
      <trkpt lat="41.625491551" lon="2.514022494">
        <ele>394.28</ele>
        <time>2013-10-27T11:50:05Z</time>
      </trkpt>
      <trkpt lat="41.625403625" lon="2.514013693">
        <ele>392.36</ele>
        <time>2013-10-27T11:50:07Z</time>
      </trkpt>
      <trkpt lat="41.625301617" lon="2.514019812">
        <ele>390.43</ele>
        <time>2013-10-27T11:50:09Z</time>
      </trkpt>
      <trkpt lat="41.625121155" lon="2.514063733">
        <ele>386.11</ele>
        <time>2013-10-27T11:50:13Z</time>
      </trkpt>
      <trkpt lat="41.624948068" lon="2.514069852">
        <ele>381.78</ele>
        <time>2013-10-27T11:50:17Z</time>
      </trkpt>
      <trkpt lat="41.624864333" lon="2.514052920">
        <ele>379.86</ele>
        <time>2013-10-27T11:50:20Z</time>
      </trkpt>
      <trkpt lat="41.624832147" lon="2.513957618">
        <ele>378.42</ele>
        <time>2013-10-27T11:50:24Z</time>
      </trkpt>
      <trkpt lat="41.624903477" lon="2.513677495">
        <ele>376.49</ele>
        <time>2013-10-27T11:50:31Z</time>
      </trkpt>
      <trkpt lat="41.624955947" lon="2.513569368">
        <ele>375.53</ele>
        <time>2013-10-27T11:50:33Z</time>
      </trkpt>
      <trkpt lat="41.625013950" lon="2.513393013">
        <ele>374.09</ele>
        <time>2013-10-27T11:50:36Z</time>
      </trkpt>
      <trkpt lat="41.625019734" lon="2.513212551">
        <ele>372.65</ele>
        <time>2013-10-27T11:50:39Z</time>
      </trkpt>
      <trkpt lat="41.624996935" lon="2.513005685">
        <ele>370.73</ele>
        <time>2013-10-27T11:50:43Z</time>
      </trkpt>
      <trkpt lat="41.624850503" lon="2.512765125">
        <ele>368.80</ele>
        <time>2013-10-27T11:50:48Z</time>
      </trkpt>
      <trkpt lat="41.624797362" lon="2.512732100">
        <ele>368.32</ele>
        <time>2013-10-27T11:50:49Z</time>
      </trkpt>
      <trkpt lat="41.624624862" lon="2.512656830">
        <ele>366.88</ele>
        <time>2013-10-27T11:50:52Z</time>
      </trkpt>
      <trkpt lat="41.624442388" lon="2.512578460">
        <ele>363.52</ele>
        <time>2013-10-27T11:50:57Z</time>
      </trkpt>
      <trkpt lat="41.624415315" lon="2.512564797">
        <ele>363.04</ele>
        <time>2013-10-27T11:50:58Z</time>
      </trkpt>
      <trkpt lat="41.624338956" lon="2.512606036">
        <ele>361.59</ele>
        <time>2013-10-27T11:51:03Z</time>
      </trkpt>
      <trkpt lat="41.624396623" lon="2.512691699">
        <ele>360.15</ele>
        <time>2013-10-27T11:51:08Z</time>
      </trkpt>
      <trkpt lat="41.624419506" lon="2.512709469">
        <ele>360.15</ele>
        <time>2013-10-27T11:51:09Z</time>
      </trkpt>
      <trkpt lat="41.624475916" lon="2.512753474">
        <ele>358.71</ele>
        <time>2013-10-27T11:51:11Z</time>
      </trkpt>
      <trkpt lat="41.624634166" lon="2.512931841">
        <ele>355.34</ele>
        <time>2013-10-27T11:51:17Z</time>
      </trkpt>
      <trkpt lat="41.624593598" lon="2.513123619">
        <ele>352.94</ele>
        <time>2013-10-27T11:51:21Z</time>
      </trkpt>
      <trkpt lat="41.624413890" lon="2.513281115">
        <ele>349.58</ele>
        <time>2013-10-27T11:51:26Z</time>
      </trkpt>
      <trkpt lat="41.624374746" lon="2.513292346">
        <ele>349.58</ele>
        <time>2013-10-27T11:51:27Z</time>
      </trkpt>
      <trkpt lat="41.624268128" lon="2.513331657">
        <ele>347.17</ele>
        <time>2013-10-27T11:51:30Z</time>
      </trkpt>
      <trkpt lat="41.624191015" lon="2.513357725">
        <ele>345.25</ele>
        <time>2013-10-27T11:51:32Z</time>
      </trkpt>
      <trkpt lat="41.624074255" lon="2.513384547">
        <ele>343.81</ele>
        <time>2013-10-27T11:51:35Z</time>
      </trkpt>
      <trkpt lat="41.624002841" lon="2.513416734">
        <ele>342.37</ele>
        <time>2013-10-27T11:51:37Z</time>
      </trkpt>
      <trkpt lat="41.623771501" lon="2.513595855">
        <ele>339.48</ele>
        <time>2013-10-27T11:51:43Z</time>
      </trkpt>
      <trkpt lat="41.623657255" lon="2.513632149">
        <ele>338.04</ele>
        <time>2013-10-27T11:51:47Z</time>
      </trkpt>
      <trkpt lat="41.623547955" lon="2.513671795">
        <ele>334.68</ele>
        <time>2013-10-27T11:51:52Z</time>
      </trkpt>
      <trkpt lat="41.623475703" lon="2.513689146">
        <ele>332.75</ele>
        <time>2013-10-27T11:51:55Z</time>
      </trkpt>
      <trkpt lat="41.623451815" lon="2.513704987">
        <ele>331.79</ele>
        <time>2013-10-27T11:51:56Z</time>
      </trkpt>
      <trkpt lat="41.623380401" lon="2.513625946">
        <ele>329.39</ele>
        <time>2013-10-27T11:52:01Z</time>
      </trkpt>
      <trkpt lat="41.623492719" lon="2.513409777">
        <ele>327.47</ele>
        <time>2013-10-27T11:52:07Z</time>
      </trkpt>
      <trkpt lat="41.623578549" lon="2.513319336">
        <ele>325.54</ele>
        <time>2013-10-27T11:52:10Z</time>
      </trkpt>
      <trkpt lat="41.623596990" lon="2.513121104">
        <ele>322.18</ele>
        <time>2013-10-27T11:52:15Z</time>
      </trkpt>
      <trkpt lat="41.623511410" lon="2.513162008">
        <ele>320.74</ele>
        <time>2013-10-27T11:52:18Z</time>
      </trkpt>
      <trkpt lat="41.623443098" lon="2.513236104">
        <ele>318.81</ele>
        <time>2013-10-27T11:52:21Z</time>
      </trkpt>
      <trkpt lat="41.623319884" lon="2.513238534">
        <ele>316.41</ele>
        <time>2013-10-27T11:52:26Z</time>
      </trkpt>
      <trkpt lat="41.623141936" lon="2.513252448">
        <ele>313.53</ele>
        <time>2013-10-27T11:52:33Z</time>
      </trkpt>
      <trkpt lat="41.623012519" lon="2.513327466">
        <ele>310.16</ele>
        <time>2013-10-27T11:52:37Z</time>
      </trkpt>
      <trkpt lat="41.622866507" lon="2.513406843">
        <ele>307.28</ele>
        <time>2013-10-27T11:52:42Z</time>
      </trkpt>
      <trkpt lat="41.622822921" lon="2.513416398">
        <ele>306.32</ele>
        <time>2013-10-27T11:52:43Z</time>
      </trkpt>
      <trkpt lat="41.622643213" lon="2.513533829">
        <ele>303.43</ele>
        <time>2013-10-27T11:52:49Z</time>
      </trkpt>
      <trkpt lat="41.622580432" lon="2.513675399">
        <ele>301.03</ele>
        <time>2013-10-27T11:52:54Z</time>
      </trkpt>
      <trkpt lat="41.622405334" lon="2.513854185">
        <ele>297.67</ele>
        <time>2013-10-27T11:53:00Z</time>
      </trkpt>
      <trkpt lat="41.622348254" lon="2.513863908">
        <ele>296.70</ele>
        <time>2013-10-27T11:53:02Z</time>
      </trkpt>
      <trkpt lat="41.622222776" lon="2.513921408">
        <ele>293.34</ele>
        <time>2013-10-27T11:53:07Z</time>
      </trkpt>
      <trkpt lat="41.622093360" lon="2.513967341">
        <ele>290.46</ele>
        <time>2013-10-27T11:53:11Z</time>
      </trkpt>
      <trkpt lat="41.622056228" lon="2.513984943">
        <ele>289.97</ele>
        <time>2013-10-27T11:53:12Z</time>
      </trkpt>
      <trkpt lat="41.621909461" lon="2.514078066">
        <ele>286.13</ele>
        <time>2013-10-27T11:53:16Z</time>
      </trkpt>
      <trkpt lat="41.621796473" lon="2.514146630">
        <ele>282.77</ele>
        <time>2013-10-27T11:53:19Z</time>
      </trkpt>
      <trkpt lat="41.621607461" lon="2.514196502">
        <ele>278.92</ele>
        <time>2013-10-27T11:53:24Z</time>
      </trkpt>
      <trkpt lat="41.621502603" lon="2.514216116">
        <ele>277.00</ele>
        <time>2013-10-27T11:53:27Z</time>
      </trkpt>
      <trkpt lat="41.621392298" lon="2.514378306">
        <ele>273.15</ele>
        <time>2013-10-27T11:53:32Z</time>
      </trkpt>
      <trkpt lat="41.621369666" lon="2.514433626">
        <ele>273.15</ele>
        <time>2013-10-27T11:53:33Z</time>
      </trkpt>
      <trkpt lat="41.621276124" lon="2.514663877">
        <ele>268.83</ele>
        <time>2013-10-27T11:53:37Z</time>
      </trkpt>
      <trkpt lat="41.621124831" lon="2.514862696">
        <ele>264.50</ele>
        <time>2013-10-27T11:53:41Z</time>
      </trkpt>
      <trkpt lat="41.621061212" lon="2.514947772">
        <ele>264.02</ele>
        <time>2013-10-27T11:53:43Z</time>
      </trkpt>
      <trkpt lat="41.621007484" lon="2.515056988">
        <ele>263.06</ele>
        <time>2013-10-27T11:53:45Z</time>
      </trkpt>
      <trkpt lat="41.620786118" lon="2.515348930">
        <ele>260.17</ele>
        <time>2013-10-27T11:53:52Z</time>
      </trkpt>
      <trkpt lat="41.620645386" lon="2.515579851">
        <ele>257.77</ele>
        <time>2013-10-27T11:53:57Z</time>
      </trkpt>
      <trkpt lat="41.620490656" lon="2.515740868">
        <ele>253.93</ele>
        <time>2013-10-27T11:54:01Z</time>
      </trkpt>
      <trkpt lat="41.620328215" lon="2.515987044">
        <ele>249.60</ele>
        <time>2013-10-27T11:54:06Z</time>
      </trkpt>
      <trkpt lat="41.620311451" lon="2.516034067">
        <ele>248.16</ele>
        <time>2013-10-27T11:54:07Z</time>
      </trkpt>
      <trkpt lat="41.620178346" lon="2.516238334">
        <ele>243.83</ele>
        <time>2013-10-27T11:54:12Z</time>
      </trkpt>
      <trkpt lat="41.620096036" lon="2.516265994">
        <ele>241.91</ele>
        <time>2013-10-27T11:54:16Z</time>
      </trkpt>
      <trkpt lat="41.619983048" lon="2.516241938">
        <ele>238.54</ele>
        <time>2013-10-27T11:54:21Z</time>
      </trkpt>
      <trkpt lat="41.619792863" lon="2.516202040">
        <ele>235.18</ele>
        <time>2013-10-27T11:54:27Z</time>
      </trkpt>
      <trkpt lat="41.619678953" lon="2.516363308">
        <ele>233.74</ele>
        <time>2013-10-27T11:54:32Z</time>
      </trkpt>
      <trkpt lat="41.619598654" lon="2.516454755">
        <ele>232.78</ele>
        <time>2013-10-27T11:54:35Z</time>
      </trkpt>
      <trkpt lat="41.619479631" lon="2.516555589">
        <ele>231.33</ele>
        <time>2013-10-27T11:54:39Z</time>
      </trkpt>
      <trkpt lat="41.619448869" lon="2.516786007">
        <ele>229.89</ele>
        <time>2013-10-27T11:54:45Z</time>
      </trkpt>
      <trkpt lat="41.619431687" lon="2.516812327">
        <ele>229.41</ele>
        <time>2013-10-27T11:54:46Z</time>
      </trkpt>
      <trkpt lat="41.619314172" lon="2.517026987">
        <ele>227.97</ele>
        <time>2013-10-27T11:54:52Z</time>
      </trkpt>
      <trkpt lat="41.619295397" lon="2.517264782">
        <ele>226.05</ele>
        <time>2013-10-27T11:54:58Z</time>
      </trkpt>
      <trkpt lat="41.619246195" lon="2.517520933">
        <ele>224.61</ele>
        <time>2013-10-27T11:55:04Z</time>
      </trkpt>
      <trkpt lat="41.619218702" lon="2.517658144">
        <ele>224.12</ele>
        <time>2013-10-27T11:55:10Z</time>
      </trkpt>
      <trkpt lat="41.619216775" lon="2.517684883">
        <ele>224.12</ele>
        <time>2013-10-27T11:55:11Z</time>
      </trkpt>
      <trkpt lat="41.619122310" lon="2.517945644">
        <ele>222.68</ele>
        <time>2013-10-27T11:55:18Z</time>
      </trkpt>
      <trkpt lat="41.618916870" lon="2.518134320">
        <ele>220.76</ele>
        <time>2013-10-27T11:55:24Z</time>
      </trkpt>
      <trkpt lat="41.618806816" lon="2.518368594">
        <ele>218.36</ele>
        <time>2013-10-27T11:55:29Z</time>
      </trkpt>
      <trkpt lat="41.618766750" lon="2.518576717">
        <ele>217.40</ele>
        <time>2013-10-27T11:55:33Z</time>
      </trkpt>
      <trkpt lat="41.618682680" lon="2.519009391">
        <ele>214.51</ele>
        <time>2013-10-27T11:55:39Z</time>
      </trkpt>
      <trkpt lat="41.618499451" lon="2.519445082">
        <ele>211.63</ele>
        <time>2013-10-27T11:55:45Z</time>
      </trkpt>
      <trkpt lat="41.618454943" lon="2.519469138">
        <ele>211.63</ele>
        <time>2013-10-27T11:55:46Z</time>
      </trkpt>
      <trkpt lat="41.618106172" lon="2.519560082">
        <ele>209.70</ele>
        <time>2013-10-27T11:55:53Z</time>
      </trkpt>
      <trkpt lat="41.617747595" lon="2.519610541">
        <ele>207.78</ele>
        <time>2013-10-27T11:56:00Z</time>
      </trkpt>
      <trkpt lat="41.617336378" lon="2.519666197">
        <ele>205.38</ele>
        <time>2013-10-27T11:56:08Z</time>
      </trkpt>
      <trkpt lat="41.617043263" lon="2.519703077">
        <ele>203.94</ele>
        <time>2013-10-27T11:56:14Z</time>
      </trkpt>
      <trkpt lat="41.616996827" lon="2.519709615">
        <ele>203.94</ele>
        <time>2013-10-27T11:56:15Z</time>
      </trkpt>
      <trkpt lat="41.616626012" lon="2.519832829">
        <ele>202.49</ele>
        <time>2013-10-27T11:56:23Z</time>
      </trkpt>
      <trkpt lat="41.616406071" lon="2.519979764">
        <ele>200.57</ele>
        <time>2013-10-27T11:56:29Z</time>
      </trkpt>
      <trkpt lat="41.616327868" lon="2.520060565">
        <ele>202.01</ele>
        <time>2013-10-27T11:56:33Z</time>
      </trkpt>
      <trkpt lat="41.616215466" lon="2.520292744">
        <ele>202.01</ele>
        <time>2013-10-27T11:56:39Z</time>
      </trkpt>
      <trkpt lat="41.616070292" lon="2.520685353">
        <ele>200.57</ele>
        <time>2013-10-27T11:56:46Z</time>
      </trkpt>
      <trkpt lat="41.616051852" lon="2.520745702">
        <ele>200.57</ele>
        <time>2013-10-27T11:56:47Z</time>
      </trkpt>
      <trkpt lat="41.615977085" lon="2.521068825">
        <ele>200.09</ele>
        <time>2013-10-27T11:56:52Z</time>
      </trkpt>
      <trkpt lat="41.615890416" lon="2.521644075">
        <ele>198.65</ele>
        <time>2013-10-27T11:57:00Z</time>
      </trkpt>
      <trkpt lat="41.615870719" lon="2.521788914">
        <ele>198.65</ele>
        <time>2013-10-27T11:57:02Z</time>
      </trkpt>
      <trkpt lat="41.615795449" lon="2.522347735">
        <ele>197.21</ele>
        <time>2013-10-27T11:57:09Z</time>
      </trkpt>
      <trkpt lat="41.615657148" lon="2.523212161">
        <ele>194.80</ele>
        <time>2013-10-27T11:57:18Z</time>
      </trkpt>
      <trkpt lat="41.615608868" lon="2.523771066">
        <ele>192.88</ele>
        <time>2013-10-27T11:57:24Z</time>
      </trkpt>
      <trkpt lat="41.615579112" lon="2.524227545">
        <ele>190.48</ele>
        <time>2013-10-27T11:57:29Z</time>
      </trkpt>
      <trkpt lat="41.615510716" lon="2.525039248">
        <ele>187.59</ele>
        <time>2013-10-27T11:57:37Z</time>
      </trkpt>
      <trkpt lat="41.615495796" lon="2.525247203">
        <ele>186.63</ele>
        <time>2013-10-27T11:57:39Z</time>
      </trkpt>
      <trkpt lat="41.615501496" lon="2.525870901">
        <ele>184.71</ele>
        <time>2013-10-27T11:57:45Z</time>
      </trkpt>
      <trkpt lat="41.615550027" lon="2.526516810">
        <ele>183.27</ele>
        <time>2013-10-27T11:57:51Z</time>
      </trkpt>
      <trkpt lat="41.615518260" lon="2.527204629">
        <ele>180.38</ele>
        <time>2013-10-27T11:57:57Z</time>
      </trkpt>
      <trkpt lat="41.615373337" lon="2.527986661">
        <ele>177.50</ele>
        <time>2013-10-27T11:58:04Z</time>
      </trkpt>
      <trkpt lat="41.615266551" lon="2.528609101">
        <ele>176.06</ele>
        <time>2013-10-27T11:58:11Z</time>
      </trkpt>
      <trkpt lat="41.615191952" lon="2.529134898">
        <ele>174.62</ele>
        <time>2013-10-27T11:58:18Z</time>
      </trkpt>
      <trkpt lat="41.615186672" lon="2.529172113">
        <ele>174.62</ele>
        <time>2013-10-27T11:58:19Z</time>
      </trkpt>
      <trkpt lat="41.615226905" lon="2.529473694">
        <ele>174.14</ele>
        <time>2013-10-27T11:58:25Z</time>
      </trkpt>
      <trkpt lat="41.615225648" lon="2.529531194">
        <ele>173.66</ele>
        <time>2013-10-27T11:58:26Z</time>
      </trkpt>
      <trkpt lat="41.615203519" lon="2.529777454">
        <ele>171.73</ele>
        <time>2013-10-27T11:58:32Z</time>
      </trkpt>
      <trkpt lat="41.615200167" lon="2.529873846">
        <ele>171.73</ele>
        <time>2013-10-27T11:58:37Z</time>
      </trkpt>
      <trkpt lat="41.615189019" lon="2.530116419">
        <ele>170.77</ele>
        <time>2013-10-27T11:58:47Z</time>
      </trkpt>
      <trkpt lat="41.615180469" lon="2.530260587">
        <ele>170.29</ele>
        <time>2013-10-27T11:58:54Z</time>
      </trkpt>
      <trkpt lat="41.615160185" lon="2.530454544">
        <ele>169.81</ele>
        <time>2013-10-27T11:59:00Z</time>
      </trkpt>
      <trkpt lat="41.615150546" lon="2.530636851">
        <ele>169.33</ele>
        <time>2013-10-27T11:59:05Z</time>
      </trkpt>
      <trkpt lat="41.615151887" lon="2.530678174">
        <ele>169.33</ele>
        <time>2013-10-27T11:59:06Z</time>
      </trkpt>
      <trkpt lat="41.615141326" lon="2.530781355">
        <ele>168.85</ele>
        <time>2013-10-27T11:59:08Z</time>
      </trkpt>
      <trkpt lat="41.615089190" lon="2.531308996">
        <ele>167.89</ele>
        <time>2013-10-27T11:59:16Z</time>
      </trkpt>
      <trkpt lat="41.615065972" lon="2.531925149">
        <ele>165.96</ele>
        <time>2013-10-27T11:59:23Z</time>
      </trkpt>
      <trkpt lat="41.614901687" lon="2.532663595">
        <ele>164.52</ele>
        <time>2013-10-27T11:59:31Z</time>
      </trkpt>
      <trkpt lat="41.614845947" lon="2.532810697">
        <ele>164.04</ele>
        <time>2013-10-27T11:59:33Z</time>
      </trkpt>
      <trkpt lat="41.614716195" lon="2.533281593">
        <ele>162.12</ele>
        <time>2013-10-27T11:59:41Z</time>
      </trkpt>
      <trkpt lat="41.614696917" lon="2.533335405">
        <ele>162.12</ele>
        <time>2013-10-27T11:59:42Z</time>
      </trkpt>
      <trkpt lat="41.614645201" lon="2.533565655">
        <ele>161.16</ele>
        <time>2013-10-27T11:59:46Z</time>
      </trkpt>
      <trkpt lat="41.614454429" lon="2.534188263">
        <ele>160.20</ele>
        <time>2013-10-27T11:59:55Z</time>
      </trkpt>
      <trkpt lat="41.614293999" lon="2.534665445">
        <ele>157.79</ele>
        <time>2013-10-27T12:00:01Z</time>
      </trkpt>
      <trkpt lat="41.614095180" lon="2.535265086">
        <ele>155.39</ele>
        <time>2013-10-27T12:00:08Z</time>
      </trkpt>
      <trkpt lat="41.613922597" lon="2.535800103">
        <ele>153.47</ele>
        <time>2013-10-27T12:00:15Z</time>
      </trkpt>
      <trkpt lat="41.613738111" lon="2.536316596">
        <ele>152.03</ele>
        <time>2013-10-27T12:00:22Z</time>
      </trkpt>
      <trkpt lat="41.613636523" lon="2.536578950">
        <ele>150.58</ele>
        <time>2013-10-27T12:00:26Z</time>
      </trkpt>
      <trkpt lat="41.613620848" lon="2.536705684">
        <ele>150.58</ele>
        <time>2013-10-27T12:00:28Z</time>
      </trkpt>
      <trkpt lat="41.613546920" lon="2.536941299">
        <ele>150.10</ele>
        <time>2013-10-27T12:00:32Z</time>
      </trkpt>
      <trkpt lat="41.613220612" lon="2.537378919">
        <ele>148.18</ele>
        <time>2013-10-27T12:00:40Z</time>
      </trkpt>
      <trkpt lat="41.612845522" lon="2.537796421">
        <ele>147.22</ele>
        <time>2013-10-27T12:00:48Z</time>
      </trkpt>
      <trkpt lat="41.612440090" lon="2.538272597">
        <ele>144.82</ele>
        <time>2013-10-27T12:00:57Z</time>
      </trkpt>
      <trkpt lat="41.612319558" lon="2.538422298">
        <ele>144.34</ele>
        <time>2013-10-27T12:01:00Z</time>
      </trkpt>
      <trkpt lat="41.612195757" lon="2.538671073">
        <ele>142.89</ele>
        <time>2013-10-27T12:01:04Z</time>
      </trkpt>
      <trkpt lat="41.612101042" lon="2.538869808">
        <ele>142.41</ele>
        <time>2013-10-27T12:01:07Z</time>
      </trkpt>
      <trkpt lat="41.611745733" lon="2.539331315">
        <ele>140.01</ele>
        <time>2013-10-27T12:01:15Z</time>
      </trkpt>
      <trkpt lat="41.611547166" lon="2.539549496">
        <ele>139.05</ele>
        <time>2013-10-27T12:01:21Z</time>
      </trkpt>
      <trkpt lat="41.611584716" lon="2.539763654">
        <ele>139.05</ele>
        <time>2013-10-27T12:01:27Z</time>
      </trkpt>
      <trkpt lat="41.611639953" lon="2.540152239">
        <ele>140.49</ele>
        <time>2013-10-27T12:01:35Z</time>
      </trkpt>
      <trkpt lat="41.611659064" lon="2.540469829">
        <ele>142.41</ele>
        <time>2013-10-27T12:01:42Z</time>
      </trkpt>
      <trkpt lat="41.611676834" lon="2.540725729">
        <ele>143.37</ele>
        <time>2013-10-27T12:01:49Z</time>
      </trkpt>
      <trkpt lat="41.611635259" lon="2.540769482">
        <ele>143.85</ele>
        <time>2013-10-27T12:01:57Z</time>
      </trkpt>
      <trkpt lat="41.611451444" lon="2.540850451">
        <ele>144.82</ele>
        <time>2013-10-27T12:02:04Z</time>
      </trkpt>
      <trkpt lat="41.611408613" lon="2.540869897">
        <ele>144.82</ele>
        <time>2013-10-27T12:02:05Z</time>
      </trkpt>
      <trkpt lat="41.611049532" lon="2.541039463">
        <ele>142.89</ele>
        <time>2013-10-27T12:02:12Z</time>
      </trkpt>
      <trkpt lat="41.610513677" lon="2.541259656">
        <ele>140.49</ele>
        <time>2013-10-27T12:02:20Z</time>
      </trkpt>
      <trkpt lat="41.610289126" lon="2.541348755">
        <ele>138.57</ele>
        <time>2013-10-27T12:02:24Z</time>
      </trkpt>
      <trkpt lat="41.610199607" lon="2.541152870">
        <ele>138.09</ele>
        <time>2013-10-27T12:02:28Z</time>
      </trkpt>
      <trkpt lat="41.610118302" lon="2.540757831">
        <ele>136.16</ele>
        <time>2013-10-27T12:02:33Z</time>
      </trkpt>
      <trkpt lat="41.609977403" lon="2.540479384">
        <ele>134.24</ele>
        <time>2013-10-27T12:02:38Z</time>
      </trkpt>
      <trkpt lat="41.609852429" lon="2.540473936">
        <ele>133.76</ele>
        <time>2013-10-27T12:02:41Z</time>
      </trkpt>
      <trkpt lat="41.609659561" lon="2.540513499">
        <ele>132.80</ele>
        <time>2013-10-27T12:02:47Z</time>
      </trkpt>
      <trkpt lat="41.609321351" lon="2.540529760">
        <ele>131.36</ele>
        <time>2013-10-27T12:02:56Z</time>
      </trkpt>
      <trkpt lat="41.609048269" lon="2.540571166">
        <ele>130.40</ele>
        <time>2013-10-27T12:03:03Z</time>
      </trkpt>
      <trkpt lat="41.608918936" lon="2.540600168">
        <ele>129.43</ele>
        <time>2013-10-27T12:03:09Z</time>
      </trkpt>
      <trkpt lat="41.608860346" lon="2.540575944">
        <ele>129.43</ele>
        <time>2013-10-27T12:03:15Z</time>
      </trkpt>
      <trkpt lat="41.608866298" lon="2.540530849">
        <ele>128.95</ele>
        <time>2013-10-27T12:03:22Z</time>
      </trkpt>
      <trkpt lat="41.608915080" lon="2.540495729">
        <ele>128.95</ele>
        <time>2013-10-27T12:03:30Z</time>
      </trkpt>
      <trkpt lat="41.608923881" lon="2.540423729">
        <ele>128.95</ele>
        <time>2013-10-27T12:03:36Z</time>
      </trkpt>
      <trkpt lat="41.608917092" lon="2.540401684">
        <ele>128.95</ele>
        <time>2013-10-27T12:03:45Z</time>
      </trkpt>
      <trkpt lat="41.608906782" lon="2.540350471">
        <ele>128.95</ele>
        <time>2013-10-27T12:03:57Z</time>
      </trkpt>
      <trkpt lat="41.608922121" lon="2.540342759">
        <ele>128.95</ele>
        <time>2013-10-27T12:04:08Z</time>
      </trkpt>
      <trkpt lat="41.608932515" lon="2.540336305">
        <ele>128.47</ele>
        <time>2013-10-27T12:04:22Z</time>
      </trkpt>
      <trkpt lat="41.608954391" lon="2.540336389">
        <ele>128.47</ele>
        <time>2013-10-27T12:04:31Z</time>
      </trkpt>
      <trkpt lat="41.608956906" lon="2.540345945">
        <ele>128.47</ele>
        <time>2013-10-27T12:04:42Z</time>
      </trkpt>
    </trkseg>
  </trk>
</gpx>
